<?xml version='1.0' encoding='UTF-8'?><gpx version="1.1" creator="JPX - https://github.com/jenetics/jpx" xmlns="http://www.topografix.com/GPX/1/1"><trk><trkseg><trkpt lat="39.183032054271756" lon="16.18276197682158"><ele>1093.0</ele><time>2026-05-02T14:07:41Z</time></trkpt><trkpt lat="39.18306698150956" lon="16.182673960237594"><ele>1093.0</ele><time>2026-05-02T14:07:44Z</time></trkpt><trkpt lat="39.18310641536227" lon="16.182550721262608"><ele>1093.0</ele><time>2026-05-02T14:07:47Z</time></trkpt><trkpt lat="39.18312119863176" lon="16.182448380542702"><ele>1093.0</ele><time>2026-05-02T14:07:49Z</time></trkpt><trkpt lat="39.18313684839108" lon="16.182308331171356"><ele>1093.0</ele><time>2026-05-02T14:07:51Z</time></trkpt><trkpt lat="39.18315105323725" lon="16.18221907876764"><ele>1093.0</ele><time>2026-05-02T14:07:52Z</time></trkpt><trkpt lat="39.18319841358986" lon="16.182050789692074"><ele>1092.8333333333333</ele><time>2026-05-02T14:07:54Z</time></trkpt><trkpt lat="39.18323350672127" lon="16.181902843688434"><ele>1092.6666666666665</ele><time>2026-05-02T14:07:56Z</time></trkpt><trkpt lat="39.18325789835144" lon="16.1818018387043"><ele>1092.5</ele><time>2026-05-02T14:07:57Z</time></trkpt><trkpt lat="39.18327202190211" lon="16.18171791620523"><ele>1092.3333333333333</ele><time>2026-05-02T14:07:58Z</time></trkpt><trkpt lat="39.183280995283006" lon="16.181624926174088"><ele>1092.1666666666667</ele><time>2026-05-02T14:08:00Z</time></trkpt><trkpt lat="39.18328418290158" lon="16.18150331874744"><ele>1092.0</ele><time>2026-05-02T14:08:02Z</time></trkpt><trkpt lat="39.18329159863835" lon="16.181388970312188"><ele>1092.0</ele><time>2026-05-02T14:08:04Z</time></trkpt><trkpt lat="39.18332272847086" lon="16.18128450483965"><ele>1092.0</ele><time>2026-05-02T14:08:07Z</time></trkpt><trkpt lat="39.18338742244118" lon="16.181185028128372"><ele>1092.0</ele><time>2026-05-02T14:08:10Z</time></trkpt><trkpt lat="39.1834770418019" lon="16.18114318792269"><ele>1092.0</ele><time>2026-05-02T14:08:13Z</time></trkpt><trkpt lat="39.18357657690256" lon="16.181116143707115"><ele>1092.0</ele><time>2026-05-02T14:08:15Z</time></trkpt><trkpt lat="39.18365380710109" lon="16.181110406858473"><ele>1092.0</ele><time>2026-05-02T14:08:16Z</time></trkpt><trkpt lat="39.18372946990727" lon="16.1810956332563"><ele>1092.0</ele><time>2026-05-02T14:08:18Z</time></trkpt><trkpt lat="39.183807656046355" lon="16.181079222096557"><ele>1092.0</ele><time>2026-05-02T14:08:19Z</time></trkpt><trkpt lat="39.183882833695506" lon="16.181027070746435"><ele>1092.0</ele><time>2026-05-02T14:08:20Z</time></trkpt><trkpt lat="39.183945908534135" lon="16.180988155338845"><ele>1092.0</ele><time>2026-05-02T14:08:21Z</time></trkpt><trkpt lat="39.184007248638345" lon="16.180957500996485"><ele>1092.0</ele><time>2026-05-02T14:08:22Z</time></trkpt><trkpt lat="39.1840682460341" lon="16.18091824708661"><ele>1092.0</ele><time>2026-05-02T14:08:23Z</time></trkpt><trkpt lat="39.1841313603207" lon="16.180878180661303"><ele>1091.8333333333333</ele><time>2026-05-02T14:08:23.999Z</time></trkpt><trkpt lat="39.18419854210434" lon="16.180833530916097"><ele>1091.6666666666667</ele><time>2026-05-02T14:08:24.999Z</time></trkpt><trkpt lat="39.18425799306174" lon="16.18079284675893"><ele>1091.5</ele><time>2026-05-02T14:08:25.999Z</time></trkpt><trkpt lat="39.184319244702124" lon="16.180756760127"><ele>1091.3333333333335</ele><time>2026-05-02T14:08:26.999Z</time></trkpt><trkpt lat="39.18438825564475" lon="16.180686355464722"><ele>1091.1666666666667</ele><time>2026-05-02T14:08:29.999Z</time></trkpt><trkpt lat="39.18441438859855" lon="16.18059100198128"><ele>1091.0</ele><time>2026-05-02T14:08:32.999Z</time></trkpt><trkpt lat="39.184396413427756" lon="16.180497069092546"><ele>1091.0</ele><time>2026-05-02T14:08:34.999Z</time></trkpt><trkpt lat="39.18440911600729" lon="16.180364114701096"><ele>1091.0</ele><time>2026-05-02T14:08:37.999Z</time></trkpt><trkpt lat="39.18443362484058" lon="16.18028306276563"><ele>1091.0</ele><time>2026-05-02T14:08:40.999Z</time></trkpt><trkpt lat="39.18444175871386" lon="16.180148285934706"><ele>1091.0</ele><time>2026-05-02T14:08:43.999Z</time></trkpt><trkpt lat="39.184414895418556" lon="16.180021843045555"><ele>1091.0</ele><time>2026-05-02T14:08:45.999Z</time></trkpt><trkpt lat="39.184385842790796" lon="16.17991972766784"><ele>1088.857142857143</ele><time>2026-05-02T14:08:47.999Z</time></trkpt><trkpt lat="39.184381204704515" lon="16.179804163246363"><ele>1086.7142857142858</ele><time>2026-05-02T14:08:50.999Z</time></trkpt><trkpt lat="39.184385276591314" lon="16.179716848590008"><ele>1084.5714285714287</ele><time>2026-05-02T14:08:53.999Z</time></trkpt><trkpt lat="39.184404824273315" lon="16.17962464850168"><ele>1082.4285714285716</ele><time>2026-05-02T14:08:56.999Z</time></trkpt><trkpt lat="39.18442275181363" lon="16.179528874212686"><ele>1080.2857142857144</ele><time>2026-05-02T14:08:59.999Z</time></trkpt><trkpt lat="39.18444092382434" lon="16.17944379240241"><ele>1078.142857142857</ele><time>2026-05-02T14:09:02.999Z</time></trkpt><trkpt lat="39.18443949754027" lon="16.179360015354693"><ele>1076.0</ele><time>2026-05-02T14:09:05.999Z</time></trkpt><trkpt lat="39.18438121189267" lon="16.179292353838107"><ele>1076.0</ele><time>2026-05-02T14:09:13Z</time></trkpt><trkpt lat="39.18431423351594" lon="16.1793105339072"><ele>1076.0</ele><time>2026-05-02T14:09:16Z</time></trkpt><trkpt lat="39.184228124592515" lon="16.1793596558401"><ele>1076.0</ele><time>2026-05-02T14:09:18Z</time></trkpt><trkpt lat="39.18413620265413" lon="16.179424861955574"><ele>1076.0</ele><time>2026-05-02T14:09:20Z</time></trkpt><trkpt lat="39.18406566392101" lon="16.17951585787145"><ele>1076.0</ele><time>2026-05-02T14:09:22Z</time></trkpt><trkpt lat="39.18398832549503" lon="16.179588301403314"><ele>1076.6</ele><time>2026-05-02T14:09:24Z</time></trkpt><trkpt lat="39.18390552710899" lon="16.17968552776771"><ele>1077.1999999999998</ele><time>2026-05-02T14:09:26Z</time></trkpt><trkpt lat="39.18383975654244" lon="16.17977929776162"><ele>1077.8000000000002</ele><time>2026-05-02T14:09:28Z</time></trkpt><trkpt lat="39.183759271085414" lon="16.179906887005213"><ele>1078.4</ele><time>2026-05-02T14:09:30Z</time></trkpt><trkpt lat="39.183722209390474" lon="16.17997437826983"><ele>1079.0</ele><time>2026-05-02T14:09:31Z</time></trkpt><trkpt lat="39.1836697882604" lon="16.18010570822759"><ele>1079.0</ele><time>2026-05-02T14:09:33Z</time></trkpt><trkpt lat="39.18365750133982" lon="16.180188481286326"><ele>1079.0</ele><time>2026-05-02T14:09:34Z</time></trkpt><trkpt lat="39.18365062108097" lon="16.180273197415943"><ele>1079.0</ele><time>2026-05-02T14:09:35Z</time></trkpt><trkpt lat="39.18363469577931" lon="16.180362853822913"><ele>1079.0</ele><time>2026-05-02T14:09:36Z</time></trkpt><trkpt lat="39.18362156262085" lon="16.180461115141757"><ele>1079.0</ele><time>2026-05-02T14:09:37Z</time></trkpt><trkpt lat="39.183604605797896" lon="16.180563807680183"><ele>1079.0</ele><time>2026-05-02T14:09:38Z</time></trkpt><trkpt lat="39.1835993065294" lon="16.180671379653845"><ele>1079.0</ele><time>2026-05-02T14:09:39Z</time></trkpt><trkpt lat="39.183587628814166" lon="16.18077034894068"><ele>1080.857142857143</ele><time>2026-05-02T14:09:40Z</time></trkpt><trkpt lat="39.183545876557844" lon="16.1808496420433"><ele>1082.7142857142858</ele><time>2026-05-02T14:09:41Z</time></trkpt><trkpt lat="39.18350953975569" lon="16.180920296661856"><ele>1084.5714285714284</ele><time>2026-05-02T14:09:42Z</time></trkpt><trkpt lat="39.183493651401" lon="16.18100705277542"><ele>1086.4285714285716</ele><time>2026-05-02T14:09:44Z</time></trkpt><trkpt lat="39.183499176186714" lon="16.181093788987738"><ele>1088.2857142857142</ele><time>2026-05-02T14:09:46Z</time></trkpt><trkpt lat="39.18352659003531" lon="16.181177455595996"><ele>1090.142857142857</ele><time>2026-05-02T14:09:48Z</time></trkpt><trkpt lat="39.18355978538003" lon="16.18129869162426"><ele>1092.0</ele><time>2026-05-02T14:09:50Z</time></trkpt><trkpt lat="39.18354169829968" lon="16.181408401645978"><ele>1092.0</ele><time>2026-05-02T14:09:52Z</time></trkpt><trkpt lat="39.18345507684265" lon="16.181524196405277"><ele>1092.0</ele><time>2026-05-02T14:09:54Z</time></trkpt><trkpt lat="39.183400426623294" lon="16.18158728178805"><ele>1092.0</ele><time>2026-05-02T14:09:55Z</time></trkpt><trkpt lat="39.183343579816956" lon="16.181625528809132"><ele>1092.0</ele><time>2026-05-02T14:09:56Z</time></trkpt><trkpt lat="39.18324940654614" lon="16.181620544356672"><ele>1092.0</ele><time>2026-05-02T14:09:58Z</time></trkpt><trkpt lat="39.183242819974716" lon="16.18150696137194"><ele>1092.0</ele><time>2026-05-02T14:10:00Z</time></trkpt><trkpt lat="39.183292284593776" lon="16.181394092609214"><ele>1092.0</ele><time>2026-05-02T14:10:02Z</time></trkpt><trkpt lat="39.1833485212166" lon="16.181244525272955"><ele>1092.0</ele><time>2026-05-02T14:10:04Z</time></trkpt><trkpt lat="39.183416190670464" lon="16.181179615364325"><ele>1092.0</ele><time>2026-05-02T14:10:06Z</time></trkpt><trkpt lat="39.18351950559295" lon="16.181141281092486"><ele>1092.0</ele><time>2026-05-02T14:10:08Z</time></trkpt><trkpt lat="39.18358301849368" lon="16.181115774059936"><ele>1092.0</ele><time>2026-05-02T14:10:09Z</time></trkpt><trkpt lat="39.18369359417325" lon="16.181094672765184"><ele>1092.0</ele><time>2026-05-02T14:10:10Z</time></trkpt><trkpt lat="39.183777722115416" lon="16.181070630578912"><ele>1092.0</ele><time>2026-05-02T14:10:11Z</time></trkpt><trkpt lat="39.18387430323833" lon="16.181042293401852"><ele>1092.0</ele><time>2026-05-02T14:10:12Z</time></trkpt><trkpt lat="39.18397068486331" lon="16.18099757691813"><ele>1092.0</ele><time>2026-05-02T14:10:13Z</time></trkpt><trkpt lat="39.18406389310728" lon="16.180943513660957"><ele>1092.0</ele><time>2026-05-02T14:10:14Z</time></trkpt><trkpt lat="39.184158141617246" lon="16.180881975250987"><ele>1091.8333333333333</ele><time>2026-05-02T14:10:15Z</time></trkpt><trkpt lat="39.18424328493487" lon="16.18082968479893"><ele>1091.6666666666667</ele><time>2026-05-02T14:10:16Z</time></trkpt><trkpt lat="39.184319248526904" lon="16.180782806287546"><ele>1091.5</ele><time>2026-05-02T14:10:17Z</time></trkpt><trkpt lat="39.18437596741245" lon="16.18074061044345"><ele>1091.3333333333335</ele><time>2026-05-02T14:10:18Z</time></trkpt><trkpt lat="39.18444456949123" lon="16.18065758026202"><ele>1091.1666666666667</ele><time>2026-05-02T14:10:20Z</time></trkpt><trkpt lat="39.184506550827344" lon="16.180546271762697"><ele>1091.0</ele><time>2026-05-02T14:10:23Z</time></trkpt><trkpt lat="39.184576780524274" lon="16.180481383176186"><ele>1091.0</ele><time>2026-05-02T14:10:25Z</time></trkpt><trkpt lat="39.18462810905355" lon="16.18041457422793"><ele>1091.0</ele><time>2026-05-02T14:10:28Z</time></trkpt><trkpt lat="39.18469661353625" lon="16.180342981461173"><ele>1091.0</ele><time>2026-05-02T14:10:30.999Z</time></trkpt><trkpt lat="39.18476412485977" lon="16.18026580173021"><ele>1091.0</ele><time>2026-05-02T14:10:33.999Z</time></trkpt><trkpt lat="39.18482689503218" lon="16.18017902713391"><ele>1091.0</ele><time>2026-05-02T14:10:36.999Z</time></trkpt><trkpt lat="39.18489904456823" lon="16.180123965292868"><ele>1091.0</ele><time>2026-05-02T14:10:39.999Z</time></trkpt><trkpt lat="39.18498652244266" lon="16.180129199493276"><ele>1090.5714285714284</ele><time>2026-05-02T14:10:42.999Z</time></trkpt><trkpt lat="39.18504384762251" lon="16.180094332733002"><ele>1090.142857142857</ele><time>2026-05-02T14:10:44.999Z</time></trkpt><trkpt lat="39.1851016959849" lon="16.180035211295507"><ele>1089.7142857142858</ele><time>2026-05-02T14:10:47.999Z</time></trkpt><trkpt lat="39.1851612088908" lon="16.179975870256065"><ele>1089.2857142857142</ele><time>2026-05-02T14:10:50.999Z</time></trkpt><trkpt lat="39.185195061277845" lon="16.17989479315525"><ele>1088.857142857143</ele><time>2026-05-02T14:10:55.999Z</time></trkpt><trkpt lat="39.18518993731664" lon="16.179811907747734"><ele>1088.4285714285713</ele><time>2026-05-02T14:10:58.999Z</time></trkpt><trkpt lat="39.18517581120018" lon="16.1797231115859"><ele>1088.0</ele><time>2026-05-02T14:11:01.999Z</time></trkpt><trkpt lat="39.18518126953601" lon="16.179629504154907"><ele>1086.3333333333335</ele><time>2026-05-02T14:11:04.999Z</time></trkpt><trkpt lat="39.185203463610996" lon="16.17952218079522"><ele>1084.6666666666667</ele><time>2026-05-02T14:11:07.999Z</time></trkpt><trkpt lat="39.18522805026644" lon="16.179447172634713"><ele>1083.0</ele><time>2026-05-02T14:11:09.999Z</time></trkpt><trkpt lat="39.18525031335911" lon="16.17935359672411"><ele>1081.3333333333333</ele><time>2026-05-02T14:11:12.999Z</time></trkpt><trkpt lat="39.18531967192165" lon="16.179372770880715"><ele>1079.6666666666665</ele><time>2026-05-02T14:11:49Z</time></trkpt><trkpt lat="39.18538769449815" lon="16.179450815263586"><ele>1078.0</ele><time>2026-05-02T14:11:51Z</time></trkpt><trkpt lat="39.18542109728836" lon="16.179534225375935"><ele>1078.0</ele><time>2026-05-02T14:11:53Z</time></trkpt><trkpt lat="39.185471168764884" lon="16.179611212183662"><ele>1078.0</ele><time>2026-05-02T14:11:55Z</time></trkpt><trkpt lat="39.18551374585293" lon="16.179694813810645"><ele>1078.0</ele><time>2026-05-02T14:11:58Z</time></trkpt><trkpt lat="39.18547705299568" lon="16.179609159637344"><ele>1078.0</ele><time>2026-05-02T14:12:51.999Z</time></trkpt><trkpt lat="39.185413361609" lon="16.1795169693894"><ele>1078.0</ele><time>2026-05-02T14:12:53.999Z</time></trkpt><trkpt lat="39.18535564729145" lon="16.179437970295425"><ele>1078.0</ele><time>2026-05-02T14:12:56.999Z</time></trkpt><trkpt lat="39.18530268986583" lon="16.179371546039206"><ele>1078.0</ele><time>2026-05-02T14:12:58.999Z</time></trkpt><trkpt lat="39.185235007805915" lon="16.179308883714732"><ele>1078.0</ele><time>2026-05-02T14:13:00.999Z</time></trkpt><trkpt lat="39.18513559359792" lon="16.179208955147264"><ele>1078.0</ele><time>2026-05-02T14:13:02.999Z</time></trkpt><trkpt lat="39.18505184418784" lon="16.17914958831281"><ele>1078.0</ele><time>2026-05-02T14:13:04.999Z</time></trkpt><trkpt lat="39.184967411551845" lon="16.179117755961887"><ele>1078.0</ele><time>2026-05-02T14:13:06.999Z</time></trkpt><trkpt lat="39.18486876635873" lon="16.179132957818343"><ele>1077.7142857142858</ele><time>2026-05-02T14:13:08.999Z</time></trkpt><trkpt lat="39.184765291836186" lon="16.17916816870038"><ele>1077.4285714285716</ele><time>2026-05-02T14:13:10.999Z</time></trkpt><trkpt lat="39.184712542324995" lon="16.17912150862956"><ele>1077.142857142857</ele><time>2026-05-02T14:13:13.999Z</time></trkpt><trkpt lat="39.18473880923157" lon="16.179046142863317"><ele>1076.857142857143</ele><time>2026-05-02T14:13:15.999Z</time></trkpt><trkpt lat="39.18477148540972" lon="16.178969128951284"><ele>1076.5714285714287</ele><time>2026-05-02T14:13:17.999Z</time></trkpt><trkpt lat="39.18480365494902" lon="16.178880611904027"><ele>1076.2857142857142</ele><time>2026-05-02T14:13:20.999Z</time></trkpt><trkpt lat="39.18480591186527" lon="16.178792362837736"><ele>1076.0</ele><time>2026-05-02T14:13:25Z</time></trkpt><trkpt lat="39.18477212132924" lon="16.178713980327867"><ele>1073.4285714285716</ele><time>2026-05-02T14:13:30Z</time></trkpt><trkpt lat="39.18473056835315" lon="16.178643392647245"><ele>1070.857142857143</ele><time>2026-05-02T14:13:33Z</time></trkpt><trkpt lat="39.18469750075465" lon="16.178568143802014"><ele>1068.2857142857142</ele><time>2026-05-02T14:13:36Z</time></trkpt><trkpt lat="39.184660546053834" lon="16.17849542377152"><ele>1065.7142857142858</ele><time>2026-05-02T14:13:39Z</time></trkpt><trkpt lat="39.18464211776077" lon="16.178408332387626"><ele>1063.142857142857</ele><time>2026-05-02T14:13:42Z</time></trkpt><trkpt lat="39.1846195585119" lon="16.17833045195971"><ele>1060.5714285714287</ele><time>2026-05-02T14:13:44Z</time></trkpt><trkpt lat="39.18460229106637" lon="16.178251882272633"><ele>1058.0</ele><time>2026-05-02T14:13:47Z</time></trkpt><trkpt lat="39.184588388407796" lon="16.178156834920443"><ele>1055.142857142857</ele><time>2026-05-02T14:13:51Z</time></trkpt><trkpt lat="39.18456359843413" lon="16.17807724489286"><ele>1052.2857142857142</ele><time>2026-05-02T14:13:55Z</time></trkpt><trkpt lat="39.18450282519505" lon="16.178015014239076"><ele>1049.4285714285713</ele><time>2026-05-02T14:13:58Z</time></trkpt><trkpt lat="39.18445767400389" lon="16.177943763417073"><ele>1046.5714285714284</ele><time>2026-05-02T14:14:02Z</time></trkpt><trkpt lat="39.18439546607774" lon="16.177906556009"><ele>1043.7142857142856</ele><time>2026-05-02T14:14:06Z</time></trkpt><trkpt lat="39.18436419930349" lon="16.177831677307378"><ele>1040.857142857143</ele><time>2026-05-02T14:14:16Z</time></trkpt><trkpt lat="39.18429295144143" lon="16.177808500916484"><ele>1038.0</ele><time>2026-05-02T14:14:18Z</time></trkpt><trkpt lat="39.18412054151572" lon="16.17780420970288"><ele>1038.0</ele><time>2026-05-02T14:14:21Z</time></trkpt><trkpt lat="39.18401609773521" lon="16.177816796848834"><ele>1038.0</ele><time>2026-05-02T14:14:23Z</time></trkpt><trkpt lat="39.18395740634707" lon="16.17788348699637"><ele>1038.0</ele><time>2026-05-02T14:14:29Z</time></trkpt><trkpt lat="39.18385028010557" lon="16.177907516514782"><ele>1038.0</ele><time>2026-05-02T14:14:30.999Z</time></trkpt><trkpt lat="39.18373370781273" lon="16.177885843322848"><ele>1038.0</ele><time>2026-05-02T14:14:32.999Z</time></trkpt><trkpt lat="39.18364373400233" lon="16.17785260799917"><ele>1038.6</ele><time>2026-05-02T14:14:34.999Z</time></trkpt><trkpt lat="39.18356877768317" lon="16.17782484224664"><ele>1039.1999999999998</ele><time>2026-05-02T14:14:36.999Z</time></trkpt><trkpt lat="39.1834699857544" lon="16.177765343697434"><ele>1039.8</ele><time>2026-05-02T14:14:38.999Z</time></trkpt><trkpt lat="39.18341131913703" lon="16.177730277078837"><ele>1040.3999999999999</ele><time>2026-05-02T14:14:39.999Z</time></trkpt><trkpt lat="39.183304830470725" lon="16.177681005495337"><ele>1041.0</ele><time>2026-05-02T14:14:41.999Z</time></trkpt><trkpt lat="39.183204144889714" lon="16.177675498119598"><ele>1040.6666666666667</ele><time>2026-05-02T14:14:43.999Z</time></trkpt><trkpt lat="39.18309392034167" lon="16.1776956016851"><ele>1040.3333333333333</ele><time>2026-05-02T14:14:45.999Z</time></trkpt><trkpt lat="39.18299450997141" lon="16.17772033452133"><ele>1040.0</ele><time>2026-05-02T14:14:47.999Z</time></trkpt><trkpt lat="39.182918114944165" lon="16.177723926428374"><ele>1039.6666666666665</ele><time>2026-05-02T14:14:49.999Z</time></trkpt><trkpt lat="39.18283896240411" lon="16.177701211806923"><ele>1039.3333333333333</ele><time>2026-05-02T14:14:51.999Z</time></trkpt><trkpt lat="39.18276306083663" lon="16.177673748140283"><ele>1039.0</ele><time>2026-05-02T14:14:53.999Z</time></trkpt><trkpt lat="39.18268041883133" lon="16.177698735696417"><ele>1039.0</ele><time>2026-05-02T14:14:55.999Z</time></trkpt><trkpt lat="39.18253636020615" lon="16.17771906536585"><ele>1039.0</ele><time>2026-05-02T14:14:57.999Z</time></trkpt><trkpt lat="39.18244228573102" lon="16.177751238882685"><ele>1039.0</ele><time>2026-05-02T14:14:58.999Z</time></trkpt><trkpt lat="39.1823700225988" lon="16.17776726365716"><ele>1039.0</ele><time>2026-05-02T14:14:59.999Z</time></trkpt><trkpt lat="39.182305277230206" lon="16.177776625891678"><ele>1039.0</ele><time>2026-05-02T14:15:00.999Z</time></trkpt><trkpt lat="39.18221119513857" lon="16.177737052394804"><ele>1038.0</ele><time>2026-05-02T14:15:02.999Z</time></trkpt><trkpt lat="39.182114212297314" lon="16.177665914167417"><ele>1037.0</ele><time>2026-05-02T14:15:04.999Z</time></trkpt><trkpt lat="39.18205648720368" lon="16.177591390453134"><ele>1036.0</ele><time>2026-05-02T14:15:05.999Z</time></trkpt><trkpt lat="39.18200509737804" lon="16.177520448277708"><ele>1035.0</ele><time>2026-05-02T14:15:06.999Z</time></trkpt><trkpt lat="39.18198049858895" lon="16.177373131523176"><ele>1034.0</ele><time>2026-05-02T14:15:08.999Z</time></trkpt><trkpt lat="39.18202722207382" lon="16.177232365213857"><ele>1033.4</ele><time>2026-05-02T14:15:10.999Z</time></trkpt><trkpt lat="39.18205304766934" lon="16.177126181549475"><ele>1032.8000000000002</ele><time>2026-05-02T14:15:11.999Z</time></trkpt><trkpt lat="39.1820633265254" lon="16.1769786052011"><ele>1032.1999999999998</ele><time>2026-05-02T14:15:12.999Z</time></trkpt><trkpt lat="39.18207222730789" lon="16.176845751658934"><ele>1031.6</ele><time>2026-05-02T14:15:13.999Z</time></trkpt><trkpt lat="39.18208701782735" lon="16.176701076497746"><ele>1031.0</ele><time>2026-05-02T14:15:14.999Z</time></trkpt><trkpt lat="39.182107821314844" lon="16.176538047690197"><ele>1029.3999999999999</ele><time>2026-05-02T14:15:15.999Z</time></trkpt><trkpt lat="39.18214205764184" lon="16.176423876328784"><ele>1027.8</ele><time>2026-05-02T14:15:16.999Z</time></trkpt><trkpt lat="39.18214349065825" lon="16.17630640566303"><ele>1026.1999999999998</ele><time>2026-05-02T14:15:17.999Z</time></trkpt><trkpt lat="39.1821348661234" lon="16.17619204811587"><ele>1024.6</ele><time>2026-05-02T14:15:18.999Z</time></trkpt><trkpt lat="39.18211886296013" lon="16.17604102434674"><ele>1023.0</ele><time>2026-05-02T14:15:19.999Z</time></trkpt><trkpt lat="39.18211250967152" lon="16.175858499183974"><ele>1021.0</ele><time>2026-05-02T14:15:20.999Z</time></trkpt><trkpt lat="39.18210300521556" lon="16.175661443349895"><ele>1019.0</ele><time>2026-05-02T14:15:21.999Z</time></trkpt><trkpt lat="39.182091312612535" lon="16.175483561960796"><ele>1017.0</ele><time>2026-05-02T14:15:22.999Z</time></trkpt><trkpt lat="39.18208027127939" lon="16.17535125097137"><ele>1015.0</ele><time>2026-05-02T14:15:23.999Z</time></trkpt><trkpt lat="39.18207065359037" lon="16.175253507047408"><ele>1015.0</ele><time>2026-05-02T14:15:24.999Z</time></trkpt><trkpt lat="39.18210139749657" lon="16.175156228317753"><ele>1015.0</ele><time>2026-05-02T14:15:26.999Z</time></trkpt><trkpt lat="39.18216346277206" lon="16.175174491371312"><ele>1015.0</ele><time>2026-05-02T14:15:29Z</time></trkpt><trkpt lat="39.182238143105764" lon="16.175243905053687"><ele>1015.0</ele><time>2026-05-02T14:15:31Z</time></trkpt><trkpt lat="39.18228809415883" lon="16.175296542222547"><ele>1015.0</ele><time>2026-05-02T14:15:32Z</time></trkpt><trkpt lat="39.18238457693027" lon="16.175445645613156"><ele>1014.4</ele><time>2026-05-02T14:15:34Z</time></trkpt><trkpt lat="39.182449737153945" lon="16.17555489986712"><ele>1013.8</ele><time>2026-05-02T14:15:35Z</time></trkpt><trkpt lat="39.18250407936844" lon="16.175644635984344"><ele>1013.2</ele><time>2026-05-02T14:15:36Z</time></trkpt><trkpt lat="39.18256340763075" lon="16.17573750665527"><ele>1012.6</ele><time>2026-05-02T14:15:37Z</time></trkpt><trkpt lat="39.18262173149877" lon="16.175824700952404"><ele>1012.0</ele><time>2026-05-02T14:15:38Z</time></trkpt><trkpt lat="39.1826727090736" lon="16.175903524933116"><ele>1015.4000000000001</ele><time>2026-05-02T14:15:39Z</time></trkpt><trkpt lat="39.18270459310915" lon="16.175983321883823"><ele>1018.8000000000001</ele><time>2026-05-02T14:15:40Z</time></trkpt><trkpt lat="39.18274657841484" lon="16.17605876383382"><ele>1022.2</ele><time>2026-05-02T14:15:41Z</time></trkpt><trkpt lat="39.182824465497795" lon="16.176180970125134"><ele>1025.6000000000001</ele><time>2026-05-02T14:15:43Z</time></trkpt><trkpt lat="39.18292375169084" lon="16.176302857926714"><ele>1029.0</ele><time>2026-05-02T14:15:45Z</time></trkpt><trkpt lat="39.18300357157051" lon="16.176361623314836"><ele>1029.0</ele><time>2026-05-02T14:15:46Z</time></trkpt><trkpt lat="39.183103672957586" lon="16.176401825673786"><ele>1029.0</ele><time>2026-05-02T14:15:47Z</time></trkpt><trkpt lat="39.18320110208322" lon="16.176452788130227"><ele>1029.0</ele><time>2026-05-02T14:15:48Z</time></trkpt><trkpt lat="39.18329035917823" lon="16.176495819816473"><ele>1029.0</ele><time>2026-05-02T14:15:49Z</time></trkpt><trkpt lat="39.183375746100104" lon="16.17653932775125"><ele>1029.0</ele><time>2026-05-02T14:15:50Z</time></trkpt><trkpt lat="39.183461967558955" lon="16.176568772023106"><ele>1028.6666666666667</ele><time>2026-05-02T14:15:51Z</time></trkpt><trkpt lat="39.18354445461073" lon="16.17659978077845"><ele>1028.3333333333333</ele><time>2026-05-02T14:15:52Z</time></trkpt><trkpt lat="39.18363298958058" lon="16.176631700746032"><ele>1028.0</ele><time>2026-05-02T14:15:53Z</time></trkpt><trkpt lat="39.18370647014154" lon="16.176663441315164"><ele>1027.6666666666665</ele><time>2026-05-02T14:15:54Z</time></trkpt><trkpt lat="39.18377379090737" lon="16.176704802846277"><ele>1027.3333333333333</ele><time>2026-05-02T14:15:55Z</time></trkpt><trkpt lat="39.18384595687283" lon="16.17674611597999"><ele>1027.0</ele><time>2026-05-02T14:15:56Z</time></trkpt><trkpt lat="39.18392651781685" lon="16.176788919281442"><ele>1027.0</ele><time>2026-05-02T14:15:57Z</time></trkpt><trkpt lat="39.18401231650081" lon="16.176794959939905"><ele>1027.0</ele><time>2026-05-02T14:15:58Z</time></trkpt><trkpt lat="39.18411025313659" lon="16.176770543727603"><ele>1027.0</ele><time>2026-05-02T14:15:59Z</time></trkpt><trkpt lat="39.18422084214134" lon="16.17674977589599"><ele>1027.0</ele><time>2026-05-02T14:16:00Z</time></trkpt><trkpt lat="39.18430977495323" lon="16.176741681480223"><ele>1027.0</ele><time>2026-05-02T14:16:01Z</time></trkpt><trkpt lat="39.18437396733406" lon="16.176737105285998"><ele>1024.8</ele><time>2026-05-02T14:16:02Z</time></trkpt><trkpt lat="39.18444307030732" lon="16.176748445930265"><ele>1022.6</ele><time>2026-05-02T14:16:04Z</time></trkpt><trkpt lat="39.18451312801799" lon="16.176779904751285"><ele>1020.3999999999999</ele><time>2026-05-02T14:16:07Z</time></trkpt><trkpt lat="39.18462524566936" lon="16.176895462095462"><ele>1018.1999999999999</ele><time>2026-05-02T14:16:09Z</time></trkpt><trkpt lat="39.18469318715258" lon="16.1770019006641"><ele>1016.0</ele><time>2026-05-02T14:16:10Z</time></trkpt><trkpt lat="39.18477159003518" lon="16.177110496866096"><ele>1013.8333333333334</ele><time>2026-05-02T14:16:11Z</time></trkpt><trkpt lat="39.184851804323024" lon="16.17717316215218"><ele>1011.6666666666667</ele><time>2026-05-02T14:16:12Z</time></trkpt><trkpt lat="39.18494060486231" lon="16.177215721301035"><ele>1009.5</ele><time>2026-05-02T14:16:13Z</time></trkpt><trkpt lat="39.18504285862904" lon="16.177238650786112"><ele>1007.3333333333333</ele><time>2026-05-02T14:16:14Z</time></trkpt><trkpt lat="39.18511314597511" lon="16.17723575352371"><ele>1005.1666666666666</ele><time>2026-05-02T14:16:15Z</time></trkpt><trkpt lat="39.185150145478744" lon="16.17716985074438"><ele>1003.0</ele><time>2026-05-02T14:16:19Z</time></trkpt><trkpt lat="39.18510043199094" lon="16.177109163539573"><ele>1003.0</ele><time>2026-05-02T14:16:22Z</time></trkpt><trkpt lat="39.185000381491676" lon="16.177084845509565"><ele>1003.0</ele><time>2026-05-02T14:16:24Z</time></trkpt><trkpt lat="39.18489220326337" lon="16.177024797743478"><ele>1003.0</ele><time>2026-05-02T14:16:25.999Z</time></trkpt><trkpt lat="39.184816058936434" lon="16.176937035035298"><ele>1003.0</ele><time>2026-05-02T14:16:27.999Z</time></trkpt><trkpt lat="39.184779247002325" lon="16.176858479670454"><ele>1003.0</ele><time>2026-05-02T14:16:28.999Z</time></trkpt><trkpt lat="39.18475817472741" lon="16.176780516380195"><ele>1001.9999999999999</ele><time>2026-05-02T14:16:29.999Z</time></trkpt><trkpt lat="39.1847394585519" lon="16.176702002509533"><ele>1001.0</ele><time>2026-05-02T14:16:30.999Z</time></trkpt><trkpt lat="39.18468873946753" lon="16.17655281057884"><ele>1000.0</ele><time>2026-05-02T14:16:32.999Z</time></trkpt><trkpt lat="39.1846667381526" lon="16.176462891083858"><ele>999.0</ele><time>2026-05-02T14:16:33.999Z</time></trkpt><trkpt lat="39.18464497627052" lon="16.176373691046365"><ele>997.9999999999999</ele><time>2026-05-02T14:16:34.999Z</time></trkpt><trkpt lat="39.18462374813846" lon="16.17629284793349"><ele>997.0</ele><time>2026-05-02T14:16:35.999Z</time></trkpt><trkpt lat="39.18457384195828" lon="16.176174913895917"><ele>997.0</ele><time>2026-05-02T14:16:37.999Z</time></trkpt><trkpt lat="39.184511290300605" lon="16.176088288122568"><ele>997.0</ele><time>2026-05-02T14:16:39.999Z</time></trkpt><trkpt lat="39.184426383631475" lon="16.17601412858579"><ele>997.0</ele><time>2026-05-02T14:16:41.999Z</time></trkpt><trkpt lat="39.18431451962078" lon="16.175960731566175"><ele>997.0</ele><time>2026-05-02T14:16:43.999Z</time></trkpt><trkpt lat="39.18420489040608" lon="16.175916392519348"><ele>997.0</ele><time>2026-05-02T14:16:45.999Z</time></trkpt><trkpt lat="39.18413164761356" lon="16.175805863300283"><ele>995.4000000000001</ele><time>2026-05-02T14:16:47.999Z</time></trkpt><trkpt lat="39.1840327092594" lon="16.175670367029092"><ele>993.8000000000001</ele><time>2026-05-02T14:16:49.999Z</time></trkpt><trkpt lat="39.183970599943386" lon="16.175581591045223"><ele>992.2</ele><time>2026-05-02T14:16:50.999Z</time></trkpt><trkpt lat="39.18392031253115" lon="16.175506171481466"><ele>990.6</ele><time>2026-05-02T14:16:51.999Z</time></trkpt><trkpt lat="39.18388240514809" lon="16.175418779117518"><ele>989.0</ele><time>2026-05-02T14:16:53.999Z</time></trkpt><trkpt lat="39.18380987006817" lon="16.175328873027393"><ele>989.0</ele><time>2026-05-02T14:16:55.999Z</time></trkpt><trkpt lat="39.183756573318206" lon="16.175281826040433"><ele>988.9999999999999</ele><time>2026-05-02T14:16:56.999Z</time></trkpt><trkpt lat="39.18368962820614" lon="16.175218191563342"><ele>989.0</ele><time>2026-05-02T14:16:57.999Z</time></trkpt><trkpt lat="39.183626478468184" lon="16.175171223506908"><ele>989.0</ele><time>2026-05-02T14:16:58.999Z</time></trkpt><trkpt lat="39.18356482416251" lon="16.175131317386537"><ele>988.9999999999999</ele><time>2026-05-02T14:16:59.999Z</time></trkpt><trkpt lat="39.183500634549155" lon="16.17508269320728"><ele>989.0</ele><time>2026-05-02T14:17:00.999Z</time></trkpt><trkpt lat="39.18344084925492" lon="16.175042085806208"><ele>989.0</ele><time>2026-05-02T14:17:01.999Z</time></trkpt><trkpt lat="39.1833451747711" lon="16.17497658049059"><ele>989.0000000000001</ele><time>2026-05-02T14:17:03.999Z</time></trkpt><trkpt lat="39.183304789414045" lon="16.17491246351844"><ele>989.0</ele><time>2026-05-02T14:17:04.999Z</time></trkpt><trkpt lat="39.18328692282049" lon="16.174830261956956"><ele>989.0</ele><time>2026-05-02T14:17:05.999Z</time></trkpt><trkpt lat="39.18327970466825" lon="16.174726639185224"><ele>989.0</ele><time>2026-05-02T14:17:06.999Z</time></trkpt><trkpt lat="39.183272916788496" lon="16.17464089520509"><ele>989.0000000000001</ele><time>2026-05-02T14:17:07.999Z</time></trkpt><trkpt lat="39.18322135956135" lon="16.17450055196396"><ele>989.0</ele><time>2026-05-02T14:17:09.999Z</time></trkpt><trkpt lat="39.183179582334795" lon="16.1744365529485"><ele>989.8333333333334</ele><time>2026-05-02T14:17:10.999Z</time></trkpt><trkpt lat="39.18313854963565" lon="16.174363583024384"><ele>990.6666666666667</ele><time>2026-05-02T14:17:11.999Z</time></trkpt><trkpt lat="39.183108749884966" lon="16.174280115417492"><ele>991.5</ele><time>2026-05-02T14:17:12.999Z</time></trkpt><trkpt lat="39.18308806519967" lon="16.174198983123404"><ele>992.3333333333333</ele><time>2026-05-02T14:17:13.999Z</time></trkpt><trkpt lat="39.183048723936814" lon="16.17404979003664"><ele>993.1666666666666</ele><time>2026-05-02T14:17:15.999Z</time></trkpt><trkpt lat="39.18298100332846" lon="16.173923230224766"><ele>994.0</ele><time>2026-05-02T14:17:17.999Z</time></trkpt><trkpt lat="39.18294296258903" lon="16.173848089751807"><ele>991.4000000000001</ele><time>2026-05-02T14:17:18.999Z</time></trkpt><trkpt lat="39.1829027039252" lon="16.173721465589654"><ele>988.8000000000001</ele><time>2026-05-02T14:17:19.999Z</time></trkpt><trkpt lat="39.182878587211576" lon="16.173597166534535"><ele>986.1999999999999</ele><time>2026-05-02T14:17:20.999Z</time></trkpt><trkpt lat="39.182858280328965" lon="16.1734698014137"><ele>983.5999999999999</ele><time>2026-05-02T14:17:21.999Z</time></trkpt><trkpt lat="39.182831875721575" lon="16.173343573083955"><ele>981.0</ele><time>2026-05-02T14:17:22.999Z</time></trkpt><trkpt lat="39.182792093637644" lon="16.17322316776901"><ele>976.8</ele><time>2026-05-02T14:17:23.999Z</time></trkpt><trkpt lat="39.18273197782057" lon="16.17309169515718"><ele>972.5999999999999</ele><time>2026-05-02T14:17:24.999Z</time></trkpt><trkpt lat="39.182666642202285" lon="16.17297001874843"><ele>968.4</ele><time>2026-05-02T14:17:25.999Z</time></trkpt><trkpt lat="39.18261009823506" lon="16.172868552268895"><ele>964.2</ele><time>2026-05-02T14:17:26.999Z</time></trkpt><trkpt lat="39.18256036501134" lon="16.17277643334193"><ele>960.0</ele><time>2026-05-02T14:17:27.999Z</time></trkpt><trkpt lat="39.18251391429178" lon="16.172708644493547"><ele>960.0</ele><time>2026-05-02T14:17:28.999Z</time></trkpt><trkpt lat="39.18241694775922" lon="16.172605643031574"><ele>960.0</ele><time>2026-05-02T14:17:30.999Z</time></trkpt><trkpt lat="39.18234475851691" lon="16.172551028343428"><ele>960.0</ele><time>2026-05-02T14:17:31.999Z</time></trkpt><trkpt lat="39.18225607481878" lon="16.172497022383936"><ele>960.0</ele><time>2026-05-02T14:17:32.999Z</time></trkpt><trkpt lat="39.18218403959158" lon="16.172449026288636"><ele>960.0</ele><time>2026-05-02T14:17:34Z</time></trkpt><trkpt lat="39.18212715777343" lon="16.172384821037827"><ele>956.0</ele><time>2026-05-02T14:17:35Z</time></trkpt><trkpt lat="39.18207558008907" lon="16.172316462039582"><ele>952.0</ele><time>2026-05-02T14:17:36Z</time></trkpt><trkpt lat="39.18202115576559" lon="16.172249835532554"><ele>948.0</ele><time>2026-05-02T14:17:37Z</time></trkpt><trkpt lat="39.18196509622151" lon="16.172195804003646"><ele>944.0</ele><time>2026-05-02T14:17:38Z</time></trkpt><trkpt lat="39.18189308475352" lon="16.172141742464284"><ele>940.0</ele><time>2026-05-02T14:17:40Z</time></trkpt><trkpt lat="39.18182887812901" lon="16.172136163118335"><ele>936.0</ele><time>2026-05-02T14:17:43Z</time></trkpt><trkpt lat="39.1817499912554" lon="16.172130198774735"><ele>932.0</ele><time>2026-05-02T14:17:46Z</time></trkpt><trkpt lat="39.181686595710566" lon="16.172124689110625"><ele>932.0000000000001</ele><time>2026-05-02T14:17:48Z</time></trkpt><trkpt lat="39.181608021383575" lon="16.172107871682265"><ele>932.0</ele><time>2026-05-02T14:17:51Z</time></trkpt><trkpt lat="39.18153553702906" lon="16.172097018746943"><ele>932.0</ele><time>2026-05-02T14:17:54Z</time></trkpt><trkpt lat="39.1814575127899" lon="16.172079502575528"><ele>932.0</ele><time>2026-05-02T14:17:57Z</time></trkpt><trkpt lat="39.181377545054914" lon="16.172073289004178"><ele>932.0000000000001</ele><time>2026-05-02T14:18:00Z</time></trkpt><trkpt lat="39.181312352009726" lon="16.172152815294673"><ele>932.0</ele><time>2026-05-02T14:18:05Z</time></trkpt><trkpt lat="39.18126208377816" lon="16.17224836082873"><ele>933.5000000000001</ele><time>2026-05-02T14:18:07Z</time></trkpt><trkpt lat="39.181224601287795" lon="16.172316055867842"><ele>935.0</ele><time>2026-05-02T14:18:09Z</time></trkpt><trkpt lat="39.18117964116778" lon="16.17239455363439"><ele>936.5</ele><time>2026-05-02T14:18:12Z</time></trkpt><trkpt lat="39.1811322890786" lon="16.172467583468933"><ele>938.0</ele><time>2026-05-02T14:18:15Z</time></trkpt><trkpt lat="39.18113815748876" lon="16.172595206404015"><ele>939.5000000000001</ele><time>2026-05-02T14:18:19Z</time></trkpt><trkpt lat="39.181150876465736" lon="16.1727632039869"><ele>941.0</ele><time>2026-05-02T14:18:21Z</time></trkpt><trkpt lat="39.18116402291771" lon="16.172849765520358"><ele>941.0000000000001</ele><time>2026-05-02T14:18:22Z</time></trkpt><trkpt lat="39.18119220426173" lon="16.17294502106485"><ele>941.0</ele><time>2026-05-02T14:18:23Z</time></trkpt><trkpt lat="39.18119818337188" lon="16.1730975782128"><ele>941.0</ele><time>2026-05-02T14:18:25Z</time></trkpt><trkpt lat="39.181162894767404" lon="16.17319721713985"><ele>941.0</ele><time>2026-05-02T14:18:27Z</time></trkpt><trkpt lat="39.18109419036527" lon="16.173211219780523"><ele>941.0000000000001</ele><time>2026-05-02T14:18:30Z</time></trkpt><trkpt lat="39.18105689707576" lon="16.173118949529602"><ele>941.0</ele><time>2026-05-02T14:18:33Z</time></trkpt><trkpt lat="39.180997089557955" lon="16.173014906023205"><ele>941.0000000000001</ele><time>2026-05-02T14:18:35Z</time></trkpt><trkpt lat="39.18090125963408" lon="16.172935374799717"><ele>941.0</ele><time>2026-05-02T14:18:37Z</time></trkpt><trkpt lat="39.18082047783543" lon="16.172890397559364"><ele>941.0</ele><time>2026-05-02T14:18:39.999Z</time></trkpt><trkpt lat="39.18075295515492" lon="16.172841830830873"><ele>941.0</ele><time>2026-05-02T14:18:41.999Z</time></trkpt><trkpt lat="39.18069247079286" lon="16.17286960838308"><ele>941.0000000000001</ele><time>2026-05-02T14:18:57.999Z</time></trkpt><trkpt lat="39.18076130425809" lon="16.172893555395966"><ele>941.0</ele><time>2026-05-02T14:19:08.999Z</time></trkpt><trkpt lat="39.18082070419169" lon="16.1729214958503"><ele>941.0000000000001</ele><time>2026-05-02T14:19:11.999Z</time></trkpt><trkpt lat="39.180896772611156" lon="16.172976168258785"><ele>941.0</ele><time>2026-05-02T14:19:14.999Z</time></trkpt><trkpt lat="39.180957832160296" lon="16.17302669643714"><ele>941.0</ele><time>2026-05-02T14:19:17.999Z</time></trkpt><trkpt lat="39.18101406919751" lon="16.173095740703225"><ele>941.0</ele><time>2026-05-02T14:19:20.999Z</time></trkpt><trkpt lat="39.181092876601745" lon="16.173202119995985"><ele>941.0000000000001</ele><time>2026-05-02T14:19:21.999Z</time></trkpt><trkpt lat="39.18116100151578" lon="16.173254019070058"><ele>941.0</ele><time>2026-05-02T14:19:23.999Z</time></trkpt><trkpt lat="39.18120379223499" lon="16.17319287463108"><ele>941.0000000000001</ele><time>2026-05-02T14:19:25.999Z</time></trkpt><trkpt lat="39.18122730494443" lon="16.17309869786661"><ele>941.0</ele><time>2026-05-02T14:19:27.999Z</time></trkpt><trkpt lat="39.18122570008537" lon="16.172942647435914"><ele>941.0</ele><time>2026-05-02T14:19:29.999Z</time></trkpt><trkpt lat="39.181184315793566" lon="16.17284772801208"><ele>941.0</ele><time>2026-05-02T14:19:31.999Z</time></trkpt><trkpt lat="39.181157683547" lon="16.172763378519406"><ele>941.0000000000001</ele><time>2026-05-02T14:19:33.999Z</time></trkpt><trkpt lat="39.181146305514034" lon="16.17267282811007"><ele>941.0</ele><time>2026-05-02T14:19:35.999Z</time></trkpt><trkpt lat="39.18114032757757" lon="16.17257818045262"><ele>941.0000000000001</ele><time>2026-05-02T14:19:37.999Z</time></trkpt><trkpt lat="39.18113249307247" lon="16.172483962020607"><ele>941.0</ele><time>2026-05-02T14:19:40Z</time></trkpt><trkpt lat="39.18114174368718" lon="16.17236213594846"><ele>941.0</ele><time>2026-05-02T14:19:43Z</time></trkpt><trkpt lat="39.181117000138435" lon="16.172241567506685"><ele>941.0</ele><time>2026-05-02T14:19:45Z</time></trkpt><trkpt lat="39.18114138601004" lon="16.172129376012254"><ele>941.0000000000001</ele><time>2026-05-02T14:19:47Z</time></trkpt><trkpt lat="39.1811278907305" lon="16.172033861455102"><ele>941.0</ele><time>2026-05-02T14:19:49Z</time></trkpt><trkpt lat="39.18112841909997" lon="16.171936810867376"><ele>937.8571428571427</ele><time>2026-05-02T14:19:51Z</time></trkpt><trkpt lat="39.1811420503663" lon="16.171852184367697"><ele>934.7142857142857</ele><time>2026-05-02T14:19:54Z</time></trkpt><trkpt lat="39.18113087057108" lon="16.17173845497796"><ele>931.5714285714284</ele><time>2026-05-02T14:19:57Z</time></trkpt><trkpt lat="39.181120572794725" lon="16.171640558836483"><ele>928.4285714285713</ele><time>2026-05-02T14:20:01Z</time></trkpt><trkpt lat="39.18115011896357" lon="16.171564368184736"><ele>925.2857142857142</ele><time>2026-05-02T14:20:05Z</time></trkpt><trkpt lat="39.1811109174862" lon="16.1716402870504"><ele>922.1428571428571</ele><time>2026-05-02T14:20:23Z</time></trkpt><trkpt lat="39.181103484852315" lon="16.171742627330435"><ele>919.0</ele><time>2026-05-02T14:20:26Z</time></trkpt><trkpt lat="39.18113867449151" lon="16.171859112467278"><ele>918.9999999999999</ele><time>2026-05-02T14:20:28Z</time></trkpt><trkpt lat="39.18114270468701" lon="16.17196002247798"><ele>919.0</ele><time>2026-05-02T14:20:29Z</time></trkpt><trkpt lat="39.18114351320355" lon="16.17207447906849"><ele>919.0</ele><time>2026-05-02T14:20:30Z</time></trkpt><trkpt lat="39.181130330737744" lon="16.17218095004699"><ele>919.0</ele><time>2026-05-02T14:20:31Z</time></trkpt><trkpt lat="39.18111798886869" lon="16.17229377990248"><ele>918.9999999999999</ele><time>2026-05-02T14:20:32Z</time></trkpt><trkpt lat="39.18111638803563" lon="16.172403650282607"><ele>919.0</ele><time>2026-05-02T14:20:33Z</time></trkpt><trkpt lat="39.18111973816754" lon="16.172496632478648"><ele>922.6666666666666</ele><time>2026-05-02T14:20:34Z</time></trkpt><trkpt lat="39.18113496834242" lon="16.172576193501826"><ele>926.3333333333333</ele><time>2026-05-02T14:20:34.999Z</time></trkpt><trkpt lat="39.18114986327987" lon="16.172655921638142"><ele>930.0</ele><time>2026-05-02T14:20:35.999Z</time></trkpt><trkpt lat="39.1811635220132" lon="16.172770858356387"><ele>933.6666666666667</ele><time>2026-05-02T14:20:36.999Z</time></trkpt><trkpt lat="39.1811720079285" lon="16.17287422426753"><ele>937.3333333333334</ele><time>2026-05-02T14:20:37.999Z</time></trkpt><trkpt lat="39.18121100712852" lon="16.1729996547117"><ele>941.0</ele><time>2026-05-02T14:20:39.999Z</time></trkpt><trkpt lat="39.18119101945882" lon="16.17314616212288"><ele>941.0000000000001</ele><time>2026-05-02T14:20:41.999Z</time></trkpt><trkpt lat="39.18114248737433" lon="16.17322617559773"><ele>941.0</ele><time>2026-05-02T14:20:43.999Z</time></trkpt><trkpt lat="39.18106132424652" lon="16.17317958299743"><ele>941.0</ele><time>2026-05-02T14:20:46.999Z</time></trkpt><trkpt lat="39.181030548385664" lon="16.173074930331886"><ele>941.0</ele><time>2026-05-02T14:20:48.999Z</time></trkpt><trkpt lat="39.1809859625395" lon="16.1730001253211"><ele>941.0000000000001</ele><time>2026-05-02T14:20:49.999Z</time></trkpt><trkpt lat="39.18092903181429" lon="16.17295090176541"><ele>941.0</ele><time>2026-05-02T14:20:50.999Z</time></trkpt><trkpt lat="39.18083371750688" lon="16.172893162855324"><ele>941.0000000000001</ele><time>2026-05-02T14:20:52.999Z</time></trkpt><trkpt lat="39.18077523762039" lon="16.172828239955535"><ele>941.0</ele><time>2026-05-02T14:20:55.999Z</time></trkpt><trkpt lat="39.18081207806645" lon="16.172896758451767"><ele>941.0</ele><time>2026-05-02T14:21:21.999Z</time></trkpt><trkpt lat="39.18087280712949" lon="16.172951016241406"><ele>941.0</ele><time>2026-05-02T14:21:26.999Z</time></trkpt><trkpt lat="39.18095249550266" lon="16.173018532226095"><ele>941.0000000000001</ele><time>2026-05-02T14:21:28.999Z</time></trkpt><trkpt lat="39.18100514958856" lon="16.173067559197484"><ele>941.0</ele><time>2026-05-02T14:21:30.999Z</time></trkpt><trkpt lat="39.18106063988002" lon="16.173183946586576"><ele>941.0000000000001</ele><time>2026-05-02T14:21:32.999Z</time></trkpt><trkpt lat="39.18111868658625" lon="16.173258234959043"><ele>941.0</ele><time>2026-05-02T14:21:34.999Z</time></trkpt><trkpt lat="39.18120332976039" lon="16.173207962797807"><ele>941.0</ele><time>2026-05-02T14:21:37.999Z</time></trkpt><trkpt lat="39.18121799613754" lon="16.173122268190024"><ele>941.0</ele><time>2026-05-02T14:21:39.999Z</time></trkpt><trkpt lat="39.18122257879991" lon="16.17299724382526"><ele>941.0000000000001</ele><time>2026-05-02T14:21:41.999Z</time></trkpt><trkpt lat="39.18120373443408" lon="16.172902623074954"><ele>941.0</ele><time>2026-05-02T14:21:43.999Z</time></trkpt><trkpt lat="39.18116721393016" lon="16.172814377423197"><ele>941.0</ele><time>2026-05-02T14:21:46Z</time></trkpt><trkpt lat="39.18115049306208" lon="16.172731607332043"><ele>940.9999999999999</ele><time>2026-05-02T14:21:48Z</time></trkpt><trkpt lat="39.18113282956087" lon="16.172625567560274"><ele>940.9999999999999</ele><time>2026-05-02T14:21:50Z</time></trkpt><trkpt lat="39.181137676607555" lon="16.172485500647333"><ele>941.0</ele><time>2026-05-02T14:21:52Z</time></trkpt><trkpt lat="39.181153854139716" lon="16.172385510775015"><ele>941.0</ele><time>2026-05-02T14:21:54Z</time></trkpt><trkpt lat="39.181245217161305" lon="16.172250883217778"><ele>939.1999999999999</ele><time>2026-05-02T14:21:56Z</time></trkpt><trkpt lat="39.18130620292843" lon="16.172154302100303"><ele>937.3999999999999</ele><time>2026-05-02T14:21:57Z</time></trkpt><trkpt lat="39.18136030097586" lon="16.172073946554686"><ele>935.6</ele><time>2026-05-02T14:21:58Z</time></trkpt><trkpt lat="39.18145432167828" lon="16.172043913589782"><ele>933.8</ele><time>2026-05-02T14:22:00Z</time></trkpt><trkpt lat="39.18159643737665" lon="16.172096463788538"><ele>932.0</ele><time>2026-05-02T14:22:02Z</time></trkpt><trkpt lat="39.18170371080334" lon="16.172119442323375"><ele>932.0000000000001</ele><time>2026-05-02T14:22:03Z</time></trkpt><trkpt lat="39.181793471409385" lon="16.1721406548873"><ele>932.0</ele><time>2026-05-02T14:22:04Z</time></trkpt><trkpt lat="39.18187120102319" lon="16.17216541734815"><ele>932.0</ele><time>2026-05-02T14:22:05Z</time></trkpt><trkpt lat="39.181946612581186" lon="16.172200680181486"><ele>932.0</ele><time>2026-05-02T14:22:06Z</time></trkpt><trkpt lat="39.18203255130055" lon="16.172244375146438"><ele>932.0000000000001</ele><time>2026-05-02T14:22:07Z</time></trkpt><trkpt lat="39.18210273887976" lon="16.17229752462575"><ele>932.0</ele><time>2026-05-02T14:22:08Z</time></trkpt><trkpt lat="39.18216786698854" lon="16.17238153253527"><ele>937.4000000000001</ele><time>2026-05-02T14:22:09Z</time></trkpt><trkpt lat="39.182252616006664" lon="16.17253275215548"><ele>942.8000000000001</ele><time>2026-05-02T14:22:10Z</time></trkpt><trkpt lat="39.182341983542514" lon="16.172608545720855"><ele>948.2</ele><time>2026-05-02T14:22:11Z</time></trkpt><trkpt lat="39.1824356690389" lon="16.172667298125152"><ele>953.6</ele><time>2026-05-02T14:22:12Z</time></trkpt><trkpt lat="39.182507930546166" lon="16.172734086375623"><ele>959.0</ele><time>2026-05-02T14:22:13Z</time></trkpt><trkpt lat="39.18256039094111" lon="16.17280223244353"><ele>959.2</ele><time>2026-05-02T14:22:14Z</time></trkpt><trkpt lat="39.18260496849557" lon="16.172886980494667"><ele>959.4000000000001</ele><time>2026-05-02T14:22:15Z</time></trkpt><trkpt lat="39.1826586055223" lon="16.17299013934233"><ele>959.6</ele><time>2026-05-02T14:22:16Z</time></trkpt><trkpt lat="39.18270942839337" lon="16.173090480801317"><ele>959.8</ele><time>2026-05-02T14:22:17Z</time></trkpt><trkpt lat="39.18276668074915" lon="16.173201088483385"><ele>960.0</ele><time>2026-05-02T14:22:18Z</time></trkpt><trkpt lat="39.182827044031114" lon="16.173341078414705"><ele>965.25</ele><time>2026-05-02T14:22:19Z</time></trkpt><trkpt lat="39.18286590110917" lon="16.17349115699976"><ele>970.5</ele><time>2026-05-02T14:22:20Z</time></trkpt><trkpt lat="39.18288785126615" lon="16.173646790734097"><ele>975.75</ele><time>2026-05-02T14:22:21Z</time></trkpt><trkpt lat="39.18290202664979" lon="16.173785041085267"><ele>981.0</ele><time>2026-05-02T14:22:22Z</time></trkpt><trkpt lat="39.182936377842076" lon="16.173906607878543"><ele>979.5999999999999</ele><time>2026-05-02T14:22:23Z</time></trkpt><trkpt lat="39.18298022553619" lon="16.174024529896037"><ele>978.1999999999999</ele><time>2026-05-02T14:22:24Z</time></trkpt><trkpt lat="39.18303573115729" lon="16.174128680330906"><ele>976.8000000000001</ele><time>2026-05-02T14:22:25Z</time></trkpt><trkpt lat="39.183088235230834" lon="16.174203847040907"><ele>975.4000000000001</ele><time>2026-05-02T14:22:26Z</time></trkpt><trkpt lat="39.183127794885515" lon="16.174314959441794"><ele>974.0</ele><time>2026-05-02T14:22:27Z</time></trkpt><trkpt lat="39.18318678277933" lon="16.17447422866498"><ele>974.0</ele><time>2026-05-02T14:22:28Z</time></trkpt><trkpt lat="39.183246809098115" lon="16.174615437695643"><ele>974.0000000000001</ele><time>2026-05-02T14:22:29Z</time></trkpt><trkpt lat="39.183283720161484" lon="16.174720214374467"><ele>974.0000000000001</ele><time>2026-05-02T14:22:29.999Z</time></trkpt><trkpt lat="39.18328853156233" lon="16.174876154180524"><ele>974.0</ele><time>2026-05-02T14:22:31.999Z</time></trkpt><trkpt lat="39.183299124916104" lon="16.174974184925226"><ele>974.0</ele><time>2026-05-02T14:22:32.999Z</time></trkpt><trkpt lat="39.183342994323766" lon="16.175050318997727"><ele>977.75</ele><time>2026-05-02T14:22:33.999Z</time></trkpt><trkpt lat="39.183424276245596" lon="16.175110761898438"><ele>981.5</ele><time>2026-05-02T14:22:34.999Z</time></trkpt><trkpt lat="39.18354289556054" lon="16.1751576489174"><ele>985.25</ele><time>2026-05-02T14:22:35.999Z</time></trkpt><trkpt lat="39.18366640956683" lon="16.175219000343027"><ele>989.0</ele><time>2026-05-02T14:22:36.999Z</time></trkpt><trkpt lat="39.183780806445256" lon="16.17530767598348"><ele>989.0</ele><time>2026-05-02T14:22:37.999Z</time></trkpt><trkpt lat="39.183880450951165" lon="16.175408313772067"><ele>989.0</ele><time>2026-05-02T14:22:38.999Z</time></trkpt><trkpt lat="39.18394756484927" lon="16.175504564611373"><ele>989.0</ele><time>2026-05-02T14:22:39.999Z</time></trkpt><trkpt lat="39.184001858404365" lon="16.17561726021006"><ele>989.0</ele><time>2026-05-02T14:22:40.999Z</time></trkpt><trkpt lat="39.18408396706649" lon="16.175750485992978"><ele>990.6</ele><time>2026-05-02T14:22:41.999Z</time></trkpt><trkpt lat="39.18417615092765" lon="16.175868442099507"><ele>992.2</ele><time>2026-05-02T14:22:42.999Z</time></trkpt><trkpt lat="39.184252511383924" lon="16.175966409568026"><ele>993.8000000000001</ele><time>2026-05-02T14:22:43.999Z</time></trkpt><trkpt lat="39.18432450789878" lon="16.176034732238012"><ele>995.4000000000001</ele><time>2026-05-02T14:22:44.999Z</time></trkpt><trkpt lat="39.18441773486757" lon="16.176062464033837"><ele>997.0</ele><time>2026-05-02T14:22:45.999Z</time></trkpt><trkpt lat="39.18450408658548" lon="16.17609787386386"><ele>997.0</ele><time>2026-05-02T14:22:46.999Z</time></trkpt><trkpt lat="39.18456762403959" lon="16.176189583613166"><ele>997.0</ele><time>2026-05-02T14:22:48.999Z</time></trkpt><trkpt lat="39.18461289263656" lon="16.17633383162299"><ele>997.0</ele><time>2026-05-02T14:22:50.999Z</time></trkpt><trkpt lat="39.18464987968806" lon="16.176437674293044"><ele>997.0</ele><time>2026-05-02T14:22:51.999Z</time></trkpt><trkpt lat="39.18468923765235" lon="16.176572592382854"><ele>997.0</ele><time>2026-05-02T14:22:52.999Z</time></trkpt><trkpt lat="39.184714042215525" lon="16.176714657270104"><ele>998.2</ele><time>2026-05-02T14:22:53.999Z</time></trkpt><trkpt lat="39.184749734821445" lon="16.176825683778087"><ele>999.4000000000001</ele><time>2026-05-02T14:22:54.999Z</time></trkpt><trkpt lat="39.18480614231535" lon="16.176916219641786"><ele>1000.5999999999999</ele><time>2026-05-02T14:22:55.999Z</time></trkpt><trkpt lat="39.18485354987325" lon="16.17699962317414"><ele>1001.8</ele><time>2026-05-02T14:22:56.999Z</time></trkpt><trkpt lat="39.1848957161089" lon="16.177065151917535"><ele>1003.0</ele><time>2026-05-02T14:22:57.999Z</time></trkpt><trkpt lat="39.18501939715447" lon="16.177117118180313"><ele>1003.0</ele><time>2026-05-02T14:22:59.999Z</time></trkpt><trkpt lat="39.185106289493355" lon="16.177121828673755"><ele>1003.0</ele><time>2026-05-02T14:23:00.999Z</time></trkpt><trkpt lat="39.185115126079346" lon="16.177228538700874"><ele>1003.0</ele><time>2026-05-02T14:23:03.999Z</time></trkpt><trkpt lat="39.185011029428274" lon="16.177245965031428"><ele>1003.0</ele><time>2026-05-02T14:23:06.999Z</time></trkpt><trkpt lat="39.18493506492658" lon="16.177226781581297"><ele>1003.0</ele><time>2026-05-02T14:23:07.999Z</time></trkpt><trkpt lat="39.18478536505672" lon="16.17714331411821"><ele>1006.25</ele><time>2026-05-02T14:23:09.999Z</time></trkpt><trkpt lat="39.18468562028433" lon="16.1770559929224"><ele>1009.5</ele><time>2026-05-02T14:23:10.999Z</time></trkpt><trkpt lat="39.18458780206139" lon="16.1769363593504"><ele>1012.75</ele><time>2026-05-02T14:23:11.999Z</time></trkpt><trkpt lat="39.18451077634068" lon="16.17681669302055"><ele>1016.0</ele><time>2026-05-02T14:23:12.999Z</time></trkpt><trkpt lat="39.184437995301536" lon="16.176722254381453"><ele>1016.0</ele><time>2026-05-02T14:23:13.999Z</time></trkpt><trkpt lat="39.18436933729652" lon="16.176668591288035"><ele>1015.9999999999999</ele><time>2026-05-02T14:23:14.999Z</time></trkpt><trkpt lat="39.184245013592054" lon="16.176670237177294"><ele>1015.9999999999999</ele><time>2026-05-02T14:23:16.999Z</time></trkpt><trkpt lat="39.18415092472607" lon="16.176681486308105"><ele>1016.0</ele><time>2026-05-02T14:23:17.999Z</time></trkpt><trkpt lat="39.18405806619979" lon="16.17669526685332"><ele>1016.0</ele><time>2026-05-02T14:23:18.999Z</time></trkpt><trkpt lat="39.18397921937638" lon="16.176707634515143"><ele>1018.1999999999999</ele><time>2026-05-02T14:23:19.999Z</time></trkpt><trkpt lat="39.183867434303686" lon="16.176725827086482"><ele>1020.3999999999999</ele><time>2026-05-02T14:23:21.999Z</time></trkpt><trkpt lat="39.18379270160672" lon="16.176705337584906"><ele>1022.6</ele><time>2026-05-02T14:23:23.999Z</time></trkpt><trkpt lat="39.18370029141031" lon="16.176644195950033"><ele>1024.8</ele><time>2026-05-02T14:23:26.999Z</time></trkpt><trkpt lat="39.18360440769477" lon="16.17657295031837"><ele>1027.0</ele><time>2026-05-02T14:23:27.999Z</time></trkpt><trkpt lat="39.18351768967869" lon="16.17652607627226"><ele>1027.5</ele><time>2026-05-02T14:23:28.999Z</time></trkpt><trkpt lat="39.18341306856043" lon="16.176486609706718"><ele>1028.0</ele><time>2026-05-02T14:23:29.999Z</time></trkpt><trkpt lat="39.18327478907916" lon="16.176419502315944"><ele>1028.5</ele><time>2026-05-02T14:23:30.999Z</time></trkpt><trkpt lat="39.18311226308307" lon="16.176328412589463"><ele>1029.0</ele><time>2026-05-02T14:23:31.999Z</time></trkpt><trkpt lat="39.1829988953246" lon="16.17626364775405"><ele>1029.0</ele><time>2026-05-02T14:23:32.999Z</time></trkpt><trkpt lat="39.18290043745506" lon="16.176202584628783"><ele>1029.0</ele><time>2026-05-02T14:23:33.999Z</time></trkpt><trkpt lat="39.1828157538655" lon="16.176112274565906"><ele>1029.0</ele><time>2026-05-02T14:23:34.999Z</time></trkpt><trkpt lat="39.18274339356587" lon="16.175980410948014"><ele>1029.0</ele><time>2026-05-02T14:23:35.999Z</time></trkpt><trkpt lat="39.18266885911894" lon="16.17581928495955"><ele>1025.5</ele><time>2026-05-02T14:23:36.999Z</time></trkpt><trkpt lat="39.18258774773538" lon="16.175666249238223"><ele>1022.0</ele><time>2026-05-02T14:23:37.999Z</time></trkpt><trkpt lat="39.182488043300275" lon="16.175514137222915"><ele>1018.5</ele><time>2026-05-02T14:23:38.999Z</time></trkpt><trkpt lat="39.182387006527755" lon="16.17537546928559"><ele>1015.0</ele><time>2026-05-02T14:23:39.999Z</time></trkpt><trkpt lat="39.182318689434844" lon="16.175276648529117"><ele>1014.9999999999999</ele><time>2026-05-02T14:23:40.999Z</time></trkpt><trkpt lat="39.18225822166981" lon="16.17520475684756"><ele>1015.0</ele><time>2026-05-02T14:23:41.999Z</time></trkpt><trkpt lat="39.18219785810366" lon="16.17517530701108"><ele>1015.0</ele><time>2026-05-02T14:23:42.999Z</time></trkpt><trkpt lat="39.18209697868119" lon="16.17517983931475"><ele>1015.0</ele><time>2026-05-02T14:23:44.999Z</time></trkpt><trkpt lat="39.182051559323" lon="16.175258565744866"><ele>1014.9999999999999</ele><time>2026-05-02T14:24:03Z</time></trkpt><trkpt lat="39.182063910666955" lon="16.175375277892083"><ele>1015.0</ele><time>2026-05-02T14:24:07Z</time></trkpt><trkpt lat="39.182078329338076" lon="16.175484987164182"><ele>1014.9999999999999</ele><time>2026-05-02T14:24:09Z</time></trkpt><trkpt lat="39.18208997884074" lon="16.175575918007542"><ele>1015.0</ele><time>2026-05-02T14:24:10Z</time></trkpt><trkpt lat="39.182098454080716" lon="16.17567716755165"><ele>1015.0</ele><time>2026-05-02T14:24:11Z</time></trkpt><trkpt lat="39.18209911599509" lon="16.175767227920574"><ele>1015.0</ele><time>2026-05-02T14:24:12Z</time></trkpt><trkpt lat="39.182104300173826" lon="16.175859278958853"><ele>1014.9999999999999</ele><time>2026-05-02T14:24:14Z</time></trkpt><trkpt lat="39.182105355906515" lon="16.176053615995862"><ele>1015.0</ele><time>2026-05-02T14:24:16Z</time></trkpt><trkpt lat="39.18211171894002" lon="16.176203637627037"><ele>1017.0</ele><time>2026-05-02T14:24:17Z</time></trkpt><trkpt lat="39.18211559001998" lon="16.176362572213883"><ele>1019.0</ele><time>2026-05-02T14:24:18Z</time></trkpt><trkpt lat="39.18212514954713" lon="16.176529082218632"><ele>1021.0</ele><time>2026-05-02T14:24:19Z</time></trkpt><trkpt lat="39.18211217968441" lon="16.176722595108448"><ele>1023.0</ele><time>2026-05-02T14:24:20Z</time></trkpt><trkpt lat="39.1820814992801" lon="16.176900137986472"><ele>1024.6</ele><time>2026-05-02T14:24:21Z</time></trkpt><trkpt lat="39.182065101822275" lon="16.177064227649897"><ele>1026.1999999999998</ele><time>2026-05-02T14:24:22Z</time></trkpt><trkpt lat="39.18205930972312" lon="16.177208287085204"><ele>1027.8</ele><time>2026-05-02T14:24:23Z</time></trkpt><trkpt lat="39.182042804169996" lon="16.177346709626477"><ele>1029.3999999999999</ele><time>2026-05-02T14:24:24Z</time></trkpt><trkpt lat="39.18200344349405" lon="16.177459219743227"><ele>1031.0</ele><time>2026-05-02T14:24:25Z</time></trkpt><trkpt lat="39.18202166408731" lon="16.177584120618494"><ele>1031.6</ele><time>2026-05-02T14:24:27Z</time></trkpt><trkpt lat="39.18208279223467" lon="16.177646781541934"><ele>1032.1999999999998</ele><time>2026-05-02T14:24:28Z</time></trkpt><trkpt lat="39.182173174201736" lon="16.177714847289373"><ele>1032.8000000000002</ele><time>2026-05-02T14:24:29Z</time></trkpt><trkpt lat="39.18225444766364" lon="16.1777852082238"><ele>1033.4</ele><time>2026-05-02T14:24:29.999Z</time></trkpt><trkpt lat="39.18235697515176" lon="16.17781413504536"><ele>1034.0</ele><time>2026-05-02T14:24:31.999Z</time></trkpt><trkpt lat="39.18242948131915" lon="16.177813168196668"><ele>1035.25</ele><time>2026-05-02T14:24:32.999Z</time></trkpt><trkpt lat="39.182546622598025" lon="16.17778213606084"><ele>1036.5</ele><time>2026-05-02T14:24:33.999Z</time></trkpt><trkpt lat="39.182682300904965" lon="16.177732137264133"><ele>1037.75</ele><time>2026-05-02T14:24:34.999Z</time></trkpt><trkpt lat="39.182774193383004" lon="16.177690157552014"><ele>1039.0</ele><time>2026-05-02T14:24:35.999Z</time></trkpt><trkpt lat="39.18286340271838" lon="16.177720590389264"><ele>1039.0</ele><time>2026-05-02T14:24:37.999Z</time></trkpt><trkpt lat="39.18295364214372" lon="16.177755193142882"><ele>1039.0</ele><time>2026-05-02T14:24:38.999Z</time></trkpt><trkpt lat="39.1830605528112" lon="16.177758165128342"><ele>1039.0</ele><time>2026-05-02T14:24:39.999Z</time></trkpt><trkpt lat="39.18317193993713" lon="16.17773237924784"><ele>1039.0</ele><time>2026-05-02T14:24:40.999Z</time></trkpt><trkpt lat="39.183272615235246" lon="16.177704732831756"><ele>1039.0</ele><time>2026-05-02T14:24:41.999Z</time></trkpt><trkpt lat="39.18336303055434" lon="16.177717318637242"><ele>1039.5</ele><time>2026-05-02T14:24:42.999Z</time></trkpt><trkpt lat="39.1834696390505" lon="16.17776077493113"><ele>1040.0</ele><time>2026-05-02T14:24:43.999Z</time></trkpt><trkpt lat="39.18360761407384" lon="16.177834379660307"><ele>1040.5</ele><time>2026-05-02T14:24:44.999Z</time></trkpt><trkpt lat="39.1837483644365" lon="16.177897443833114"><ele>1041.0</ele><time>2026-05-02T14:24:45.999Z</time></trkpt><trkpt lat="39.18385343132931" lon="16.177907840056765"><ele>1041.0</ele><time>2026-05-02T14:24:46.999Z</time></trkpt><trkpt lat="39.18392502742976" lon="16.177917524283544"><ele>1041.0</ele><time>2026-05-02T14:24:47.999Z</time></trkpt><trkpt lat="39.184006294616815" lon="16.177891759354722"><ele>1041.0</ele><time>2026-05-02T14:24:48.999Z</time></trkpt><trkpt lat="39.1840807414217" lon="16.1778567526044"><ele>1041.0</ele><time>2026-05-02T14:24:49.999Z</time></trkpt><trkpt lat="39.18414098316416" lon="16.1779077156956"><ele>1041.0</ele><time>2026-05-02T14:24:51.999Z</time></trkpt><trkpt lat="39.18410460668422" lon="16.177990964769332"><ele>1041.0</ele><time>2026-05-02T14:24:53.999Z</time></trkpt><trkpt lat="39.18392939638046" lon="16.178065757628662"><ele>1041.0</ele><time>2026-05-02T14:24:56.999Z</time></trkpt><trkpt lat="39.183854620805064" lon="16.17811876572442"><ele>1041.0</ele><time>2026-05-02T14:24:57.999Z</time></trkpt><trkpt lat="39.18376434142739" lon="16.178173469243994"><ele>1041.0</ele><time>2026-05-02T14:24:58.999Z</time></trkpt><trkpt lat="39.183702244406575" lon="16.17822447598691"><ele>1041.0</ele><time>2026-05-02T14:24:59.999Z</time></trkpt><trkpt lat="39.183651491048174" lon="16.17827807044107"><ele>1041.0</ele><time>2026-05-02T14:25:01.999Z</time></trkpt><trkpt lat="39.18357628632535" lon="16.178422696942548"><ele>1043.0</ele><time>2026-05-02T14:25:03.999Z</time></trkpt><trkpt lat="39.183511774259415" lon="16.178536282058275"><ele>1045.0</ele><time>2026-05-02T14:25:04.999Z</time></trkpt><trkpt lat="39.18343288746588" lon="16.178673293266463"><ele>1047.0</ele><time>2026-05-02T14:25:05.999Z</time></trkpt><trkpt lat="39.18334173402984" lon="16.178820293141182"><ele>1049.0</ele><time>2026-05-02T14:25:06.999Z</time></trkpt><trkpt lat="39.183256590695294" lon="16.1789420699785"><ele>1049.8</ele><time>2026-05-02T14:25:07.999Z</time></trkpt><trkpt lat="39.18318419345822" lon="16.179054744973016"><ele>1050.6000000000001</ele><time>2026-05-02T14:25:08.999Z</time></trkpt><trkpt lat="39.18313387008952" lon="16.17916807445743"><ele>1051.4</ele><time>2026-05-02T14:25:09.999Z</time></trkpt><trkpt lat="39.18310793799" lon="16.179286465762964"><ele>1052.2</ele><time>2026-05-02T14:25:10.999Z</time></trkpt><trkpt lat="39.1830922765171" lon="16.179420181264042"><ele>1053.0</ele><time>2026-05-02T14:25:11.999Z</time></trkpt><trkpt lat="39.183066756644536" lon="16.17956146794414"><ele>1053.0</ele><time>2026-05-02T14:25:12.999Z</time></trkpt><trkpt lat="39.183024606942176" lon="16.17968317217624"><ele>1053.0</ele><time>2026-05-02T14:25:13.999Z</time></trkpt><trkpt lat="39.18295447124242" lon="16.179788354073082"><ele>1053.0</ele><time>2026-05-02T14:25:14.999Z</time></trkpt><trkpt lat="39.182866940270756" lon="16.179893972849992"><ele>1053.0</ele><time>2026-05-02T14:25:15.999Z</time></trkpt><trkpt lat="39.18277242266988" lon="16.179997443094013"><ele>1054.2</ele><time>2026-05-02T14:25:16.999Z</time></trkpt><trkpt lat="39.182667011299095" lon="16.1800110158277"><ele>1055.4</ele><time>2026-05-02T14:25:17.999Z</time></trkpt><trkpt lat="39.18258542988395" lon="16.179991845438643"><ele>1056.6000000000001</ele><time>2026-05-02T14:25:18.999Z</time></trkpt><trkpt lat="39.1824800472261" lon="16.179990551634138"><ele>1057.8</ele><time>2026-05-02T14:25:19.999Z</time></trkpt><trkpt lat="39.18236006807432" lon="16.180017965408368"><ele>1059.0</ele><time>2026-05-02T14:25:20.999Z</time></trkpt><trkpt lat="39.18224636917466" lon="16.18009013530671"><ele>1059.0</ele><time>2026-05-02T14:25:21.999Z</time></trkpt><trkpt lat="39.182143164949466" lon="16.18018675199095"><ele>1059.0</ele><time>2026-05-02T14:25:22.999Z</time></trkpt><trkpt lat="39.18206130332718" lon="16.180242109007782"><ele>1059.0</ele><time>2026-05-02T14:25:23.999Z</time></trkpt><trkpt lat="39.18200146240306" lon="16.18030108460817"><ele>1059.0</ele><time>2026-05-02T14:25:24.999Z</time></trkpt><trkpt lat="39.18196581762689" lon="16.180395667686827"><ele>1059.0</ele><time>2026-05-02T14:25:25.999Z</time></trkpt><trkpt lat="39.18193885481794" lon="16.180487409685227"><ele>1059.0</ele><time>2026-05-02T14:25:26.999Z</time></trkpt><trkpt lat="39.18190641259856" lon="16.18062065153954"><ele>1059.0</ele><time>2026-05-02T14:25:28.999Z</time></trkpt><trkpt lat="39.18189086290074" lon="16.180712198183468"><ele>1059.0</ele><time>2026-05-02T14:25:29.999Z</time></trkpt><trkpt lat="39.18189008843179" lon="16.180821364148297"><ele>1059.0</ele><time>2026-05-02T14:25:30.999Z</time></trkpt><trkpt lat="39.1819050649746" lon="16.18094288600453"><ele>1059.0</ele><time>2026-05-02T14:25:31.999Z</time></trkpt><trkpt lat="39.1819180033268" lon="16.18104542536022"><ele>1059.0</ele><time>2026-05-02T14:25:32.999Z</time></trkpt><trkpt lat="39.18196564446837" lon="16.181180385574443"><ele>1060.8</ele><time>2026-05-02T14:25:34.999Z</time></trkpt><trkpt lat="39.182042733537116" lon="16.18124730756968"><ele>1062.6000000000001</ele><time>2026-05-02T14:25:36.999Z</time></trkpt><trkpt lat="39.18213313330361" lon="16.181318254721116"><ele>1064.4</ele><time>2026-05-02T14:25:39.999Z</time></trkpt><trkpt lat="39.18221274414622" lon="16.181396342474883"><ele>1066.2</ele><time>2026-05-02T14:25:40.999Z</time></trkpt><trkpt lat="39.18230737434831" lon="16.181484098927626"><ele>1068.0</ele><time>2026-05-02T14:25:41.999Z</time></trkpt><trkpt lat="39.18240326882378" lon="16.18156482809223"><ele>1072.75</ele><time>2026-05-02T14:25:42.999Z</time></trkpt><trkpt lat="39.18250450291386" lon="16.18167346375792"><ele>1077.5</ele><time>2026-05-02T14:25:43.999Z</time></trkpt><trkpt lat="39.18259806397934" lon="16.18181694839918"><ele>1082.25</ele><time>2026-05-02T14:25:44.999Z</time></trkpt><trkpt lat="39.182688585629535" lon="16.181971899994608"><ele>1087.0</ele><time>2026-05-02T14:25:45.999Z</time></trkpt><trkpt lat="39.182772283612756" lon="16.18213097703429"><ele>1087.0</ele><time>2026-05-02T14:25:46.999Z</time></trkpt><trkpt lat="39.18286431860361" lon="16.18228519930789"><ele>1087.0</ele><time>2026-05-02T14:25:47.999Z</time></trkpt><trkpt lat="39.18296902403086" lon="16.182431663138313"><ele>1087.0</ele><time>2026-05-02T14:25:48.999Z</time></trkpt><trkpt lat="39.183047188511594" lon="16.182544419764568"><ele>1087.0</ele><time>2026-05-02T14:25:49.999Z</time></trkpt><trkpt lat="39.18306465573063" lon="16.182662637759247"><ele>1088.5</ele><time>2026-05-02T14:25:51.999Z</time></trkpt><trkpt lat="39.18305302897513" lon="16.182793279203942"><ele>1090.0</ele><time>2026-05-02T14:25:52.999Z</time></trkpt><trkpt lat="39.18306214388925" lon="16.18292167648276"><ele>1091.5</ele><time>2026-05-02T14:25:53.999Z</time></trkpt><trkpt lat="39.18311735990589" lon="16.183033583667765"><ele>1093.0</ele><time>2026-05-02T14:25:54.999Z</time></trkpt><trkpt lat="39.183210578177636" lon="16.183182428954254"><ele>1093.3333333333333</ele><time>2026-05-02T14:25:55.999Z</time></trkpt><trkpt lat="39.18332024428594" lon="16.183361800562714"><ele>1093.6666666666667</ele><time>2026-05-02T14:25:57Z</time></trkpt><trkpt lat="39.18341891184111" lon="16.183537546518718"><ele>1094.0</ele><time>2026-05-02T14:25:58Z</time></trkpt><trkpt lat="39.183484124830045" lon="16.183648540405546"><ele>1094.0</ele><time>2026-05-02T14:25:59Z</time></trkpt><trkpt lat="39.18351456209884" lon="16.18374306981409"><ele>1094.0</ele><time>2026-05-02T14:26:00Z</time></trkpt><trkpt lat="39.18354914921339" lon="16.18384121321569"><ele>1094.0</ele><time>2026-05-02T14:26:01Z</time></trkpt><trkpt lat="39.183589388854195" lon="16.18399317879342"><ele>1094.0</ele><time>2026-05-02T14:26:02Z</time></trkpt><trkpt lat="39.18364421998019" lon="16.184149620022705"><ele>1094.0</ele><time>2026-05-02T14:26:03Z</time></trkpt><trkpt lat="39.18368402961236" lon="16.184270024937447"><ele>1094.2</ele><time>2026-05-02T14:26:04Z</time></trkpt><trkpt lat="39.18373574479987" lon="16.184368553470424"><ele>1094.4</ele><time>2026-05-02T14:26:05Z</time></trkpt><trkpt lat="39.18379771162921" lon="16.184480728565532"><ele>1094.6</ele><time>2026-05-02T14:26:06Z</time></trkpt><trkpt lat="39.18386290925648" lon="16.184610511770178"><ele>1094.8</ele><time>2026-05-02T14:26:07Z</time></trkpt><trkpt lat="39.183935024216524" lon="16.184744936737328"><ele>1095.0</ele><time>2026-05-02T14:26:08Z</time></trkpt><trkpt lat="39.1840339869737" lon="16.184883295815858"><ele>1095.0</ele><time>2026-05-02T14:26:09Z</time></trkpt><trkpt lat="39.18413085243131" lon="16.185014270113847"><ele>1095.0</ele><time>2026-05-02T14:26:10Z</time></trkpt><trkpt lat="39.184204648641376" lon="16.185133068586577"><ele>1095.0</ele><time>2026-05-02T14:26:11Z</time></trkpt><trkpt lat="39.18425604702886" lon="16.185247197691208"><ele>1095.0</ele><time>2026-05-02T14:26:12Z</time></trkpt><trkpt lat="39.18431200535428" lon="16.185349316754582"><ele>1095.0</ele><time>2026-05-02T14:26:13Z</time></trkpt><trkpt lat="39.184384469349155" lon="16.18543050583619"><ele>1095.0</ele><time>2026-05-02T14:26:14Z</time></trkpt><trkpt lat="39.184463047912494" lon="16.185509143665996"><ele>1095.0</ele><time>2026-05-02T14:26:15Z</time></trkpt><trkpt lat="39.18451836946062" lon="16.185568433610662"><ele>1095.0</ele><time>2026-05-02T14:26:16Z</time></trkpt><trkpt lat="39.184568176659276" lon="16.185639878304958"><ele>1095.0</ele><time>2026-05-02T14:26:17Z</time></trkpt><trkpt lat="39.184635465003154" lon="16.18573213830715"><ele>1095.0</ele><time>2026-05-02T14:26:18Z</time></trkpt><trkpt lat="39.18470753521498" lon="16.185833426843853"><ele>1095.1666666666667</ele><time>2026-05-02T14:26:19Z</time></trkpt><trkpt lat="39.18477085671266" lon="16.185916490735046"><ele>1095.3333333333333</ele><time>2026-05-02T14:26:20Z</time></trkpt><trkpt lat="39.18483857241707" lon="16.185985209429347"><ele>1095.5</ele><time>2026-05-02T14:26:21Z</time></trkpt><trkpt lat="39.184907960002285" lon="16.186041806587706"><ele>1095.6666666666665</ele><time>2026-05-02T14:26:22Z</time></trkpt><trkpt lat="39.184981612790274" lon="16.186082056510195"><ele>1095.8333333333333</ele><time>2026-05-02T14:26:23Z</time></trkpt><trkpt lat="39.185061496624606" lon="16.186110240182146"><ele>1096.0</ele><time>2026-05-02T14:26:24Z</time></trkpt><trkpt lat="39.185137239637605" lon="16.18611242891199"><ele>1095.6</ele><time>2026-05-02T14:26:25Z</time></trkpt><trkpt lat="39.185223516883134" lon="16.186118957919767"><ele>1095.1999999999998</ele><time>2026-05-02T14:26:26Z</time></trkpt><trkpt lat="39.18530284909425" lon="16.186142639268756"><ele>1094.8000000000002</ele><time>2026-05-02T14:26:27Z</time></trkpt><trkpt lat="39.185386132226334" lon="16.186200029645114"><ele>1094.4</ele><time>2026-05-02T14:26:28Z</time></trkpt><trkpt lat="39.185463015599375" lon="16.186285390043537"><ele>1094.0</ele><time>2026-05-02T14:26:28.999Z</time></trkpt><trkpt lat="39.1855404303839" lon="16.186371011241665"><ele>1094.0</ele><time>2026-05-02T14:26:29.999Z</time></trkpt><trkpt lat="39.18563006961198" lon="16.186419979515847"><ele>1094.0</ele><time>2026-05-02T14:26:30.999Z</time></trkpt><trkpt lat="39.185718228207264" lon="16.1864316234083"><ele>1094.0</ele><time>2026-05-02T14:26:31.999Z</time></trkpt><trkpt lat="39.18582179205983" lon="16.186453851885126"><ele>1094.0</ele><time>2026-05-02T14:26:32.999Z</time></trkpt><trkpt lat="39.18594172588263" lon="16.18649288478378"><ele>1094.0</ele><time>2026-05-02T14:26:33.999Z</time></trkpt><trkpt lat="39.18606220007395" lon="16.18655496670498"><ele>1094.4</ele><time>2026-05-02T14:26:34.999Z</time></trkpt><trkpt lat="39.18618243919946" lon="16.18661587094299"><ele>1094.8000000000002</ele><time>2026-05-02T14:26:35.999Z</time></trkpt><trkpt lat="39.18630279362062" lon="16.18666042097955"><ele>1095.1999999999998</ele><time>2026-05-02T14:26:36.999Z</time></trkpt><trkpt lat="39.186394135869314" lon="16.18667576520853"><ele>1095.6</ele><time>2026-05-02T14:26:37.999Z</time></trkpt><trkpt lat="39.186486464355774" lon="16.18666641824348"><ele>1096.0</ele><time>2026-05-02T14:26:38.999Z</time></trkpt><trkpt lat="39.1866171871142" lon="16.186645953657443"><ele>1097.0</ele><time>2026-05-02T14:26:39.999Z</time></trkpt><trkpt lat="39.18675162766394" lon="16.186640936765283"><ele>1098.0</ele><time>2026-05-02T14:26:40.999Z</time></trkpt><trkpt lat="39.186885664702416" lon="16.186643640456555"><ele>1099.0</ele><time>2026-05-02T14:26:41.999Z</time></trkpt><trkpt lat="39.18700478085139" lon="16.18663704851764"><ele>1100.0</ele><time>2026-05-02T14:26:42.999Z</time></trkpt><trkpt lat="39.18711361009454" lon="16.186615593547135"><ele>1100.0</ele><time>2026-05-02T14:26:43.999Z</time></trkpt><trkpt lat="39.187232528007634" lon="16.186617934947055"><ele>1100.0</ele><time>2026-05-02T14:26:44.999Z</time></trkpt><trkpt lat="39.187365371716766" lon="16.186651369062222"><ele>1100.0</ele><time>2026-05-02T14:26:45.999Z</time></trkpt><trkpt lat="39.187512972141576" lon="16.18669248902079"><ele>1100.0</ele><time>2026-05-02T14:26:46.999Z</time></trkpt><trkpt lat="39.18764984256105" lon="16.186714113123056"><ele>1100.4</ele><time>2026-05-02T14:26:47.999Z</time></trkpt><trkpt lat="39.18777062411408" lon="16.186708750958704"><ele>1100.8</ele><time>2026-05-02T14:26:48.999Z</time></trkpt><trkpt lat="39.18789715182834" lon="16.186703614450998"><ele>1101.2</ele><time>2026-05-02T14:26:49.999Z</time></trkpt><trkpt lat="39.18800082626592" lon="16.186716085939388"><ele>1101.6</ele><time>2026-05-02T14:26:50.999Z</time></trkpt><trkpt lat="39.18806223109012" lon="16.186737524976348"><ele>1102.0</ele><time>2026-05-02T14:26:51.999Z</time></trkpt><trkpt lat="39.188150083379696" lon="16.186772641449217"><ele>1102.0</ele><time>2026-05-02T14:26:52.999Z</time></trkpt><trkpt lat="39.188251693385844" lon="16.18684979690338"><ele>1102.0</ele><time>2026-05-02T14:26:53.999Z</time></trkpt><trkpt lat="39.18834321590085" lon="16.186916681586016"><ele>1102.0</ele><time>2026-05-02T14:26:54.999Z</time></trkpt><trkpt lat="39.188432555523974" lon="16.186970677035074"><ele>1102.0</ele><time>2026-05-02T14:26:55.999Z</time></trkpt><trkpt lat="39.18850948900286" lon="16.187015804226956"><ele>1102.0</ele><time>2026-05-02T14:26:56.999Z</time></trkpt><trkpt lat="39.18856813187017" lon="16.187052689953678"><ele>1102.0</ele><time>2026-05-02T14:26:57.999Z</time></trkpt><trkpt lat="39.188620100307446" lon="16.187100901888044"><ele>1102.0</ele><time>2026-05-02T14:26:58.999Z</time></trkpt><trkpt lat="39.18869964777997" lon="16.187201529198482"><ele>1102.0</ele><time>2026-05-02T14:27:00.999Z</time></trkpt><trkpt lat="39.188749234945995" lon="16.187275639801523"><ele>1102.0</ele><time>2026-05-02T14:27:01.999Z</time></trkpt><trkpt lat="39.18881581772818" lon="16.18739448483156"><ele>1102.0</ele><time>2026-05-02T14:27:02.999Z</time></trkpt><trkpt lat="39.188860092871245" lon="16.187537311563485"><ele>1102.25</ele><time>2026-05-02T14:27:03.999Z</time></trkpt><trkpt lat="39.18888408903963" lon="16.187674112055817"><ele>1102.5</ele><time>2026-05-02T14:27:04.999Z</time></trkpt><trkpt lat="39.1889229819207" lon="16.187820882301157"><ele>1102.75</ele><time>2026-05-02T14:27:05.999Z</time></trkpt><trkpt lat="39.188970054318304" lon="16.187966586037405"><ele>1103.0</ele><time>2026-05-02T14:27:06.999Z</time></trkpt><trkpt lat="39.18898749122818" lon="16.188098041293273"><ele>1102.0</ele><time>2026-05-02T14:27:07.999Z</time></trkpt><trkpt lat="39.188996125557686" lon="16.188249329318733"><ele>1101.0</ele><time>2026-05-02T14:27:08.999Z</time></trkpt><trkpt lat="39.18897766433067" lon="16.188427377546276"><ele>1100.0</ele><time>2026-05-02T14:27:09.999Z</time></trkpt><trkpt lat="39.18895559341416" lon="16.188587264748833"><ele>1099.0</ele><time>2026-05-02T14:27:10.999Z</time></trkpt><trkpt lat="39.188934105813765" lon="16.18871847211554"><ele>1099.0</ele><time>2026-05-02T14:27:11.999Z</time></trkpt><trkpt lat="39.18890906000381" lon="16.18882733302891"><ele>1099.0</ele><time>2026-05-02T14:27:12.999Z</time></trkpt><trkpt lat="39.188890848505075" lon="16.188913241193394"><ele>1099.0</ele><time>2026-05-02T14:27:13.999Z</time></trkpt><trkpt lat="39.188860090212785" lon="16.18905585097457"><ele>1099.0</ele><time>2026-05-02T14:27:15.999Z</time></trkpt><trkpt lat="39.18881224129739" lon="16.189240728980767"><ele>1099.0</ele><time>2026-05-02T14:27:17.999Z</time></trkpt><trkpt lat="39.188802049801936" lon="16.189387444465115"><ele>1097.8333333333333</ele><time>2026-05-02T14:27:18.999Z</time></trkpt><trkpt lat="39.188799298623515" lon="16.189515731860947"><ele>1096.6666666666665</ele><time>2026-05-02T14:27:19.999Z</time></trkpt><trkpt lat="39.18879339221033" lon="16.189628453630373"><ele>1095.5</ele><time>2026-05-02T14:27:20.999Z</time></trkpt><trkpt lat="39.188777547619914" lon="16.189726370202052"><ele>1094.3333333333333</ele><time>2026-05-02T14:27:21.999Z</time></trkpt><trkpt lat="39.1887675338852" lon="16.189823926621923"><ele>1093.1666666666667</ele><time>2026-05-02T14:27:22.999Z</time></trkpt><trkpt lat="39.18876845462683" lon="16.18990885947839"><ele>1092.0</ele><time>2026-05-02T14:27:23.999Z</time></trkpt><trkpt lat="39.18875947282658" lon="16.190045019342964"><ele>1092.0</ele><time>2026-05-02T14:27:25.999Z</time></trkpt><trkpt lat="39.188823437297145" lon="16.190070948448724"><ele>1092.0</ele><time>2026-05-02T14:27:28.999Z</time></trkpt><trkpt lat="39.188882201693325" lon="16.18998678284254"><ele>1092.0</ele><time>2026-05-02T14:27:30.999Z</time></trkpt><trkpt lat="39.18888799062481" lon="16.189815513946435"><ele>1092.0</ele><time>2026-05-02T14:27:32.999Z</time></trkpt><trkpt lat="39.188872998386444" lon="16.189723332448803"><ele>1092.0</ele><time>2026-05-02T14:27:33.999Z</time></trkpt><trkpt lat="39.18885022891471" lon="16.18960843733946"><ele>1092.0</ele><time>2026-05-02T14:27:35.999Z</time></trkpt><trkpt lat="39.188811245086974" lon="16.18946743043917"><ele>1092.0</ele><time>2026-05-02T14:27:37.999Z</time></trkpt><trkpt lat="39.18880477725077" lon="16.18935554074289"><ele>1092.0</ele><time>2026-05-02T14:27:38.999Z</time></trkpt><trkpt lat="39.18881837696033" lon="16.18923370829331"><ele>1092.0</ele><time>2026-05-02T14:27:39.999Z</time></trkpt><trkpt lat="39.18883770031582" lon="16.189115703802564"><ele>1092.0</ele><time>2026-05-02T14:27:40.999Z</time></trkpt><trkpt lat="39.1888622213145" lon="16.189022815221556"><ele>1093.4</ele><time>2026-05-02T14:27:41.999Z</time></trkpt><trkpt lat="39.18889486629569" lon="16.18895074237121"><ele>1094.8000000000002</ele><time>2026-05-02T14:27:42.999Z</time></trkpt><trkpt lat="39.188953011607126" lon="16.188799517211695"><ele>1096.2</ele><time>2026-05-02T14:27:44.999Z</time></trkpt><trkpt lat="39.18899950353406" lon="16.188696658425265"><ele>1097.6000000000001</ele><time>2026-05-02T14:27:45.999Z</time></trkpt><trkpt lat="39.18904008043799" lon="16.188574253490515"><ele>1099.0</ele><time>2026-05-02T14:27:46.999Z</time></trkpt><trkpt lat="39.18908068152483" lon="16.188448653692046"><ele>1099.0</ele><time>2026-05-02T14:27:47.999Z</time></trkpt><trkpt lat="39.1891176386094" lon="16.188352357650814"><ele>1099.0</ele><time>2026-05-02T14:27:48.999Z</time></trkpt><trkpt lat="39.1891502659134" lon="16.188268527392243"><ele>1099.0</ele><time>2026-05-02T14:27:49.999Z</time></trkpt><trkpt lat="39.18918588962386" lon="16.188197086115274"><ele>1099.0</ele><time>2026-05-02T14:27:50.999Z</time></trkpt><trkpt lat="39.189226724241045" lon="16.188112928275597"><ele>1099.0</ele><time>2026-05-02T14:27:51.999Z</time></trkpt><trkpt lat="39.18928373398118" lon="16.188019915287065"><ele>1099.0</ele><time>2026-05-02T14:27:52.999Z</time></trkpt><trkpt lat="39.18934174234941" lon="16.18791928565188"><ele>1099.8</ele><time>2026-05-02T14:27:53.999Z</time></trkpt><trkpt lat="39.18941559509782" lon="16.187824621252084"><ele>1100.6000000000001</ele><time>2026-05-02T14:27:54.999Z</time></trkpt><trkpt lat="39.189484644942105" lon="16.1877252861758"><ele>1101.4</ele><time>2026-05-02T14:27:55.999Z</time></trkpt><trkpt lat="39.189561981748085" lon="16.18761547556513"><ele>1102.2</ele><time>2026-05-02T14:27:56.999Z</time></trkpt><trkpt lat="39.189631030655605" lon="16.187520559954166"><ele>1103.0</ele><time>2026-05-02T14:27:57.999Z</time></trkpt><trkpt lat="39.189690223887254" lon="16.187428974658825"><ele>1103.0</ele><time>2026-05-02T14:27:58.999Z</time></trkpt><trkpt lat="39.189758865781826" lon="16.187357116302003"><ele>1103.0</ele><time>2026-05-02T14:27:59.999Z</time></trkpt><trkpt lat="39.1898209910156" lon="16.18728824530346"><ele>1103.0</ele><time>2026-05-02T14:28:00.999Z</time></trkpt><trkpt lat="39.18988174996949" lon="16.187229510180046"><ele>1103.0</ele><time>2026-05-02T14:28:01.999Z</time></trkpt><trkpt lat="39.189952706250324" lon="16.18717914577482"><ele>1103.0</ele><time>2026-05-02T14:28:03Z</time></trkpt><trkpt lat="39.19004090502886" lon="16.187135925427526"><ele>1103.0</ele><time>2026-05-02T14:28:04Z</time></trkpt><trkpt lat="39.190134348868675" lon="16.187092556695763"><ele>1102.6666666666667</ele><time>2026-05-02T14:28:05Z</time></trkpt><trkpt lat="39.190241728499736" lon="16.187057915034032"><ele>1102.3333333333335</ele><time>2026-05-02T14:28:06Z</time></trkpt><trkpt lat="39.1903438482708" lon="16.187019525950593"><ele>1102.0</ele><time>2026-05-02T14:28:07Z</time></trkpt><trkpt lat="39.190428011286734" lon="16.186990383953475"><ele>1101.6666666666667</ele><time>2026-05-02T14:28:08Z</time></trkpt><trkpt lat="39.19049800257743" lon="16.186966738323548"><ele>1101.3333333333333</ele><time>2026-05-02T14:28:09Z</time></trkpt><trkpt lat="39.190559092928815" lon="16.186944959354605"><ele>1101.0</ele><time>2026-05-02T14:28:10Z</time></trkpt><trkpt lat="39.19062437792629" lon="16.18692305506342"><ele>1101.3999999999999</ele><time>2026-05-02T14:28:11Z</time></trkpt><trkpt lat="39.19074608319807" lon="16.186893940859065"><ele>1101.8</ele><time>2026-05-02T14:28:13Z</time></trkpt><trkpt lat="39.19085694209168" lon="16.18687093455103"><ele>1102.1999999999998</ele><time>2026-05-02T14:28:15Z</time></trkpt><trkpt lat="39.19096034256968" lon="16.18685158903186"><ele>1102.6</ele><time>2026-05-02T14:28:17Z</time></trkpt><trkpt lat="39.19102432572521" lon="16.186832847992154"><ele>1103.0</ele><time>2026-05-02T14:28:18Z</time></trkpt><trkpt lat="39.191096795577515" lon="16.1868182818143"><ele>1103.0</ele><time>2026-05-02T14:28:19Z</time></trkpt><trkpt lat="39.19117433007208" lon="16.18679932061809"><ele>1103.0</ele><time>2026-05-02T14:28:20Z</time></trkpt><trkpt lat="39.19126060921357" lon="16.18677981211479"><ele>1103.0</ele><time>2026-05-02T14:28:21Z</time></trkpt><trkpt lat="39.191357745585265" lon="16.186738710377163"><ele>1103.0</ele><time>2026-05-02T14:28:22Z</time></trkpt><trkpt lat="39.19144415925807" lon="16.186704583711364"><ele>1103.0</ele><time>2026-05-02T14:28:23Z</time></trkpt><trkpt lat="39.19151218889358" lon="16.186672547641088"><ele>1103.0</ele><time>2026-05-02T14:28:24Z</time></trkpt><trkpt lat="39.191582957101694" lon="16.18664371549435"><ele>1103.0</ele><time>2026-05-02T14:28:25Z</time></trkpt><trkpt lat="39.191667306995086" lon="16.18660655757519"><ele>1103.0</ele><time>2026-05-02T14:28:25.999Z</time></trkpt><trkpt lat="39.19175763817931" lon="16.18654045777602"><ele>1103.0</ele><time>2026-05-02T14:28:26.999Z</time></trkpt><trkpt lat="39.19184665456549" lon="16.186450977825217"><ele>1103.0</ele><time>2026-05-02T14:28:27.999Z</time></trkpt><trkpt lat="39.19192821809592" lon="16.186357799377685"><ele>1103.0</ele><time>2026-05-02T14:28:28.999Z</time></trkpt><trkpt lat="39.19199097858261" lon="16.18626702509505"><ele>1102.2</ele><time>2026-05-02T14:28:29.999Z</time></trkpt><trkpt lat="39.19205826749708" lon="16.186205667264247"><ele>1101.4</ele><time>2026-05-02T14:28:30.999Z</time></trkpt><trkpt lat="39.19213130851052" lon="16.18612251161939"><ele>1100.6000000000001</ele><time>2026-05-02T14:28:31.999Z</time></trkpt><trkpt lat="39.19218981314605" lon="16.186006853220267"><ele>1099.8</ele><time>2026-05-02T14:28:32.999Z</time></trkpt><trkpt lat="39.19225182324741" lon="16.185871334946846"><ele>1099.0</ele><time>2026-05-02T14:28:33.999Z</time></trkpt><trkpt lat="39.192315640893035" lon="16.185760527744854"><ele>1099.2</ele><time>2026-05-02T14:28:34.999Z</time></trkpt><trkpt lat="39.192377934934576" lon="16.185668278617793"><ele>1099.4</ele><time>2026-05-02T14:28:35.999Z</time></trkpt><trkpt lat="39.192442806165985" lon="16.185599526960125"><ele>1099.6</ele><time>2026-05-02T14:28:36.999Z</time></trkpt><trkpt lat="39.192530107927695" lon="16.18552880051704"><ele>1099.8</ele><time>2026-05-02T14:28:37.999Z</time></trkpt><trkpt lat="39.192634705954774" lon="16.185476096892444"><ele>1100.0</ele><time>2026-05-02T14:28:38.999Z</time></trkpt><trkpt lat="39.19273057819758" lon="16.18542115616714"><ele>1100.0</ele><time>2026-05-02T14:28:39.999Z</time></trkpt><trkpt lat="39.192808183763624" lon="16.18537957152933"><ele>1100.0</ele><time>2026-05-02T14:28:40.999Z</time></trkpt><trkpt lat="39.19289658750632" lon="16.185360824593545"><ele>1100.0</ele><time>2026-05-02T14:28:41.999Z</time></trkpt><trkpt lat="39.19300306070535" lon="16.18533771467885"><ele>1100.0</ele><time>2026-05-02T14:28:42.999Z</time></trkpt><trkpt lat="39.19312700847741" lon="16.185309653196995"><ele>1100.0</ele><time>2026-05-02T14:28:43.999Z</time></trkpt><trkpt lat="39.19325582744292" lon="16.185295292858612"><ele>1100.2</ele><time>2026-05-02T14:28:44.999Z</time></trkpt><trkpt lat="39.19338122044473" lon="16.185297292590125"><ele>1100.4</ele><time>2026-05-02T14:28:45.999Z</time></trkpt><trkpt lat="39.19349025958837" lon="16.185294348703813"><ele>1100.6</ele><time>2026-05-02T14:28:46.999Z</time></trkpt><trkpt lat="39.1935868736855" lon="16.18528952293406"><ele>1100.8</ele><time>2026-05-02T14:28:47.999Z</time></trkpt><trkpt lat="39.193679694323585" lon="16.185275512685322"><ele>1101.0</ele><time>2026-05-02T14:28:48.999Z</time></trkpt><trkpt lat="39.19376440215639" lon="16.185240935547053"><ele>1101.0</ele><time>2026-05-02T14:28:49.999Z</time></trkpt><trkpt lat="39.19384589483158" lon="16.185197517870787"><ele>1101.0</ele><time>2026-05-02T14:28:50.999Z</time></trkpt><trkpt lat="39.19391594358565" lon="16.185131078355433"><ele>1101.0</ele><time>2026-05-02T14:28:51.999Z</time></trkpt><trkpt lat="39.19399690841773" lon="16.185047953690365"><ele>1101.0</ele><time>2026-05-02T14:28:52.999Z</time></trkpt><trkpt lat="39.194086645238414" lon="16.184946130016915"><ele>1101.0</ele><time>2026-05-02T14:28:53.999Z</time></trkpt><trkpt lat="39.19416275660223" lon="16.184811690341444"><ele>1100.5</ele><time>2026-05-02T14:28:54.999Z</time></trkpt><trkpt lat="39.19424584536628" lon="16.184667498078444"><ele>1100.0</ele><time>2026-05-02T14:28:55.999Z</time></trkpt><trkpt lat="39.19432797972514" lon="16.184533936794757"><ele>1099.5</ele><time>2026-05-02T14:28:56.999Z</time></trkpt><trkpt lat="39.19440664484435" lon="16.18442329239308"><ele>1099.0</ele><time>2026-05-02T14:28:57.999Z</time></trkpt><trkpt lat="39.19447554320219" lon="16.184343037585812"><ele>1099.0</ele><time>2026-05-02T14:28:58.999Z</time></trkpt><trkpt lat="39.19454576839313" lon="16.1842635243315"><ele>1099.0</ele><time>2026-05-02T14:28:59.999Z</time></trkpt><trkpt lat="39.19462719209228" lon="16.184188376528546"><ele>1099.0</ele><time>2026-05-02T14:29:00.999Z</time></trkpt><trkpt lat="39.19472065313646" lon="16.18411879714552"><ele>1099.0</ele><time>2026-05-02T14:29:01.999Z</time></trkpt><trkpt lat="39.19481455196357" lon="16.18404410365165"><ele>1099.0</ele><time>2026-05-02T14:29:02.999Z</time></trkpt><trkpt lat="39.19491795356629" lon="16.18395921741636"><ele>1099.8</ele><time>2026-05-02T14:29:03.999Z</time></trkpt><trkpt lat="39.19500510313935" lon="16.183876042597362"><ele>1100.6000000000001</ele><time>2026-05-02T14:29:04.999Z</time></trkpt><trkpt lat="39.195082790875915" lon="16.18380188793407"><ele>1101.4</ele><time>2026-05-02T14:29:05.999Z</time></trkpt><trkpt lat="39.19515712635963" lon="16.183723866467254"><ele>1102.2</ele><time>2026-05-02T14:29:06.999Z</time></trkpt><trkpt lat="39.19524630053601" lon="16.183661318911135"><ele>1103.0</ele><time>2026-05-02T14:29:07.999Z</time></trkpt><trkpt lat="39.19532550255065" lon="16.18357836760949"><ele>1103.0</ele><time>2026-05-02T14:29:08.999Z</time></trkpt><trkpt lat="39.195401035263316" lon="16.183503910326912"><ele>1103.0</ele><time>2026-05-02T14:29:09.999Z</time></trkpt><trkpt lat="39.19548390640972" lon="16.183428056330495"><ele>1103.0</ele><time>2026-05-02T14:29:10.999Z</time></trkpt><trkpt lat="39.195567079612864" lon="16.18334973673403"><ele>1103.0</ele><time>2026-05-02T14:29:11.999Z</time></trkpt><trkpt lat="39.195657086944244" lon="16.18328326559527"><ele>1103.0</ele><time>2026-05-02T14:29:12.999Z</time></trkpt><trkpt lat="39.19573429450638" lon="16.183217788281162"><ele>1104.4</ele><time>2026-05-02T14:29:13.999Z</time></trkpt><trkpt lat="39.19580217892278" lon="16.183151410408804"><ele>1105.8</ele><time>2026-05-02T14:29:14.999Z</time></trkpt><trkpt lat="39.19585125117614" lon="16.183080632244344"><ele>1107.2</ele><time>2026-05-02T14:29:15.999Z</time></trkpt><trkpt lat="39.195925874846175" lon="16.183029452292352"><ele>1108.6</ele><time>2026-05-02T14:29:17.999Z</time></trkpt><trkpt lat="39.196054769517126" lon="16.183049574124517"><ele>1110.0</ele><time>2026-05-02T14:29:19.999Z</time></trkpt><trkpt lat="39.196137257029676" lon="16.183073722734914"><ele>1110.0</ele><time>2026-05-02T14:29:20.999Z</time></trkpt><trkpt lat="39.1962286552025" lon="16.18310712363788"><ele>1110.0</ele><time>2026-05-02T14:29:21.999Z</time></trkpt><trkpt lat="39.196323068200094" lon="16.183134558864154"><ele>1110.0</ele><time>2026-05-02T14:29:22.999Z</time></trkpt><trkpt lat="39.1963926352387" lon="16.183149555558675"><ele>1110.0</ele><time>2026-05-02T14:29:23.999Z</time></trkpt><trkpt lat="39.19648500869429" lon="16.183145130054363"><ele>1110.0</ele><time>2026-05-02T14:29:25.999Z</time></trkpt><trkpt lat="39.1965720197179" lon="16.183112243736744"><ele>1110.0</ele><time>2026-05-02T14:29:27.999Z</time></trkpt><trkpt lat="39.19669295044385" lon="16.183112949002737"><ele>1114.6</ele><time>2026-05-02T14:29:29.999Z</time></trkpt><trkpt lat="39.196769566175504" lon="16.183128735425004"><ele>1119.2</ele><time>2026-05-02T14:29:31.999Z</time></trkpt><trkpt lat="39.196882881718395" lon="16.183111391214894"><ele>1123.8</ele><time>2026-05-02T14:29:34.999Z</time></trkpt><trkpt lat="39.19696757361701" lon="16.18308183410933"><ele>1128.4</ele><time>2026-05-02T14:29:35.999Z</time></trkpt><trkpt lat="39.19705374202131" lon="16.183059504401495"><ele>1133.0</ele><time>2026-05-02T14:29:36.999Z</time></trkpt><trkpt lat="39.19714961889072" lon="16.183042956547542"><ele>1133.0</ele><time>2026-05-02T14:29:37.999Z</time></trkpt><trkpt lat="39.19723909450798" lon="16.183037623833357"><ele>1133.0</ele><time>2026-05-02T14:29:38.999Z</time></trkpt><trkpt lat="39.197317065221306" lon="16.183026423499275"><ele>1133.0</ele><time>2026-05-02T14:29:39.999Z</time></trkpt><trkpt lat="39.19740417634665" lon="16.183010861261536"><ele>1133.0</ele><time>2026-05-02T14:29:40.999Z</time></trkpt><trkpt lat="39.19747719329467" lon="16.18300189676963"><ele>1133.0</ele><time>2026-05-02T14:29:41.999Z</time></trkpt><trkpt lat="39.1975485882199" lon="16.183009819049644"><ele>1133.0</ele><time>2026-05-02T14:29:42.999Z</time></trkpt><trkpt lat="39.19762648608037" lon="16.183000271380617"><ele>1133.3333333333335</ele><time>2026-05-02T14:29:43.999Z</time></trkpt><trkpt lat="39.197699233565146" lon="16.182985321422304"><ele>1133.6666666666667</ele><time>2026-05-02T14:29:44.999Z</time></trkpt><trkpt lat="39.19776724793842" lon="16.18296119700901"><ele>1134.0</ele><time>2026-05-02T14:29:45.999Z</time></trkpt><trkpt lat="39.197838280282944" lon="16.182912148703778"><ele>1134.3333333333333</ele><time>2026-05-02T14:29:46.999Z</time></trkpt><trkpt lat="39.19792077014343" lon="16.182851825043837"><ele>1134.6666666666665</ele><time>2026-05-02T14:29:47.999Z</time></trkpt><trkpt lat="39.19798939334217" lon="16.182818756391303"><ele>1135.0</ele><time>2026-05-02T14:29:48.999Z</time></trkpt><trkpt lat="39.19808152494821" lon="16.18279108071948"><ele>1131.2</ele><time>2026-05-02T14:29:49.999Z</time></trkpt><trkpt lat="39.198189512524195" lon="16.182776379587064"><ele>1127.4</ele><time>2026-05-02T14:29:50.999Z</time></trkpt><trkpt lat="39.19829684837969" lon="16.182758996343065"><ele>1123.6</ele><time>2026-05-02T14:29:51.999Z</time></trkpt><trkpt lat="39.19838273286905" lon="16.182765157764162"><ele>1119.8</ele><time>2026-05-02T14:29:52.999Z</time></trkpt><trkpt lat="39.19847763256671" lon="16.182805140806387"><ele>1116.0</ele><time>2026-05-02T14:29:53.999Z</time></trkpt><trkpt lat="39.19858370045972" lon="16.182855400093846"><ele>1116.0</ele><time>2026-05-02T14:29:54.999Z</time></trkpt><trkpt lat="39.19865043219032" lon="16.18289802001785"><ele>1116.0</ele><time>2026-05-02T14:29:55.999Z</time></trkpt><trkpt lat="39.19874146370006" lon="16.182990342090367"><ele>1116.0</ele><time>2026-05-02T14:29:57.999Z</time></trkpt><trkpt lat="39.19879546168178" lon="16.18307644666226"><ele>1116.0</ele><time>2026-05-02T14:29:58.999Z</time></trkpt><trkpt lat="39.198836617995426" lon="16.183151255875387"><ele>1116.0</ele><time>2026-05-02T14:29:59.999Z</time></trkpt><trkpt lat="39.19887472166114" lon="16.183273980674063"><ele>1115.1666666666667</ele><time>2026-05-02T14:30:01.999Z</time></trkpt><trkpt lat="39.19888086272863" lon="16.183359959462344"><ele>1114.3333333333333</ele><time>2026-05-02T14:30:03.999Z</time></trkpt><trkpt lat="39.19890788282844" lon="16.18349170603727"><ele>1113.5</ele><time>2026-05-02T14:30:05.999Z</time></trkpt><trkpt lat="39.19893925534044" lon="16.18358239791369"><ele>1112.6666666666665</ele><time>2026-05-02T14:30:06.999Z</time></trkpt><trkpt lat="39.198993886957886" lon="16.183683723932223"><ele>1111.8333333333333</ele><time>2026-05-02T14:30:08Z</time></trkpt><trkpt lat="39.19904367347007" lon="16.183793837629644"><ele>1111.0</ele><time>2026-05-02T14:30:09Z</time></trkpt><trkpt lat="39.199066928386266" lon="16.183894618274174"><ele>1111.0</ele><time>2026-05-02T14:30:10Z</time></trkpt><trkpt lat="39.19909117423529" lon="16.183992533149656"><ele>1111.0</ele><time>2026-05-02T14:30:11Z</time></trkpt><trkpt lat="39.1991513575779" lon="16.184119645938708"><ele>1111.0</ele><time>2026-05-02T14:30:13Z</time></trkpt><trkpt lat="39.19922294844494" lon="16.184225975859192"><ele>1111.0</ele><time>2026-05-02T14:30:15Z</time></trkpt><trkpt lat="39.19930578299118" lon="16.18429757846685"><ele>1111.0</ele><time>2026-05-02T14:30:17Z</time></trkpt><trkpt lat="39.19939692092888" lon="16.184333197882353"><ele>1109.8333333333333</ele><time>2026-05-02T14:30:19Z</time></trkpt><trkpt lat="39.19947670185191" lon="16.18433360129343"><ele>1108.6666666666665</ele><time>2026-05-02T14:30:21Z</time></trkpt><trkpt lat="39.199476833005846" lon="16.184422474334337"><ele>1107.5</ele><time>2026-05-02T14:30:23Z</time></trkpt><trkpt lat="39.19940338896574" lon="16.184457991887474"><ele>1106.3333333333333</ele><time>2026-05-02T14:30:26Z</time></trkpt><trkpt lat="39.199316342068684" lon="16.184422050818043"><ele>1105.1666666666667</ele><time>2026-05-02T14:30:27.999Z</time></trkpt><trkpt lat="39.19923843688706" lon="16.184402446424798"><ele>1104.0</ele><time>2026-05-02T14:30:29.999Z</time></trkpt><trkpt lat="39.19913611377876" lon="16.184403792489377"><ele>1104.0</ele><time>2026-05-02T14:30:31.999Z</time></trkpt><trkpt lat="39.19906240705949" lon="16.184425215247742"><ele>1104.0</ele><time>2026-05-02T14:30:32.999Z</time></trkpt><trkpt lat="39.198971969528344" lon="16.184500972655123"><ele>1104.0</ele><time>2026-05-02T14:30:34.999Z</time></trkpt><trkpt lat="39.198923888416914" lon="16.18458380224967"><ele>1104.0</ele><time>2026-05-02T14:30:36.999Z</time></trkpt><trkpt lat="39.198929492642485" lon="16.184682127675153"><ele>1104.0</ele><time>2026-05-02T14:30:39.999Z</time></trkpt><trkpt lat="39.198999959000886" lon="16.18474874022779"><ele>1104.0</ele><time>2026-05-02T14:30:41.999Z</time></trkpt><trkpt lat="39.19910348696452" lon="16.18481602944899"><ele>1102.2</ele><time>2026-05-02T14:30:43.999Z</time></trkpt><trkpt lat="39.19917041862453" lon="16.184848983138078"><ele>1100.4</ele><time>2026-05-02T14:30:44.999Z</time></trkpt><trkpt lat="39.199288064440495" lon="16.184900034241124"><ele>1098.6</ele><time>2026-05-02T14:30:46.999Z</time></trkpt><trkpt lat="39.19938079616218" lon="16.184915062230036"><ele>1096.8</ele><time>2026-05-02T14:30:48.999Z</time></trkpt><trkpt lat="39.19945085771407" lon="16.184933471522168"><ele>1095.0</ele><time>2026-05-02T14:30:51.999Z</time></trkpt><trkpt lat="39.19954437238126" lon="16.18494898307811"><ele>1095.0</ele><time>2026-05-02T14:31:08.999Z</time></trkpt><trkpt lat="39.19963020418699" lon="16.184958602783514"><ele>1095.0</ele><time>2026-05-02T14:31:10.999Z</time></trkpt><trkpt lat="39.19970553119745" lon="16.184974333102232"><ele>1095.0</ele><time>2026-05-02T14:31:12.999Z</time></trkpt><trkpt lat="39.19981864993186" lon="16.18495771960992"><ele>1095.0</ele><time>2026-05-02T14:31:15.999Z</time></trkpt><trkpt lat="39.19989029318603" lon="16.184962209789624"><ele>1095.0</ele><time>2026-05-02T14:31:16.999Z</time></trkpt><trkpt lat="39.19996283691526" lon="16.184984169198337"><ele>1095.0</ele><time>2026-05-02T14:31:17.999Z</time></trkpt><trkpt lat="39.20003403907718" lon="16.185013445641953"><ele>1094.1666666666667</ele><time>2026-05-02T14:31:18.999Z</time></trkpt><trkpt lat="39.200102070648725" lon="16.185050775173423"><ele>1093.3333333333333</ele><time>2026-05-02T14:31:19.999Z</time></trkpt><trkpt lat="39.20017936048663" lon="16.18509881102308"><ele>1092.5</ele><time>2026-05-02T14:31:20.999Z</time></trkpt><trkpt lat="39.200252565673956" lon="16.185150325142907"><ele>1091.6666666666665</ele><time>2026-05-02T14:31:21.999Z</time></trkpt><trkpt lat="39.200325756962194" lon="16.185199345072018"><ele>1090.8333333333333</ele><time>2026-05-02T14:31:22.999Z</time></trkpt><trkpt lat="39.20041321772378" lon="16.185229006184244"><ele>1090.0</ele><time>2026-05-02T14:31:23.999Z</time></trkpt><trkpt lat="39.20050671697079" lon="16.18526412572291"><ele>1090.0</ele><time>2026-05-02T14:31:24.999Z</time></trkpt><trkpt lat="39.20058045420162" lon="16.18529678882651"><ele>1090.0</ele><time>2026-05-02T14:31:25.999Z</time></trkpt><trkpt lat="39.20068006416121" lon="16.18533248043502"><ele>1090.0</ele><time>2026-05-02T14:31:27.999Z</time></trkpt><trkpt lat="39.20073657197393" lon="16.185294214318994"><ele>1090.0</ele><time>2026-05-02T14:31:29.999Z</time></trkpt><trkpt lat="39.20078729830179" lon="16.185381712886446"><ele>1090.0</ele><time>2026-05-02T14:31:33.999Z</time></trkpt><trkpt lat="39.200815421134116" lon="16.185462020364074"><ele>1090.0</ele><time>2026-05-02T14:31:35.999Z</time></trkpt><trkpt lat="39.20081732765736" lon="16.185566437953064"><ele>1090.0</ele><time>2026-05-02T14:31:38.999Z</time></trkpt><trkpt lat="39.200768124556255" lon="16.18562322312675"><ele>1090.0</ele><time>2026-05-02T14:31:41.999Z</time></trkpt><trkpt lat="39.20073189673975" lon="16.185537829882136"><ele>1090.0</ele><time>2026-05-02T14:31:58.999Z</time></trkpt><trkpt lat="39.20067893520651" lon="16.185465334636692"><ele>1090.0</ele><time>2026-05-02T14:32:06.999Z</time></trkpt><trkpt lat="39.200641182420554" lon="16.185382683122974"><ele>1090.0</ele><time>2026-05-02T14:32:14.999Z</time></trkpt><trkpt lat="39.20056496632951" lon="16.18536482177892"><ele>1090.0</ele><time>2026-05-02T14:32:19.999Z</time></trkpt><trkpt lat="39.200487636548075" lon="16.18536547881536"><ele>1090.0</ele><time>2026-05-02T14:32:22.999Z</time></trkpt><trkpt lat="39.20041074858197" lon="16.18533100563224"><ele>1090.0</ele><time>2026-05-02T14:32:37.999Z</time></trkpt><trkpt lat="39.20033593265871" lon="16.185284986957083"><ele>1090.0</ele><time>2026-05-02T14:33:23.999Z</time></trkpt><trkpt lat="39.20026676157092" lon="16.185271219067896"><ele>1090.0</ele><time>2026-05-02T14:33:27.999Z</time></trkpt><trkpt lat="39.20020169440564" lon="16.18522787411657"><ele>1090.0</ele><time>2026-05-02T14:33:30.999Z</time></trkpt><trkpt lat="39.20022114561095" lon="16.185138735906005"><ele>1090.0</ele><time>2026-05-02T14:33:41.999Z</time></trkpt><trkpt lat="39.20018345703485" lon="16.185066839315432"><ele>1090.0</ele><time>2026-05-02T14:33:54.999Z</time></trkpt><trkpt lat="39.20009656931727" lon="16.18501447755425"><ele>1090.0</ele><time>2026-05-02T14:33:56.999Z</time></trkpt><trkpt lat="39.2000204212709" lon="16.184969030037315"><ele>1090.0</ele><time>2026-05-02T14:33:58.999Z</time></trkpt><trkpt lat="39.19992347339815" lon="16.184935016968627"><ele>1090.0</ele><time>2026-05-02T14:34:00.999Z</time></trkpt><trkpt lat="39.19983331767848" lon="16.184920850503953"><ele>1090.0</ele><time>2026-05-02T14:34:02.999Z</time></trkpt><trkpt lat="39.19975547223964" lon="16.18493318940175"><ele>1090.0</ele><time>2026-05-02T14:34:05.999Z</time></trkpt><trkpt lat="39.19968750408346" lon="16.1849414152662"><ele>1090.0</ele><time>2026-05-02T14:34:06.999Z</time></trkpt><trkpt lat="39.19960462772162" lon="16.184942156861304"><ele>1090.8333333333333</ele><time>2026-05-02T14:34:08Z</time></trkpt><trkpt lat="39.1995320318464" lon="16.184922462353"><ele>1091.6666666666665</ele><time>2026-05-02T14:34:09Z</time></trkpt><trkpt lat="39.199471492738816" lon="16.184885654554922"><ele>1092.5</ele><time>2026-05-02T14:34:10Z</time></trkpt><trkpt lat="39.199403892983156" lon="16.184869731171098"><ele>1093.3333333333333</ele><time>2026-05-02T14:34:11Z</time></trkpt><trkpt lat="39.19933633826831" lon="16.184860421490246"><ele>1094.1666666666667</ele><time>2026-05-02T14:34:12Z</time></trkpt><trkpt lat="39.19923480374706" lon="16.184839031691663"><ele>1095.0</ele><time>2026-05-02T14:34:14Z</time></trkpt><trkpt lat="39.19913329765886" lon="16.184804691408278"><ele>1096.8</ele><time>2026-05-02T14:34:16Z</time></trkpt><trkpt lat="39.199026829073304" lon="16.18472893361147"><ele>1098.6</ele><time>2026-05-02T14:34:18Z</time></trkpt><trkpt lat="39.19897406674185" lon="16.184682310659717"><ele>1100.4</ele><time>2026-05-02T14:34:19Z</time></trkpt><trkpt lat="39.19890782846012" lon="16.184601022376267"><ele>1102.2</ele><time>2026-05-02T14:34:21Z</time></trkpt><trkpt lat="39.198998212757196" lon="16.184499758621726"><ele>1104.0</ele><time>2026-05-02T14:34:40Z</time></trkpt><trkpt lat="39.19904884095089" lon="16.18444849267903"><ele>1104.0</ele><time>2026-05-02T14:34:41Z</time></trkpt><trkpt lat="39.19910175287954" lon="16.184400118547707"><ele>1104.0</ele><time>2026-05-02T14:34:42Z</time></trkpt><trkpt lat="39.19923822463659" lon="16.18438479063405"><ele>1104.0</ele><time>2026-05-02T14:34:44Z</time></trkpt><trkpt lat="39.199329092453056" lon="16.184405114016716"><ele>1104.0</ele><time>2026-05-02T14:34:45Z</time></trkpt><trkpt lat="39.199400492344395" lon="16.184432740156776"><ele>1104.0</ele><time>2026-05-02T14:34:46Z</time></trkpt><trkpt lat="39.199486989933995" lon="16.184438252667896"><ele>1104.0</ele><time>2026-05-02T14:34:48Z</time></trkpt><trkpt lat="39.19948624207016" lon="16.184339349551053"><ele>1104.0</ele><time>2026-05-02T14:34:51Z</time></trkpt><trkpt lat="39.19941979015603" lon="16.184290817847018"><ele>1104.0</ele><time>2026-05-02T14:34:53Z</time></trkpt><trkpt lat="39.19929554215435" lon="16.184287009085793"><ele>1104.0</ele><time>2026-05-02T14:34:55Z</time></trkpt><trkpt lat="39.19919014537495" lon="16.1841772903354"><ele>1104.0</ele><time>2026-05-02T14:34:57Z</time></trkpt><trkpt lat="39.19911327839883" lon="16.184051560972446"><ele>1103.2</ele><time>2026-05-02T14:34:59Z</time></trkpt><trkpt lat="39.199075724925414" lon="16.18396512541853"><ele>1102.4</ele><time>2026-05-02T14:35:00Z</time></trkpt><trkpt lat="39.199035753153346" lon="16.183856059506482"><ele>1101.6</ele><time>2026-05-02T14:35:01Z</time></trkpt><trkpt lat="39.19900112091201" lon="16.18372982944968"><ele>1100.8</ele><time>2026-05-02T14:35:02Z</time></trkpt><trkpt lat="39.19896266359233" lon="16.18360070787842"><ele>1100.0</ele><time>2026-05-02T14:35:03Z</time></trkpt><trkpt lat="39.1989158458258" lon="16.183483281240065"><ele>1100.0</ele><time>2026-05-02T14:35:04Z</time></trkpt><trkpt lat="39.1988792003435" lon="16.18340248133282"><ele>1100.0</ele><time>2026-05-02T14:35:05Z</time></trkpt><trkpt lat="39.198856267352504" lon="16.183247322127436"><ele>1100.0</ele><time>2026-05-02T14:35:07Z</time></trkpt><trkpt lat="39.198820562699744" lon="16.18310114404242"><ele>1100.0</ele><time>2026-05-02T14:35:09Z</time></trkpt><trkpt lat="39.198771790928156" lon="16.183026312403424"><ele>1100.0</ele><time>2026-05-02T14:35:10Z</time></trkpt><trkpt lat="39.19871624889652" lon="16.18295969886251"><ele>1102.6666666666667</ele><time>2026-05-02T14:35:11Z</time></trkpt><trkpt lat="39.19864772689003" lon="16.18288080204405"><ele>1105.3333333333335</ele><time>2026-05-02T14:35:13Z</time></trkpt><trkpt lat="39.198624988414274" lon="16.18280325170556"><ele>1108.0</ele><time>2026-05-02T14:35:15Z</time></trkpt><trkpt lat="39.19857207554274" lon="16.182728343421203"><ele>1110.6666666666667</ele><time>2026-05-02T14:35:18Z</time></trkpt><trkpt lat="39.19848136378774" lon="16.18271603176974"><ele>1113.3333333333333</ele><time>2026-05-02T14:35:21Z</time></trkpt><trkpt lat="39.198406251936035" lon="16.182736501445227"><ele>1116.0</ele><time>2026-05-02T14:35:24Z</time></trkpt><trkpt lat="39.19832589814094" lon="16.18273888275424"><ele>1116.0</ele><time>2026-05-02T14:35:27Z</time></trkpt><trkpt lat="39.198252143910594" lon="16.182726409400896"><ele>1116.0</ele><time>2026-05-02T14:35:30Z</time></trkpt><trkpt lat="39.198187125460244" lon="16.182732577958927"><ele>1116.0</ele><time>2026-05-02T14:35:32Z</time></trkpt><trkpt lat="39.19808088735375" lon="16.182782214177017"><ele>1116.0</ele><time>2026-05-02T14:35:34Z</time></trkpt><trkpt lat="39.1980129111978" lon="16.18279519466721"><ele>1116.0</ele><time>2026-05-02T14:35:35Z</time></trkpt><trkpt lat="39.19793116105982" lon="16.18282912518821"><ele>1116.0</ele><time>2026-05-02T14:35:37Z</time></trkpt><trkpt lat="39.19781324094299" lon="16.182898209807114"><ele>1119.8</ele><time>2026-05-02T14:35:41Z</time></trkpt><trkpt lat="39.19774949832396" lon="16.1829597718418"><ele>1123.6</ele><time>2026-05-02T14:35:42Z</time></trkpt><trkpt lat="39.19766697299676" lon="16.18299912595332"><ele>1127.4</ele><time>2026-05-02T14:35:43Z</time></trkpt><trkpt lat="39.19757436518538" lon="16.183002921603208"><ele>1131.2</ele><time>2026-05-02T14:35:44Z</time></trkpt><trkpt lat="39.19747484990887" lon="16.183007721886156"><ele>1135.0</ele><time>2026-05-02T14:35:45Z</time></trkpt><trkpt lat="39.19738083312306" lon="16.182995353056434"><ele>1134.6</ele><time>2026-05-02T14:35:46Z</time></trkpt><trkpt lat="39.197312831947414" lon="16.183007611956054"><ele>1134.2</ele><time>2026-05-02T14:35:47Z</time></trkpt><trkpt lat="39.197204369927086" lon="16.183016140101078"><ele>1133.8</ele><time>2026-05-02T14:35:48Z</time></trkpt><trkpt lat="39.19706747714163" lon="16.18304403198441"><ele>1133.4</ele><time>2026-05-02T14:35:49Z</time></trkpt><trkpt lat="39.196946634067956" lon="16.183073749728827"><ele>1133.0</ele><time>2026-05-02T14:35:50Z</time></trkpt><trkpt lat="39.196838731535685" lon="16.18308813193235"><ele>1133.0</ele><time>2026-05-02T14:35:51Z</time></trkpt><trkpt lat="39.196753593160146" lon="16.183096357397893"><ele>1133.0</ele><time>2026-05-02T14:35:52Z</time></trkpt><trkpt lat="39.19666675095137" lon="16.183113780273526"><ele>1133.0</ele><time>2026-05-02T14:35:53Z</time></trkpt><trkpt lat="39.19659314406641" lon="16.183113275451905"><ele>1133.0</ele><time>2026-05-02T14:35:54Z</time></trkpt><trkpt lat="39.1965063139641" lon="16.183103380380413"><ele>1133.0</ele><time>2026-05-02T14:35:56Z</time></trkpt><trkpt lat="39.196431407046454" lon="16.183143503194728"><ele>1133.0</ele><time>2026-05-02T14:35:58Z</time></trkpt><trkpt lat="39.196361615171064" lon="16.183146906816205"><ele>1129.1666666666667</ele><time>2026-05-02T14:36:00Z</time></trkpt><trkpt lat="39.19628469662289" lon="16.183121588771385"><ele>1125.3333333333335</ele><time>2026-05-02T14:36:02Z</time></trkpt><trkpt lat="39.196216664881604" lon="16.183099725069535"><ele>1121.5</ele><time>2026-05-02T14:36:04Z</time></trkpt><trkpt lat="39.19613261792803" lon="16.183077541408853"><ele>1117.6666666666667</ele><time>2026-05-02T14:36:06Z</time></trkpt><trkpt lat="39.19604700707141" lon="16.183044639229383"><ele>1113.8333333333333</ele><time>2026-05-02T14:36:09Z</time></trkpt><trkpt lat="39.19598521755986" lon="16.183009397772466"><ele>1110.0</ele><time>2026-05-02T14:36:11Z</time></trkpt><trkpt lat="39.19592306032963" lon="16.182983351285287"><ele>1110.0</ele><time>2026-05-02T14:36:13Z</time></trkpt><trkpt lat="39.19585961497501" lon="16.18299048955154"><ele>1110.0</ele><time>2026-05-02T14:36:15Z</time></trkpt><trkpt lat="39.19580556064419" lon="16.18307214438651"><ele>1110.0</ele><time>2026-05-02T14:36:18Z</time></trkpt><trkpt lat="39.19575531169794" lon="16.183161463198523"><ele>1110.0</ele><time>2026-05-02T14:36:21Z</time></trkpt><trkpt lat="39.195695441827105" lon="16.18323674919456"><ele>1110.0</ele><time>2026-05-02T14:36:24Z</time></trkpt><trkpt lat="39.19562942982515" lon="16.183293772769435"><ele>1110.0</ele><time>2026-05-02T14:36:27Z</time></trkpt><trkpt lat="39.1955957530786" lon="16.18336535326941"><ele>1110.5</ele><time>2026-05-02T14:36:30Z</time></trkpt><trkpt lat="39.19560358023785" lon="16.183481873621382"><ele>1111.0</ele><time>2026-05-02T14:36:43Z</time></trkpt><trkpt lat="39.19560854171412" lon="16.18356704484429"><ele>1111.5</ele><time>2026-05-02T14:36:45Z</time></trkpt><trkpt lat="39.195641833849535" lon="16.183666364338958"><ele>1112.0</ele><time>2026-05-02T14:36:48Z</time></trkpt><trkpt lat="39.19570014340041" lon="16.1837203947204"><ele>1112.5</ele><time>2026-05-02T14:36:53Z</time></trkpt><trkpt lat="39.1957678472552" lon="16.183732058861125"><ele>1113.0</ele><time>2026-05-02T14:37:11Z</time></trkpt><trkpt lat="39.195800883534346" lon="16.183654174222312"><ele>1113.0</ele><time>2026-05-02T14:37:17Z</time></trkpt><trkpt lat="39.195729200711575" lon="16.1836381949251"><ele>1113.0</ele><time>2026-05-02T14:37:22Z</time></trkpt><trkpt lat="39.19570135484863" lon="16.183712052727614"><ele>1113.0</ele><time>2026-05-02T14:37:25Z</time></trkpt><trkpt lat="39.1956423888715" lon="16.183679674133856"><ele>1113.0</ele><time>2026-05-02T14:37:30Z</time></trkpt><trkpt lat="39.19560164360268" lon="16.183606117042544"><ele>1113.0</ele><time>2026-05-02T14:37:34Z</time></trkpt><trkpt lat="39.19557770787046" lon="16.183521814371165"><ele>1113.0</ele><time>2026-05-02T14:37:43Z</time></trkpt><trkpt lat="39.19560698436961" lon="16.183439320976063"><ele>1113.0</ele><time>2026-05-02T14:37:46Z</time></trkpt><trkpt lat="39.19565985283423" lon="16.18338938436171"><ele>1113.0</ele><time>2026-05-02T14:37:48Z</time></trkpt><trkpt lat="39.19568337771544" lon="16.18328700642667"><ele>1113.0</ele><time>2026-05-02T14:37:51Z</time></trkpt><trkpt lat="39.19572994066445" lon="16.183192828313636"><ele>1113.0</ele><time>2026-05-02T14:37:54Z</time></trkpt><trkpt lat="39.19580897441473" lon="16.183114722057994"><ele>1113.0</ele><time>2026-05-02T14:37:56Z</time></trkpt><trkpt lat="39.19585074482639" lon="16.183041038433498"><ele>1113.0</ele><time>2026-05-02T14:37:58Z</time></trkpt><trkpt lat="39.195893877794056" lon="16.18290501474381"><ele>1112.8333333333333</ele><time>2026-05-02T14:38:00Z</time></trkpt><trkpt lat="39.19591870899537" lon="16.182810981355896"><ele>1112.6666666666667</ele><time>2026-05-02T14:38:01Z</time></trkpt><trkpt lat="39.195948470797504" lon="16.182706326755625"><ele>1112.5</ele><time>2026-05-02T14:38:02Z</time></trkpt><trkpt lat="39.19597388643092" lon="16.18259578085685"><ele>1112.3333333333335</ele><time>2026-05-02T14:38:03Z</time></trkpt><trkpt lat="39.195997766536514" lon="16.182496970495976"><ele>1112.1666666666667</ele><time>2026-05-02T14:38:04Z</time></trkpt><trkpt lat="39.1960234730686" lon="16.182369850720754"><ele>1112.0</ele><time>2026-05-02T14:38:06Z</time></trkpt><trkpt lat="39.196014908859645" lon="16.182281339375624"><ele>1112.0</ele><time>2026-05-02T14:38:08Z</time></trkpt><trkpt lat="39.19602692669228" lon="16.182165273672705"><ele>1112.0</ele><time>2026-05-02T14:38:11Z</time></trkpt><trkpt lat="39.19602484889297" lon="16.18207902966694"><ele>1112.0</ele><time>2026-05-02T14:38:13Z</time></trkpt><trkpt lat="39.19600427972002" lon="16.1819493972206"><ele>1112.0</ele><time>2026-05-02T14:38:15Z</time></trkpt><trkpt lat="39.19599424653516" lon="16.18177860331689"><ele>1112.0</ele><time>2026-05-02T14:38:17Z</time></trkpt><trkpt lat="39.19599255918884" lon="16.181679209407005"><ele>1112.0</ele><time>2026-05-02T14:38:18Z</time></trkpt><trkpt lat="39.19599399832846" lon="16.18154907366304"><ele>1112.0</ele><time>2026-05-02T14:38:19Z</time></trkpt><trkpt lat="39.195998487059924" lon="16.18141501933051"><ele>1112.0</ele><time>2026-05-02T14:38:20Z</time></trkpt><trkpt lat="39.19600451876684" lon="16.18127749981158"><ele>1112.0</ele><time>2026-05-02T14:38:21Z</time></trkpt><trkpt lat="39.19602362939043" lon="16.18115225658823"><ele>1112.0</ele><time>2026-05-02T14:38:22Z</time></trkpt><trkpt lat="39.19605381801778" lon="16.1810418155717"><ele>1113.0</ele><time>2026-05-02T14:38:23Z</time></trkpt><trkpt lat="39.19609748079344" lon="16.1809337552865"><ele>1114.0</ele><time>2026-05-02T14:38:24Z</time></trkpt><trkpt lat="39.196140289315245" lon="16.180809659287362"><ele>1115.0</ele><time>2026-05-02T14:38:25Z</time></trkpt><trkpt lat="39.1962014144707" lon="16.18066733551324"><ele>1116.0</ele><time>2026-05-02T14:38:26Z</time></trkpt><trkpt lat="39.19624447696961" lon="16.180515633733535"><ele>1116.0</ele><time>2026-05-02T14:38:27Z</time></trkpt><trkpt lat="39.19628271130825" lon="16.1803814044874"><ele>1116.0</ele><time>2026-05-02T14:38:28Z</time></trkpt><trkpt lat="39.196305346170625" lon="16.180293383463614"><ele>1116.0</ele><time>2026-05-02T14:38:29Z</time></trkpt><trkpt lat="39.196326179089624" lon="16.180197519389942"><ele>1116.0</ele><time>2026-05-02T14:38:30Z</time></trkpt><trkpt lat="39.19635472317141" lon="16.180116627094243"><ele>1116.0</ele><time>2026-05-02T14:38:31Z</time></trkpt><trkpt lat="39.19640299510702" lon="16.180015163962445"><ele>1116.0</ele><time>2026-05-02T14:38:32.001Z</time></trkpt><trkpt lat="39.19646314970992" lon="16.17991510058995"><ele>1117.6</ele><time>2026-05-02T14:38:33.001Z</time></trkpt><trkpt lat="39.19650670787956" lon="16.1798194851846"><ele>1119.1999999999998</ele><time>2026-05-02T14:38:34.001Z</time></trkpt><trkpt lat="39.19653388904456" lon="16.17974493369597"><ele>1120.8000000000002</ele><time>2026-05-02T14:38:35.001Z</time></trkpt><trkpt lat="39.196574545555606" lon="16.179669004776663"><ele>1122.4</ele><time>2026-05-02T14:38:36.001Z</time></trkpt><trkpt lat="39.19664054073542" lon="16.17951478886471"><ele>1124.0</ele><time>2026-05-02T14:38:38.001Z</time></trkpt><trkpt lat="39.19668872696431" lon="16.179409963452922"><ele>1124.0</ele><time>2026-05-02T14:38:39.001Z</time></trkpt><trkpt lat="39.19673574193673" lon="16.17929487689086"><ele>1124.0</ele><time>2026-05-02T14:38:40.001Z</time></trkpt><trkpt lat="39.19678629189286" lon="16.179163687927613"><ele>1124.0</ele><time>2026-05-02T14:38:41.001Z</time></trkpt><trkpt lat="39.19684089328242" lon="16.179071050435486"><ele>1124.0</ele><time>2026-05-02T14:38:42.001Z</time></trkpt><trkpt lat="39.196881538584634" lon="16.178991761758983"><ele>1124.0</ele><time>2026-05-02T14:38:43.001Z</time></trkpt><trkpt lat="39.19691254031121" lon="16.17888536418247"><ele>1124.0</ele><time>2026-05-02T14:38:45.001Z</time></trkpt><trkpt lat="39.197074786393664" lon="16.178939158869785"><ele>1124.0</ele><time>2026-05-02T14:38:54Z</time></trkpt><trkpt lat="39.19713756808444" lon="16.179031575160167"><ele>1124.0</ele><time>2026-05-02T14:38:57Z</time></trkpt><trkpt lat="39.19721224166369" lon="16.179075167343377"><ele>1124.0</ele><time>2026-05-02T14:39:01Z</time></trkpt><trkpt lat="39.19727932215564" lon="16.179085702748136"><ele>1124.0</ele><time>2026-05-02T14:39:11Z</time></trkpt><trkpt lat="39.19732690720472" lon="16.179147653839458"><ele>1126.0</ele><time>2026-05-02T14:39:13Z</time></trkpt><trkpt lat="39.19739286480123" lon="16.17919448326119"><ele>1128.0</ele><time>2026-05-02T14:39:16Z</time></trkpt><trkpt lat="39.19746385042818" lon="16.179254674101557"><ele>1130.0</ele><time>2026-05-02T14:39:20Z</time></trkpt><trkpt lat="39.19748313220387" lon="16.179357759928447"><ele>1132.0</ele><time>2026-05-02T14:39:22Z</time></trkpt><trkpt lat="39.197483505911904" lon="16.179519689379354"><ele>1134.0</ele><time>2026-05-02T14:39:25Z</time></trkpt><trkpt lat="39.19751500459524" lon="16.17959610202814"><ele>1136.0</ele><time>2026-05-02T14:39:27Z</time></trkpt><trkpt lat="39.19757552394282" lon="16.179643632367238"><ele>1136.0</ele><time>2026-05-02T14:39:30Z</time></trkpt><trkpt lat="39.1976161782629" lon="16.179721661612277"><ele>1136.0</ele><time>2026-05-02T14:39:33Z</time></trkpt><trkpt lat="39.19770436663514" lon="16.179736469714847"><ele>1136.0</ele><time>2026-05-02T14:39:37Z</time></trkpt><trkpt lat="39.1977749134757" lon="16.17971013772816"><ele>1136.0</ele><time>2026-05-02T14:39:55Z</time></trkpt><trkpt lat="39.19777217146199" lon="16.179616817650984"><ele>1136.0</ele><time>2026-05-02T14:39:59Z</time></trkpt><trkpt lat="39.19769416477078" lon="16.1796250420735"><ele>1136.0</ele><time>2026-05-02T14:40:03Z</time></trkpt><trkpt lat="39.1976306397887" lon="16.179624560318317"><ele>1136.0</ele><time>2026-05-02T14:40:06Z</time></trkpt><trkpt lat="39.19757022449701" lon="16.17967410477957"><ele>1136.0</ele><time>2026-05-02T14:40:10Z</time></trkpt><trkpt lat="39.19749682434531" lon="16.179743555452724"><ele>1136.0</ele><time>2026-05-02T14:40:13Z</time></trkpt><trkpt lat="39.197432468808366" lon="16.179732559651423"><ele>1136.0</ele><time>2026-05-02T14:40:19Z</time></trkpt><trkpt lat="39.19741388163067" lon="16.17964532279745"><ele>1136.0</ele><time>2026-05-02T14:40:24Z</time></trkpt><trkpt lat="39.19737712250631" lon="16.179523509107728"><ele>1136.0</ele><time>2026-05-02T14:40:28Z</time></trkpt><trkpt lat="39.19732613615511" lon="16.17945132618106"><ele>1136.0</ele><time>2026-05-02T14:40:30Z</time></trkpt><trkpt lat="39.19730403506331" lon="16.17937145585712"><ele>1134.0</ele><time>2026-05-02T14:40:34Z</time></trkpt><trkpt lat="39.19731786671069" lon="16.179279797390404"><ele>1132.0</ele><time>2026-05-02T14:40:38Z</time></trkpt><trkpt lat="39.19730249833114" lon="16.179163753890258"><ele>1130.0</ele><time>2026-05-02T14:40:42Z</time></trkpt><trkpt lat="39.19729171367419" lon="16.179082501194944"><ele>1128.0</ele><time>2026-05-02T14:40:45Z</time></trkpt><trkpt lat="39.197274321699574" lon="16.178999837850366"><ele>1126.0</ele><time>2026-05-02T14:40:48Z</time></trkpt><trkpt lat="39.197267210046434" lon="16.17890961640081"><ele>1124.0</ele><time>2026-05-02T14:40:51Z</time></trkpt><trkpt lat="39.19724692865807" lon="16.17878962872565"><ele>1123.5714285714287</ele><time>2026-05-02T14:40:55Z</time></trkpt><trkpt lat="39.19718738397063" lon="16.178734569907768"><ele>1123.142857142857</ele><time>2026-05-02T14:41:00Z</time></trkpt><trkpt lat="39.197130014977134" lon="16.178691624880027"><ele>1122.7142857142858</ele><time>2026-05-02T14:41:03Z</time></trkpt><trkpt lat="39.1970562594398" lon="16.178649427880117"><ele>1122.2857142857142</ele><time>2026-05-02T14:41:07Z</time></trkpt><trkpt lat="39.19700038584729" lon="16.178693978018636"><ele>1121.857142857143</ele><time>2026-05-02T14:41:11Z</time></trkpt><trkpt lat="39.196929807913804" lon="16.17873378512477"><ele>1121.4285714285716</ele><time>2026-05-02T14:41:14Z</time></trkpt><trkpt lat="39.19689713476394" lon="16.17865745886775"><ele>1121.0</ele><time>2026-05-02T14:41:17Z</time></trkpt><trkpt lat="39.196875898941954" lon="16.17855014044315"><ele>1121.0</ele><time>2026-05-02T14:41:20Z</time></trkpt><trkpt lat="39.19684813327053" lon="16.178460820147784"><ele>1121.0</ele><time>2026-05-02T14:41:21Z</time></trkpt><trkpt lat="39.19683503205662" lon="16.178337590912484"><ele>1121.0</ele><time>2026-05-02T14:41:22Z</time></trkpt><trkpt lat="39.19684308794322" lon="16.17819089229106"><ele>1121.0</ele><time>2026-05-02T14:41:23Z</time></trkpt><trkpt lat="39.196843656697475" lon="16.178049170776447"><ele>1121.0</ele><time>2026-05-02T14:41:24Z</time></trkpt><trkpt lat="39.19681242104151" lon="16.177902888738494"><ele>1122.2</ele><time>2026-05-02T14:41:25Z</time></trkpt><trkpt lat="39.196776048105605" lon="16.17773803641567"><ele>1123.3999999999999</ele><time>2026-05-02T14:41:26Z</time></trkpt><trkpt lat="39.19675257164996" lon="16.177593877963368"><ele>1124.6</ele><time>2026-05-02T14:41:27Z</time></trkpt><trkpt lat="39.196742576005" lon="16.177471406311106"><ele>1125.8</ele><time>2026-05-02T14:41:28Z</time></trkpt><trkpt lat="39.1967206646585" lon="16.17734662734337"><ele>1127.0</ele><time>2026-05-02T14:41:29Z</time></trkpt><trkpt lat="39.19669867463731" lon="16.17723263445707"><ele>1127.8</ele><time>2026-05-02T14:41:30Z</time></trkpt><trkpt lat="39.19668761318472" lon="16.177135671786278"><ele>1128.6</ele><time>2026-05-02T14:41:31Z</time></trkpt><trkpt lat="39.19667218363659" lon="16.177028529694425"><ele>1129.3999999999999</ele><time>2026-05-02T14:41:32Z</time></trkpt><trkpt lat="39.19664031702924" lon="16.176892910016544"><ele>1130.2</ele><time>2026-05-02T14:41:33Z</time></trkpt><trkpt lat="39.196620363011974" lon="16.176758273695665"><ele>1131.0</ele><time>2026-05-02T14:41:34Z</time></trkpt><trkpt lat="39.196590385629605" lon="16.176621842165513"><ele>1129.75</ele><time>2026-05-02T14:41:35Z</time></trkpt><trkpt lat="39.19654767076863" lon="16.1764814879198"><ele>1128.5</ele><time>2026-05-02T14:41:36Z</time></trkpt><trkpt lat="39.19648928544868" lon="16.176343375151017"><ele>1127.25</ele><time>2026-05-02T14:41:37Z</time></trkpt><trkpt lat="39.1964346161257" lon="16.17621070502588"><ele>1126.0</ele><time>2026-05-02T14:41:38Z</time></trkpt><trkpt lat="39.19638221426377" lon="16.176071667656004"><ele>1126.0</ele><time>2026-05-02T14:41:39Z</time></trkpt><trkpt lat="39.19633569118946" lon="16.175925702906216"><ele>1126.0</ele><time>2026-05-02T14:41:40Z</time></trkpt><trkpt lat="39.19629003585546" lon="16.175771705666733"><ele>1126.0</ele><time>2026-05-02T14:41:41Z</time></trkpt><trkpt lat="39.19624309066809" lon="16.175642842168994"><ele>1126.0</ele><time>2026-05-02T14:41:42Z</time></trkpt><trkpt lat="39.19622720117294" lon="16.175530511431713"><ele>1126.0</ele><time>2026-05-02T14:41:43Z</time></trkpt><trkpt lat="39.19621219339349" lon="16.175447883866823"><ele>1126.0</ele><time>2026-05-02T14:41:44Z</time></trkpt><trkpt lat="39.19618499060353" lon="16.17531017736813"><ele>1126.0</ele><time>2026-05-02T14:41:46Z</time></trkpt><trkpt lat="39.19615939399273" lon="16.175203297031683"><ele>1126.0</ele><time>2026-05-02T14:41:48Z</time></trkpt><trkpt lat="39.196131091832065" lon="16.17510690313072"><ele>1126.0</ele><time>2026-05-02T14:41:50Z</time></trkpt><trkpt lat="39.196112237332514" lon="16.174991834247006"><ele>1126.0</ele><time>2026-05-02T14:41:52Z</time></trkpt><trkpt lat="39.196077253284194" lon="16.174831735761437"><ele>1126.0</ele><time>2026-05-02T14:41:54Z</time></trkpt><trkpt lat="39.19605018243785" lon="16.17469800319115"><ele>1126.0</ele><time>2026-05-02T14:41:56Z</time></trkpt><trkpt lat="39.19603854762561" lon="16.17457981025761"><ele>1126.0</ele><time>2026-05-02T14:41:58Z</time></trkpt><trkpt lat="39.196060881162815" lon="16.174474855498016"><ele>1126.0</ele><time>2026-05-02T14:42:00Z</time></trkpt><trkpt lat="39.196129931571356" lon="16.174447061038194"><ele>1126.0</ele><time>2026-05-02T14:42:02Z</time></trkpt><trkpt lat="39.19620932132542" lon="16.174407790499924"><ele>1126.0</ele><time>2026-05-02T14:42:04Z</time></trkpt><trkpt lat="39.19627624702518" lon="16.174377485038118"><ele>1126.0</ele><time>2026-05-02T14:42:06Z</time></trkpt><trkpt lat="39.196314848840444" lon="16.174283943436397"><ele>1126.0</ele><time>2026-05-02T14:42:08Z</time></trkpt><trkpt lat="39.196324678712394" lon="16.174133466063804"><ele>1126.0</ele><time>2026-05-02T14:42:10Z</time></trkpt><trkpt lat="39.19634031556478" lon="16.174047394628136"><ele>1126.0</ele><time>2026-05-02T14:42:11Z</time></trkpt><trkpt lat="39.196362162195285" lon="16.17394903636473"><ele>1126.0</ele><time>2026-05-02T14:42:12Z</time></trkpt><trkpt lat="39.19638550587818" lon="16.173851423401334"><ele>1126.0</ele><time>2026-05-02T14:42:13Z</time></trkpt><trkpt lat="39.19641008319971" lon="16.17376034582342"><ele>1126.0</ele><time>2026-05-02T14:42:14Z</time></trkpt><trkpt lat="39.19642413122641" lon="16.173675444030184"><ele>1126.0</ele><time>2026-05-02T14:42:15Z</time></trkpt><trkpt lat="39.19642357759461" lon="16.173589546987756"><ele>1126.0</ele><time>2026-05-02T14:42:16Z</time></trkpt><trkpt lat="39.19640376445423" lon="16.173484177967225"><ele>1126.0</ele><time>2026-05-02T14:42:17Z</time></trkpt><trkpt lat="39.19637704690915" lon="16.173366977713016"><ele>1126.0</ele><time>2026-05-02T14:42:18Z</time></trkpt><trkpt lat="39.196342147151206" lon="16.17324561410497"><ele>1126.0</ele><time>2026-05-02T14:42:19Z</time></trkpt><trkpt lat="39.19631237228274" lon="16.17313522316472"><ele>1127.6</ele><time>2026-05-02T14:42:20Z</time></trkpt><trkpt lat="39.196295147101374" lon="16.173039660374087"><ele>1129.1999999999998</ele><time>2026-05-02T14:42:21Z</time></trkpt><trkpt lat="39.19627473453504" lon="16.17295699611638"><ele>1130.8000000000002</ele><time>2026-05-02T14:42:22Z</time></trkpt><trkpt lat="39.196256730130735" lon="16.172788806405055"><ele>1132.4</ele><time>2026-05-02T14:42:24Z</time></trkpt><trkpt lat="39.19625074806121" lon="16.172646089105115"><ele>1134.0</ele><time>2026-05-02T14:42:25Z</time></trkpt><trkpt lat="39.19625356906844" lon="16.172501608386938"><ele>1134.0</ele><time>2026-05-02T14:42:26Z</time></trkpt><trkpt lat="39.19626924449493" lon="16.172421646785125"><ele>1134.0</ele><time>2026-05-02T14:42:27Z</time></trkpt><trkpt lat="39.196283952992" lon="16.17228838103939"><ele>1134.0</ele><time>2026-05-02T14:42:29Z</time></trkpt><trkpt lat="39.19603473151119" lon="16.17201133461311"><ele>1134.4</ele><time>2026-05-02T14:42:34Z</time></trkpt><trkpt lat="39.195954712889794" lon="16.171960832646853"><ele>1134.8000000000002</ele><time>2026-05-02T14:42:36Z</time></trkpt><trkpt lat="39.19586977915332" lon="16.17189386417859"><ele>1135.1999999999998</ele><time>2026-05-02T14:42:39Z</time></trkpt><trkpt lat="39.195769131791295" lon="16.171822158453015"><ele>1135.6</ele><time>2026-05-02T14:42:41Z</time></trkpt><trkpt lat="39.195660662012195" lon="16.171773326903143"><ele>1136.0</ele><time>2026-05-02T14:42:43Z</time></trkpt><trkpt lat="39.19557570760067" lon="16.17175508166375"><ele>1136.2857142857142</ele><time>2026-05-02T14:42:45Z</time></trkpt><trkpt lat="39.195490352275215" lon="16.17172916384581"><ele>1136.5714285714284</ele><time>2026-05-02T14:42:48Z</time></trkpt><trkpt lat="39.195431772199505" lon="16.17176139508413"><ele>1136.857142857143</ele><time>2026-05-02T14:42:53Z</time></trkpt><trkpt lat="39.195393418830896" lon="16.171832464155415"><ele>1137.142857142857</ele><time>2026-05-02T14:42:57Z</time></trkpt><trkpt lat="39.19544490104176" lon="16.171905337950328"><ele>1137.4285714285716</ele><time>2026-05-02T14:43:02Z</time></trkpt><trkpt lat="39.19545898458079" lon="16.17198969011208"><ele>1137.7142857142858</ele><time>2026-05-02T14:43:05Z</time></trkpt><trkpt lat="39.195450358445" lon="16.172076480963458"><ele>1138.0</ele><time>2026-05-02T14:43:07Z</time></trkpt><trkpt lat="39.19546167539656" lon="16.172196190963426"><ele>1138.0</ele><time>2026-05-02T14:43:10Z</time></trkpt><trkpt lat="39.1954779019645" lon="16.172276372096185"><ele>1138.0</ele><time>2026-05-02T14:43:12Z</time></trkpt><trkpt lat="39.19549525700903" lon="16.172380613856937"><ele>1138.0</ele><time>2026-05-02T14:43:15Z</time></trkpt><trkpt lat="39.19547082123481" lon="16.172473656578518"><ele>1138.0</ele><time>2026-05-02T14:43:26Z</time></trkpt><trkpt lat="39.19537921480191" lon="16.172505881959804"><ele>1138.0</ele><time>2026-05-02T14:43:28Z</time></trkpt><trkpt lat="39.19520480617187" lon="16.172567032841812"><ele>1137.5</ele><time>2026-05-02T14:43:31Z</time></trkpt><trkpt lat="39.19511730341679" lon="16.172597758349674"><ele>1137.0</ele><time>2026-05-02T14:43:32Z</time></trkpt><trkpt lat="39.19504911730186" lon="16.17262064408671"><ele>1136.5</ele><time>2026-05-02T14:43:33Z</time></trkpt><trkpt lat="39.19495593534531" lon="16.17264968781001"><ele>1136.0</ele><time>2026-05-02T14:43:35Z</time></trkpt><trkpt lat="39.19488178147244" lon="16.17268322057355"><ele>1135.5</ele><time>2026-05-02T14:43:37Z</time></trkpt><trkpt lat="39.19480082302821" lon="16.172715905121915"><ele>1135.0</ele><time>2026-05-02T14:43:39Z</time></trkpt><trkpt lat="39.1946921068669" lon="16.172751774124205"><ele>1133.4285714285716</ele><time>2026-05-02T14:43:41Z</time></trkpt><trkpt lat="39.19461871054422" lon="16.17277497955434"><ele>1131.857142857143</ele><time>2026-05-02T14:43:42Z</time></trkpt><trkpt lat="39.19455701457403" lon="16.17280666215871"><ele>1130.2857142857142</ele><time>2026-05-02T14:43:43Z</time></trkpt><trkpt lat="39.19449424976163" lon="16.172836045079745"><ele>1128.7142857142858</ele><time>2026-05-02T14:43:44Z</time></trkpt><trkpt lat="39.19443343629204" lon="16.172861689532727"><ele>1127.142857142857</ele><time>2026-05-02T14:43:45Z</time></trkpt><trkpt lat="39.19436925806194" lon="16.172890110610577"><ele>1125.5714285714287</ele><time>2026-05-02T14:43:46Z</time></trkpt><trkpt lat="39.194301297176054" lon="16.1729204718914"><ele>1124.0</ele><time>2026-05-02T14:43:47Z</time></trkpt><trkpt lat="39.194244830913206" lon="16.17295950240981"><ele>1124.0</ele><time>2026-05-02T14:43:48Z</time></trkpt><trkpt lat="39.19417666034283" lon="16.17303433206582"><ele>1124.0</ele><time>2026-05-02T14:43:50Z</time></trkpt><trkpt lat="39.19410883251545" lon="16.173186417584116"><ele>1124.0</ele><time>2026-05-02T14:43:52Z</time></trkpt><trkpt lat="39.19406082589858" lon="16.173267752113542"><ele>1124.0</ele><time>2026-05-02T14:43:53Z</time></trkpt><trkpt lat="39.19395294672277" lon="16.173343603010835"><ele>1124.0</ele><time>2026-05-02T14:43:55Z</time></trkpt><trkpt lat="39.19383487222989" lon="16.17333070271132"><ele>1122.0</ele><time>2026-05-02T14:43:57Z</time></trkpt><trkpt lat="39.19372174988209" lon="16.173286926487798"><ele>1120.0</ele><time>2026-05-02T14:43:59Z</time></trkpt><trkpt lat="39.19360576057592" lon="16.173256926300944"><ele>1118.0</ele><time>2026-05-02T14:44:01Z</time></trkpt><trkpt lat="39.19354110375286" lon="16.173228631634686"><ele>1116.0</ele><time>2026-05-02T14:44:02Z</time></trkpt><trkpt lat="39.193472232707805" lon="16.17320350573845"><ele>1114.0</ele><time>2026-05-02T14:44:03Z</time></trkpt><trkpt lat="39.19338563166197" lon="16.173209073849538"><ele>1114.0</ele><time>2026-05-02T14:44:04Z</time></trkpt><trkpt lat="39.193292249155455" lon="16.173230257706784"><ele>1114.0</ele><time>2026-05-02T14:44:05Z</time></trkpt><trkpt lat="39.19321448708738" lon="16.173237810112592"><ele>1114.0</ele><time>2026-05-02T14:44:06Z</time></trkpt><trkpt lat="39.19314880975074" lon="16.17323289728082"><ele>1114.0</ele><time>2026-05-02T14:44:07Z</time></trkpt><trkpt lat="39.19305231977356" lon="16.17321491986338"><ele>1114.0</ele><time>2026-05-02T14:44:09Z</time></trkpt><trkpt lat="39.19295148521254" lon="16.173165459110244"><ele>1114.0</ele><time>2026-05-02T14:44:11Z</time></trkpt><trkpt lat="39.1928839852835" lon="16.173138585453504"><ele>1109.8</ele><time>2026-05-02T14:44:12Z</time></trkpt><trkpt lat="39.19281223856798" lon="16.17312863044278"><ele>1105.6000000000001</ele><time>2026-05-02T14:44:13Z</time></trkpt><trkpt lat="39.192745148081194" lon="16.17313777203494"><ele>1101.4</ele><time>2026-05-02T14:44:14Z</time></trkpt><trkpt lat="39.19263299807837" lon="16.173129920353173"><ele>1097.2</ele><time>2026-05-02T14:44:16Z</time></trkpt><trkpt lat="39.19252453619073" lon="16.173129062840847"><ele>1093.0</ele><time>2026-05-02T14:44:18Z</time></trkpt><trkpt lat="39.1924196547263" lon="16.173171794391312"><ele>1092.8333333333333</ele><time>2026-05-02T14:44:20Z</time></trkpt><trkpt lat="39.19236652443228" lon="16.173251487647153"><ele>1092.6666666666665</ele><time>2026-05-02T14:44:22Z</time></trkpt><trkpt lat="39.19231901424918" lon="16.173331915487246"><ele>1092.5</ele><time>2026-05-02T14:44:24Z</time></trkpt><trkpt lat="39.19228063120426" lon="16.173447543863237"><ele>1092.3333333333333</ele><time>2026-05-02T14:44:26Z</time></trkpt><trkpt lat="39.19223132823945" lon="16.17353831044446"><ele>1092.1666666666667</ele><time>2026-05-02T14:44:28Z</time></trkpt><trkpt lat="39.19223788917459" lon="16.17363686144539"><ele>1092.0</ele><time>2026-05-02T14:44:30Z</time></trkpt><trkpt lat="39.192267426757084" lon="16.173731731083393"><ele>1094.8333333333333</ele><time>2026-05-02T14:44:32Z</time></trkpt><trkpt lat="39.19235446127609" lon="16.173776570453597"><ele>1097.6666666666667</ele><time>2026-05-02T14:44:35Z</time></trkpt><trkpt lat="39.19244620296546" lon="16.17377632594846"><ele>1100.5</ele><time>2026-05-02T14:44:38Z</time></trkpt><trkpt lat="39.19252628609607" lon="16.173790571373672"><ele>1103.3333333333335</ele><time>2026-05-02T14:44:41Z</time></trkpt><trkpt lat="39.19261331564429" lon="16.173813797872782"><ele>1106.1666666666667</ele><time>2026-05-02T14:44:44Z</time></trkpt><trkpt lat="39.19269667790076" lon="16.17386910464041"><ele>1109.0</ele><time>2026-05-02T14:44:47Z</time></trkpt><trkpt lat="39.192747867860916" lon="16.173924994101963"><ele>1109.0</ele><time>2026-05-02T14:44:49Z</time></trkpt><trkpt lat="39.19277755154209" lon="16.174006264178423"><ele>1109.0</ele><time>2026-05-02T14:44:53Z</time></trkpt><trkpt lat="39.192803886028265" lon="16.174115947545182"><ele>1109.0</ele><time>2026-05-02T14:44:57Z</time></trkpt><trkpt lat="39.192823110119015" lon="16.174204995552167"><ele>1109.0</ele><time>2026-05-02T14:45:00Z</time></trkpt><trkpt lat="39.19285780071376" lon="16.174321196440058"><ele>1109.0</ele><time>2026-05-02T14:45:03Z</time></trkpt><trkpt lat="39.19289299813371" lon="16.174398101982767"><ele>1109.0</ele><time>2026-05-02T14:45:06Z</time></trkpt><trkpt lat="39.19294003060641" lon="16.174500750017764"><ele>1108.8333333333335</ele><time>2026-05-02T14:45:09Z</time></trkpt><trkpt lat="39.19296368244711" lon="16.174577165069845"><ele>1108.6666666666667</ele><time>2026-05-02T14:45:11Z</time></trkpt><trkpt lat="39.19299279046971" lon="16.174663796068078"><ele>1108.5</ele><time>2026-05-02T14:45:14Z</time></trkpt><trkpt lat="39.19305391128981" lon="16.174742240998377"><ele>1108.3333333333333</ele><time>2026-05-02T14:45:17Z</time></trkpt><trkpt lat="39.193135913812576" lon="16.17481594798792"><ele>1108.1666666666665</ele><time>2026-05-02T14:45:20Z</time></trkpt><trkpt lat="39.19320253256917" lon="16.174840794903883"><ele>1108.0</ele><time>2026-05-02T14:45:23Z</time></trkpt><trkpt lat="39.19327448481089" lon="16.174888289459478"><ele>1105.5714285714284</ele><time>2026-05-02T14:45:26Z</time></trkpt><trkpt lat="39.19328636795872" lon="16.174977421087373"><ele>1103.142857142857</ele><time>2026-05-02T14:45:30Z</time></trkpt><trkpt lat="39.19328375661966" lon="16.175069199476646"><ele>1100.7142857142858</ele><time>2026-05-02T14:45:49Z</time></trkpt><trkpt lat="39.19328180809247" lon="16.175161938934707"><ele>1098.2857142857142</ele><time>2026-05-02T14:45:53Z</time></trkpt><trkpt lat="39.19330478756275" lon="16.175246760452854"><ele>1095.857142857143</ele><time>2026-05-02T14:52:56Z</time></trkpt><trkpt lat="39.19328331422487" lon="16.175157062001645"><ele>1093.4285714285713</ele><time>2026-05-02T14:53:08Z</time></trkpt><trkpt lat="39.19329843577689" lon="16.175064971145186"><ele>1091.0</ele><time>2026-05-02T14:55:23Z</time></trkpt><trkpt lat="39.193293344105314" lon="16.174972251502588"><ele>1091.0</ele><time>2026-05-02T15:05:39.999Z</time></trkpt><trkpt lat="39.19327700173302" lon="16.17488723586025"><ele>1091.0</ele><time>2026-05-02T15:05:45.999Z</time></trkpt><trkpt lat="39.19320476055179" lon="16.174845504646296"><ele>1091.0</ele><time>2026-05-02T15:05:47.999Z</time></trkpt><trkpt lat="39.19311537080056" lon="16.174807282076227"><ele>1091.0</ele><time>2026-05-02T15:05:50Z</time></trkpt><trkpt lat="39.19305296680626" lon="16.174734610900725"><ele>1091.0</ele><time>2026-05-02T15:05:52Z</time></trkpt><trkpt lat="39.19299399258068" lon="16.174640325440663"><ele>1091.0</ele><time>2026-05-02T15:05:54Z</time></trkpt><trkpt lat="39.19296110503912" lon="16.17453238421608"><ele>1091.8</ele><time>2026-05-02T15:05:56Z</time></trkpt><trkpt lat="39.19291672191629" lon="16.174418438985175"><ele>1092.6</ele><time>2026-05-02T15:05:58Z</time></trkpt><trkpt lat="39.19286031095236" lon="16.17433591214797"><ele>1093.4</ele><time>2026-05-02T15:06:00Z</time></trkpt><trkpt lat="39.19281411429242" lon="16.17423373088748"><ele>1094.2</ele><time>2026-05-02T15:06:03Z</time></trkpt><trkpt lat="39.19278292266022" lon="16.17410952906463"><ele>1095.0</ele><time>2026-05-02T15:06:05Z</time></trkpt><trkpt lat="39.19273712632529" lon="16.174003682334874"><ele>1094.4</ele><time>2026-05-02T15:06:07Z</time></trkpt><trkpt lat="39.19266696554305" lon="16.173876003835332"><ele>1093.8</ele><time>2026-05-02T15:06:09Z</time></trkpt><trkpt lat="39.19260159304312" lon="16.17382593351073"><ele>1093.2</ele><time>2026-05-02T15:06:11Z</time></trkpt><trkpt lat="39.19253220530003" lon="16.173821664581762"><ele>1092.6</ele><time>2026-05-02T15:06:13Z</time></trkpt><trkpt lat="39.19240815945701" lon="16.173813591654216"><ele>1092.0</ele><time>2026-05-02T15:06:15Z</time></trkpt><trkpt lat="39.19229345614624" lon="16.173808305259904"><ele>1092.0</ele><time>2026-05-02T15:06:17Z</time></trkpt><trkpt lat="39.192246814396775" lon="16.17373724027408"><ele>1092.0</ele><time>2026-05-02T15:06:19Z</time></trkpt><trkpt lat="39.19223005758061" lon="16.173632695662665"><ele>1092.0</ele><time>2026-05-02T15:06:21Z</time></trkpt><trkpt lat="39.19223502975052" lon="16.173543245247625"><ele>1092.0</ele><time>2026-05-02T15:06:22Z</time></trkpt><trkpt lat="39.192261267712546" lon="16.173457483009205"><ele>1092.0</ele><time>2026-05-02T15:06:23Z</time></trkpt><trkpt lat="39.19231100551349" lon="16.173380285158597"><ele>1092.0</ele><time>2026-05-02T15:06:24Z</time></trkpt><trkpt lat="39.192356558017124" lon="16.173313479199898"><ele>1092.0</ele><time>2026-05-02T15:06:25Z</time></trkpt><trkpt lat="39.19241659605768" lon="16.17319303372624"><ele>1092.1666666666667</ele><time>2026-05-02T15:06:27Z</time></trkpt><trkpt lat="39.19247850929441" lon="16.173171274021556"><ele>1092.3333333333333</ele><time>2026-05-02T15:06:29Z</time></trkpt><trkpt lat="39.19254190255495" lon="16.173163845905265"><ele>1092.5</ele><time>2026-05-02T15:06:30Z</time></trkpt><trkpt lat="39.1926307310169" lon="16.173153277872597"><ele>1092.6666666666665</ele><time>2026-05-02T15:06:31Z</time></trkpt><trkpt lat="39.19271556319432" lon="16.173154625741976"><ele>1092.8333333333333</ele><time>2026-05-02T15:06:32Z</time></trkpt><trkpt lat="39.19280291692539" lon="16.173165519434807"><ele>1093.0</ele><time>2026-05-02T15:06:33Z</time></trkpt><trkpt lat="39.19289270576149" lon="16.173179687060884"><ele>1093.0</ele><time>2026-05-02T15:06:34Z</time></trkpt><trkpt lat="39.1929621549819" lon="16.173186075007155"><ele>1093.0</ele><time>2026-05-02T15:06:35Z</time></trkpt><trkpt lat="39.193063900146356" lon="16.17325119581205"><ele>1093.0</ele><time>2026-05-02T15:06:37Z</time></trkpt><trkpt lat="39.193154252697" lon="16.17325685767532"><ele>1093.0</ele><time>2026-05-02T15:06:39Z</time></trkpt><trkpt lat="39.19321952916315" lon="16.17325033559503"><ele>1093.0</ele><time>2026-05-02T15:06:40Z</time></trkpt><trkpt lat="39.193291759331096" lon="16.173259515389848"><ele>1093.0</ele><time>2026-05-02T15:06:41Z</time></trkpt><trkpt lat="39.19336514203862" lon="16.173264076703926"><ele>1096.5</ele><time>2026-05-02T15:06:42Z</time></trkpt><trkpt lat="39.193443686259144" lon="16.17324790360211"><ele>1100.0</ele><time>2026-05-02T15:06:43Z</time></trkpt><trkpt lat="39.19355858779117" lon="16.173242923089546"><ele>1103.5</ele><time>2026-05-02T15:06:45Z</time></trkpt><trkpt lat="39.19362846736767" lon="16.17326631817374"><ele>1107.0</ele><time>2026-05-02T15:06:46Z</time></trkpt><trkpt lat="39.19370155331072" lon="16.17329925609943"><ele>1110.5</ele><time>2026-05-02T15:06:47Z</time></trkpt><trkpt lat="39.19376849066268" lon="16.17332300529619"><ele>1114.0</ele><time>2026-05-02T15:06:48Z</time></trkpt><trkpt lat="39.19384274648954" lon="16.1733190893528"><ele>1114.0</ele><time>2026-05-02T15:06:49Z</time></trkpt><trkpt lat="39.19391285162505" lon="16.173319262107697"><ele>1114.0</ele><time>2026-05-02T15:06:50Z</time></trkpt><trkpt lat="39.1939772152922" lon="16.173321653598162"><ele>1114.0</ele><time>2026-05-02T15:06:51Z</time></trkpt><trkpt lat="39.194059183839286" lon="16.17325821172117"><ele>1114.0</ele><time>2026-05-02T15:06:53Z</time></trkpt><trkpt lat="39.19414173019893" lon="16.1731565113558"><ele>1114.0</ele><time>2026-05-02T15:06:55Z</time></trkpt><trkpt lat="39.1941853368454" lon="16.17308371516317"><ele>1114.0</ele><time>2026-05-02T15:06:56Z</time></trkpt><trkpt lat="39.1942262816116" lon="16.173010804224266"><ele>1115.6666666666665</ele><time>2026-05-02T15:06:57Z</time></trkpt><trkpt lat="39.19429917680231" lon="16.172943509655205"><ele>1117.3333333333333</ele><time>2026-05-02T15:06:59Z</time></trkpt><trkpt lat="39.19440674252823" lon="16.172919473132485"><ele>1119.0</ele><time>2026-05-02T15:07:01Z</time></trkpt><trkpt lat="39.194472606088745" lon="16.172896732429315"><ele>1120.6666666666667</ele><time>2026-05-02T15:07:02Z</time></trkpt><trkpt lat="39.19453544876093" lon="16.17285948495694"><ele>1122.3333333333335</ele><time>2026-05-02T15:07:03Z</time></trkpt><trkpt lat="39.19460441239262" lon="16.17282973200957"><ele>1124.0</ele><time>2026-05-02T15:07:04Z</time></trkpt><trkpt lat="39.19467763040076" lon="16.172802784198627"><ele>1124.0</ele><time>2026-05-02T15:07:05Z</time></trkpt><trkpt lat="39.1947615152227" lon="16.172771502436262"><ele>1124.0</ele><time>2026-05-02T15:07:06Z</time></trkpt><trkpt lat="39.19485446785684" lon="16.172734399762618"><ele>1124.0</ele><time>2026-05-02T15:07:07Z</time></trkpt><trkpt lat="39.19494930376551" lon="16.172696201511652"><ele>1124.0</ele><time>2026-05-02T15:07:08Z</time></trkpt><trkpt lat="39.19504566083193" lon="16.172666889200258"><ele>1124.0</ele><time>2026-05-02T15:07:09Z</time></trkpt><trkpt lat="39.19513476767187" lon="16.17263127538178"><ele>1125.8333333333335</ele><time>2026-05-02T15:07:10Z</time></trkpt><trkpt lat="39.19521765205954" lon="16.172600691441282"><ele>1127.6666666666667</ele><time>2026-05-02T15:07:11Z</time></trkpt><trkpt lat="39.195295973420144" lon="16.17257498333137"><ele>1129.5</ele><time>2026-05-02T15:07:12Z</time></trkpt><trkpt lat="39.19537871164034" lon="16.17254566983587"><ele>1131.3333333333333</ele><time>2026-05-02T15:07:13Z</time></trkpt><trkpt lat="39.19546143445629" lon="16.17250476934071"><ele>1133.1666666666665</ele><time>2026-05-02T15:07:14Z</time></trkpt><trkpt lat="39.19553581695307" lon="16.172455733462158"><ele>1135.0</ele><time>2026-05-02T15:07:15Z</time></trkpt><trkpt lat="39.19560891731441" lon="16.172416455142027"><ele>1134.8333333333333</ele><time>2026-05-02T15:07:16Z</time></trkpt><trkpt lat="39.1956891406699" lon="16.172393748873223"><ele>1134.6666666666665</ele><time>2026-05-02T15:07:17Z</time></trkpt><trkpt lat="39.19575948352146" lon="16.172386307657327"><ele>1134.5</ele><time>2026-05-02T15:07:18Z</time></trkpt><trkpt lat="39.1958504612621" lon="16.172297670946023"><ele>1134.3333333333333</ele><time>2026-05-02T15:07:20Z</time></trkpt><trkpt lat="39.195898910633744" lon="16.17222154211395"><ele>1134.1666666666667</ele><time>2026-05-02T15:07:21Z</time></trkpt><trkpt lat="39.195940244741436" lon="16.172131741882982"><ele>1134.0</ele><time>2026-05-02T15:07:22Z</time></trkpt><trkpt lat="39.19595124542133" lon="16.172043361627225"><ele>1134.0</ele><time>2026-05-02T15:07:23Z</time></trkpt><trkpt lat="39.196000887049145" lon="16.171990334391122"><ele>1134.0</ele><time>2026-05-02T15:07:26Z</time></trkpt><trkpt lat="39.19606490121473" lon="16.17206923171859"><ele>1134.0</ele><time>2026-05-02T15:07:28Z</time></trkpt><trkpt lat="39.19608619590832" lon="16.172154818210963"><ele>1134.0</ele><time>2026-05-02T15:07:29Z</time></trkpt><trkpt lat="39.19609245258588" lon="16.172248251405264"><ele>1134.0</ele><time>2026-05-02T15:07:30Z</time></trkpt><trkpt lat="39.19609692837314" lon="16.172403198351837"><ele>1134.0</ele><time>2026-05-02T15:07:32Z</time></trkpt><trkpt lat="39.19614441190063" lon="16.172553436021417"><ele>1134.0</ele><time>2026-05-02T15:07:34Z</time></trkpt><trkpt lat="39.19618416737456" lon="16.172616468985556"><ele>1134.0</ele><time>2026-05-02T15:07:35Z</time></trkpt><trkpt lat="39.19622415627907" lon="16.172770688968846"><ele>1134.0</ele><time>2026-05-02T15:07:37Z</time></trkpt><trkpt lat="39.19622902557215" lon="16.17286366251437"><ele>1134.0</ele><time>2026-05-02T15:07:38Z</time></trkpt><trkpt lat="39.19624234734886" lon="16.172973347906908"><ele>1134.0</ele><time>2026-05-02T15:07:38.999Z</time></trkpt><trkpt lat="39.19626567768374" lon="16.173088563080928"><ele>1134.0</ele><time>2026-05-02T15:07:39.999Z</time></trkpt><trkpt lat="39.19629275296908" lon="16.173207940432125"><ele>1132.4</ele><time>2026-05-02T15:07:40.999Z</time></trkpt><trkpt lat="39.1963200138711" lon="16.17332749709271"><ele>1130.8000000000002</ele><time>2026-05-02T15:07:41.999Z</time></trkpt><trkpt lat="39.19635027911943" lon="16.173453703902673"><ele>1129.1999999999998</ele><time>2026-05-02T15:07:42.999Z</time></trkpt><trkpt lat="39.19637944335999" lon="16.173594908663613"><ele>1127.6</ele><time>2026-05-02T15:07:43.999Z</time></trkpt><trkpt lat="39.19638224249426" lon="16.173723575718718"><ele>1126.0</ele><time>2026-05-02T15:07:44.999Z</time></trkpt><trkpt lat="39.19639535092798" lon="16.173854782006728"><ele>1126.0</ele><time>2026-05-02T15:07:45.999Z</time></trkpt><trkpt lat="39.19636117869003" lon="16.17399398185272"><ele>1126.0</ele><time>2026-05-02T15:07:46.999Z</time></trkpt><trkpt lat="39.196297711166125" lon="16.174125632395587"><ele>1126.0</ele><time>2026-05-02T15:07:47.999Z</time></trkpt><trkpt lat="39.19628180808845" lon="16.17424544420934"><ele>1126.0</ele><time>2026-05-02T15:07:48.999Z</time></trkpt><trkpt lat="39.196276239441424" lon="16.174374986711594"><ele>1126.0</ele><time>2026-05-02T15:07:49.999Z</time></trkpt><trkpt lat="39.19631953710148" lon="16.17447740950836"><ele>1126.0</ele><time>2026-05-02T15:07:50.999Z</time></trkpt><trkpt lat="39.1963142166453" lon="16.17457451782582"><ele>1126.0</ele><time>2026-05-02T15:07:51.999Z</time></trkpt><trkpt lat="39.19632559344389" lon="16.174670406660674"><ele>1126.0</ele><time>2026-05-02T15:07:52.999Z</time></trkpt><trkpt lat="39.19630863039853" lon="16.174772808870216"><ele>1126.0</ele><time>2026-05-02T15:07:54Z</time></trkpt><trkpt lat="39.19629635927213" lon="16.17488881724255"><ele>1126.0</ele><time>2026-05-02T15:07:55Z</time></trkpt><trkpt lat="39.196279008486925" lon="16.17501030460636"><ele>1126.0</ele><time>2026-05-02T15:07:56Z</time></trkpt><trkpt lat="39.1962578700435" lon="16.175120719193384"><ele>1126.0</ele><time>2026-05-02T15:07:57Z</time></trkpt><trkpt lat="39.196235574648945" lon="16.17525214566657"><ele>1126.0</ele><time>2026-05-02T15:07:58Z</time></trkpt><trkpt lat="39.19622192437704" lon="16.175375738050874"><ele>1126.0</ele><time>2026-05-02T15:07:59Z</time></trkpt><trkpt lat="39.196215893349404" lon="16.17548517056466"><ele>1126.0</ele><time>2026-05-02T15:08:00Z</time></trkpt><trkpt lat="39.19622400255558" lon="16.17559499719042"><ele>1126.0</ele><time>2026-05-02T15:08:01Z</time></trkpt><trkpt lat="39.19625195454379" lon="16.175715827710427"><ele>1126.0</ele><time>2026-05-02T15:08:02Z</time></trkpt><trkpt lat="39.19628731467521" lon="16.175836427537558"><ele>1126.0</ele><time>2026-05-02T15:08:03Z</time></trkpt><trkpt lat="39.196327454602816" lon="16.175965234207993"><ele>1126.0</ele><time>2026-05-02T15:08:04Z</time></trkpt><trkpt lat="39.19637140096031" lon="16.176095074179486"><ele>1126.0</ele><time>2026-05-02T15:08:05Z</time></trkpt><trkpt lat="39.19642129758234" lon="16.176230787598804"><ele>1126.0</ele><time>2026-05-02T15:08:06Z</time></trkpt><trkpt lat="39.196475898617585" lon="16.176366065685457"><ele>1127.25</ele><time>2026-05-02T15:08:07Z</time></trkpt><trkpt lat="39.196537454538216" lon="16.176495063572993"><ele>1128.5</ele><time>2026-05-02T15:08:08Z</time></trkpt><trkpt lat="39.19656247604321" lon="16.176646001097122"><ele>1129.75</ele><time>2026-05-02T15:08:09Z</time></trkpt><trkpt lat="39.19660201297368" lon="16.17679162598126"><ele>1131.0</ele><time>2026-05-02T15:08:10Z</time></trkpt><trkpt lat="39.19662782651424" lon="16.17693689387218"><ele>1131.0</ele><time>2026-05-02T15:08:11Z</time></trkpt><trkpt lat="39.19665123685637" lon="16.177081314373897"><ele>1131.0</ele><time>2026-05-02T15:08:12Z</time></trkpt><trkpt lat="39.19666907259361" lon="16.177209265976284"><ele>1131.0</ele><time>2026-05-02T15:08:13Z</time></trkpt><trkpt lat="39.19668027226607" lon="16.177329294669633"><ele>1131.0</ele><time>2026-05-02T15:08:14Z</time></trkpt><trkpt lat="39.19670163423244" lon="16.177434169810255"><ele>1131.0</ele><time>2026-05-02T15:08:15Z</time></trkpt><trkpt lat="39.19673351608681" lon="16.177527850845866"><ele>1130.3333333333333</ele><time>2026-05-02T15:08:16Z</time></trkpt><trkpt lat="39.19674452798975" lon="16.1776182264336"><ele>1129.6666666666667</ele><time>2026-05-02T15:08:17Z</time></trkpt><trkpt lat="39.196759163452484" lon="16.177703835356713"><ele>1129.0</ele><time>2026-05-02T15:08:18Z</time></trkpt><trkpt lat="39.19679117155997" lon="16.177859684590686"><ele>1128.3333333333335</ele><time>2026-05-02T15:08:20Z</time></trkpt><trkpt lat="39.196800091269616" lon="16.17795186124461"><ele>1127.6666666666667</ele><time>2026-05-02T15:08:21Z</time></trkpt><trkpt lat="39.19680933285455" lon="16.178047103650922"><ele>1127.0</ele><time>2026-05-02T15:08:22Z</time></trkpt><trkpt lat="39.19681634603775" lon="16.1781438698487"><ele>1126.0</ele><time>2026-05-02T15:08:23Z</time></trkpt><trkpt lat="39.19681578606743" lon="16.178248473934193"><ele>1125.0</ele><time>2026-05-02T15:08:24Z</time></trkpt><trkpt lat="39.19682516454369" lon="16.178357647678748"><ele>1124.0</ele><time>2026-05-02T15:08:25Z</time></trkpt><trkpt lat="39.19684887513673" lon="16.178472186870756"><ele>1123.0</ele><time>2026-05-02T15:08:26Z</time></trkpt><trkpt lat="39.19687127420199" lon="16.17859643457009"><ele>1122.0</ele><time>2026-05-02T15:08:27Z</time></trkpt><trkpt lat="39.19689190534419" lon="16.17870340827518"><ele>1121.0</ele><time>2026-05-02T15:08:28Z</time></trkpt><trkpt lat="39.19689415461261" lon="16.178818470856406"><ele>1121.0</ele><time>2026-05-02T15:08:29Z</time></trkpt><trkpt lat="39.19685341940306" lon="16.178921066028057"><ele>1121.0</ele><time>2026-05-02T15:08:30Z</time></trkpt><trkpt lat="39.19681573860314" lon="16.17900287925602"><ele>1121.0</ele><time>2026-05-02T15:08:31Z</time></trkpt><trkpt lat="39.19677488491206" lon="16.179095676902012"><ele>1121.0</ele><time>2026-05-02T15:08:32Z</time></trkpt><trkpt lat="39.19673021697892" lon="16.179195045616403"><ele>1121.0</ele><time>2026-05-02T15:08:33Z</time></trkpt><trkpt lat="39.19668384041012" lon="16.17929740506639"><ele>1121.0</ele><time>2026-05-02T15:08:34Z</time></trkpt><trkpt lat="39.19663728793997" lon="16.179407026603382"><ele>1121.6</ele><time>2026-05-02T15:08:35Z</time></trkpt><trkpt lat="39.19659111884479" lon="16.179521933665303"><ele>1122.1999999999998</ele><time>2026-05-02T15:08:36Z</time></trkpt><trkpt lat="39.19655539297312" lon="16.17965188447943"><ele>1122.8000000000002</ele><time>2026-05-02T15:08:37Z</time></trkpt><trkpt lat="39.19649454183756" lon="16.1797789580875"><ele>1123.4</ele><time>2026-05-02T15:08:38Z</time></trkpt><trkpt lat="39.196438233863375" lon="16.17989951903643"><ele>1124.0</ele><time>2026-05-02T15:08:39Z</time></trkpt><trkpt lat="39.196379225885416" lon="16.180006075619772"><ele>1122.4</ele><time>2026-05-02T15:08:40Z</time></trkpt><trkpt lat="39.19632603384697" lon="16.180107642547522"><ele>1120.8000000000002</ele><time>2026-05-02T15:08:41Z</time></trkpt><trkpt lat="39.19628019441021" lon="16.180206081787652"><ele>1119.1999999999998</ele><time>2026-05-02T15:08:42Z</time></trkpt><trkpt lat="39.19623948179828" lon="16.180312725790664"><ele>1117.6</ele><time>2026-05-02T15:08:43Z</time></trkpt><trkpt lat="39.196205866512145" lon="16.1804282024943"><ele>1116.0</ele><time>2026-05-02T15:08:44Z</time></trkpt><trkpt lat="39.196174290999146" lon="16.1805473605835"><ele>1116.0</ele><time>2026-05-02T15:08:45Z</time></trkpt><trkpt lat="39.19615443930828" lon="16.180666701081297"><ele>1116.0</ele><time>2026-05-02T15:08:46Z</time></trkpt><trkpt lat="39.19612431689252" lon="16.180772791265426"><ele>1116.0</ele><time>2026-05-02T15:08:47Z</time></trkpt><trkpt lat="39.196083719658375" lon="16.18087028306726"><ele>1116.0</ele><time>2026-05-02T15:08:48Z</time></trkpt><trkpt lat="39.196059182747916" lon="16.180960824176058"><ele>1116.0</ele><time>2026-05-02T15:08:49Z</time></trkpt><trkpt lat="39.196019449019616" lon="16.181064954635676"><ele>1116.0</ele><time>2026-05-02T15:08:50Z</time></trkpt><trkpt lat="39.19599975139186" lon="16.181164857362738"><ele>1116.1666666666667</ele><time>2026-05-02T15:08:51Z</time></trkpt><trkpt lat="39.195980822660594" lon="16.18126275166197"><ele>1116.3333333333333</ele><time>2026-05-02T15:08:52Z</time></trkpt><trkpt lat="39.19597146733362" lon="16.18136778973232"><ele>1116.5</ele><time>2026-05-02T15:08:53Z</time></trkpt><trkpt lat="39.195965131919415" lon="16.181472851790698"><ele>1116.6666666666665</ele><time>2026-05-02T15:08:54Z</time></trkpt><trkpt lat="39.19597008739879" lon="16.181575111021395"><ele>1116.8333333333333</ele><time>2026-05-02T15:08:55Z</time></trkpt><trkpt lat="39.19597174372156" lon="16.18167463970377"><ele>1117.0</ele><time>2026-05-02T15:08:56Z</time></trkpt><trkpt lat="39.19597229596796" lon="16.181774387796885"><ele>1116.2857142857144</ele><time>2026-05-02T15:08:57Z</time></trkpt><trkpt lat="39.195973253514595" lon="16.181872347344694"><ele>1115.5714285714287</ele><time>2026-05-02T15:08:58Z</time></trkpt><trkpt lat="39.19597798045963" lon="16.181968573589845"><ele>1114.857142857143</ele><time>2026-05-02T15:08:59Z</time></trkpt><trkpt lat="39.19598403821457" lon="16.182064101543443"><ele>1114.1428571428573</ele><time>2026-05-02T15:09:00Z</time></trkpt><trkpt lat="39.19598764056137" lon="16.182156205697908"><ele>1113.4285714285716</ele><time>2026-05-02T15:09:01Z</time></trkpt><trkpt lat="39.19597507863465" lon="16.182244511190806"><ele>1112.7142857142858</ele><time>2026-05-02T15:09:02Z</time></trkpt><trkpt lat="39.19597338153866" lon="16.182326238567654"><ele>1112.0</ele><time>2026-05-02T15:09:03Z</time></trkpt><trkpt lat="39.19598291519615" lon="16.18240971528442"><ele>1111.6666666666667</ele><time>2026-05-02T15:09:04Z</time></trkpt><trkpt lat="39.19596608132846" lon="16.182498930172862"><ele>1111.3333333333335</ele><time>2026-05-02T15:09:05Z</time></trkpt><trkpt lat="39.19594233359811" lon="16.182592791548572"><ele>1111.0</ele><time>2026-05-02T15:09:06Z</time></trkpt><trkpt lat="39.19591897013795" lon="16.18269355321565"><ele>1110.6666666666667</ele><time>2026-05-02T15:09:07Z</time></trkpt><trkpt lat="39.1958903329547" lon="16.182801114779963"><ele>1110.3333333333333</ele><time>2026-05-02T15:09:08Z</time></trkpt><trkpt lat="39.195856078331595" lon="16.182913666083753"><ele>1110.0</ele><time>2026-05-02T15:09:09Z</time></trkpt><trkpt lat="39.19581971038875" lon="16.183021456551618"><ele>1110.0</ele><time>2026-05-02T15:09:10Z</time></trkpt><trkpt lat="39.195779264952314" lon="16.183104278693836"><ele>1110.0</ele><time>2026-05-02T15:09:11Z</time></trkpt><trkpt lat="39.19573353103022" lon="16.18316951566797"><ele>1110.0</ele><time>2026-05-02T15:09:12Z</time></trkpt><trkpt lat="39.19567523392704" lon="16.183219246557325"><ele>1110.0</ele><time>2026-05-02T15:09:13Z</time></trkpt><trkpt lat="39.19560920672852" lon="16.183271272139656"><ele>1110.0</ele><time>2026-05-02T15:09:14Z</time></trkpt><trkpt lat="39.19554002618242" lon="16.18332950882386"><ele>1110.0</ele><time>2026-05-02T15:09:15Z</time></trkpt><trkpt lat="39.19546754979962" lon="16.183399018180385"><ele>1108.6</ele><time>2026-05-02T15:09:16Z</time></trkpt><trkpt lat="39.19538730371497" lon="16.183467092225165"><ele>1107.2</ele><time>2026-05-02T15:09:17Z</time></trkpt><trkpt lat="39.19530220407278" lon="16.18352746523796"><ele>1105.8</ele><time>2026-05-02T15:09:18Z</time></trkpt><trkpt lat="39.1952239395629" lon="16.183606546991022"><ele>1104.4</ele><time>2026-05-02T15:09:19Z</time></trkpt><trkpt lat="39.19515282159154" lon="16.183694673692216"><ele>1103.0</ele><time>2026-05-02T15:09:20Z</time></trkpt><trkpt lat="39.195068271196895" lon="16.18376254617911"><ele>1103.0</ele><time>2026-05-02T15:09:21Z</time></trkpt><trkpt lat="39.194998603911465" lon="16.183856851282826"><ele>1103.0</ele><time>2026-05-02T15:09:22Z</time></trkpt><trkpt lat="39.19491282894295" lon="16.18393132426013"><ele>1103.0</ele><time>2026-05-02T15:09:23Z</time></trkpt><trkpt lat="39.19481761246235" lon="16.18398878122205"><ele>1103.0</ele><time>2026-05-02T15:09:24Z</time></trkpt><trkpt lat="39.194728537091436" lon="16.18406320306894"><ele>1103.0</ele><time>2026-05-02T15:09:25Z</time></trkpt><trkpt lat="39.19465010451043" lon="16.18414714112859"><ele>1102.3333333333335</ele><time>2026-05-02T15:09:26Z</time></trkpt><trkpt lat="39.19457257581658" lon="16.184206795255285"><ele>1101.6666666666667</ele><time>2026-05-02T15:09:27Z</time></trkpt><trkpt lat="39.19449654681553" lon="16.184267790091827"><ele>1101.0</ele><time>2026-05-02T15:09:28Z</time></trkpt><trkpt lat="39.194427248389204" lon="16.18433338578627"><ele>1100.3333333333333</ele><time>2026-05-02T15:09:29Z</time></trkpt><trkpt lat="39.19436625835856" lon="16.18440591546975"><ele>1099.6666666666665</ele><time>2026-05-02T15:09:30Z</time></trkpt><trkpt lat="39.19430572416147" lon="16.184491399451517"><ele>1099.0</ele><time>2026-05-02T15:09:31Z</time></trkpt><trkpt lat="39.19424261660744" lon="16.184591944699"><ele>1099.0</ele><time>2026-05-02T15:09:32Z</time></trkpt><trkpt lat="39.19417475626566" lon="16.184699535813564"><ele>1099.0</ele><time>2026-05-02T15:09:33Z</time></trkpt><trkpt lat="39.19411298062502" lon="16.184796164297033"><ele>1099.0</ele><time>2026-05-02T15:09:34Z</time></trkpt><trkpt lat="39.194061596442225" lon="16.184891214564924"><ele>1099.0</ele><time>2026-05-02T15:09:35Z</time></trkpt><trkpt lat="39.19400633056228" lon="16.18497987625879"><ele>1099.0</ele><time>2026-05-02T15:09:36Z</time></trkpt><trkpt lat="39.19393742947048" lon="16.185058627686818"><ele>1099.3333333333333</ele><time>2026-05-02T15:09:36.999Z</time></trkpt><trkpt lat="39.19386297520091" lon="16.18513683200174"><ele>1099.6666666666665</ele><time>2026-05-02T15:09:37.999Z</time></trkpt><trkpt lat="39.193785202126556" lon="16.185189645635546"><ele>1100.0</ele><time>2026-05-02T15:09:38.999Z</time></trkpt><trkpt lat="39.193706085149906" lon="16.185232835321777"><ele>1100.3333333333333</ele><time>2026-05-02T15:09:39.999Z</time></trkpt><trkpt lat="39.19362298716055" lon="16.18526712408958"><ele>1100.6666666666667</ele><time>2026-05-02T15:09:40.999Z</time></trkpt><trkpt lat="39.19353686222548" lon="16.185277392089667"><ele>1101.0</ele><time>2026-05-02T15:09:41.999Z</time></trkpt><trkpt lat="39.19344030215224" lon="16.18528172836736"><ele>1101.0</ele><time>2026-05-02T15:09:42.999Z</time></trkpt><trkpt lat="39.19334167399404" lon="16.185290773068647"><ele>1101.0</ele><time>2026-05-02T15:09:43.999Z</time></trkpt><trkpt lat="39.193237586850486" lon="16.185300654462605"><ele>1101.0</ele><time>2026-05-02T15:09:44.999Z</time></trkpt><trkpt lat="39.19313409948944" lon="16.185308647699845"><ele>1101.0</ele><time>2026-05-02T15:09:45.999Z</time></trkpt><trkpt lat="39.19302924845605" lon="16.18532104150437"><ele>1101.0</ele><time>2026-05-02T15:09:46.999Z</time></trkpt><trkpt lat="39.19293854634283" lon="16.185341517081024"><ele>1100.8333333333333</ele><time>2026-05-02T15:09:47.999Z</time></trkpt><trkpt lat="39.19285554892969" lon="16.18536062257119"><ele>1100.6666666666667</ele><time>2026-05-02T15:09:48.999Z</time></trkpt><trkpt lat="39.19278172016541" lon="16.185376672413337"><ele>1100.5</ele><time>2026-05-02T15:09:49.999Z</time></trkpt><trkpt lat="39.192705126535344" lon="16.185408835203262"><ele>1100.3333333333335</ele><time>2026-05-02T15:09:50.999Z</time></trkpt><trkpt lat="39.19262882388089" lon="16.185450968707435"><ele>1100.1666666666667</ele><time>2026-05-02T15:09:51.999Z</time></trkpt><trkpt lat="39.192561829063784" lon="16.185499795306313"><ele>1100.0</ele><time>2026-05-02T15:09:52.999Z</time></trkpt><trkpt lat="39.192497336093076" lon="16.1855425476134"><ele>1100.0</ele><time>2026-05-02T15:09:53.999Z</time></trkpt><trkpt lat="39.1924307837511" lon="16.18558015029336"><ele>1100.0</ele><time>2026-05-02T15:09:54.999Z</time></trkpt><trkpt lat="39.1923644455455" lon="16.18564551091245"><ele>1100.0</ele><time>2026-05-02T15:09:55.999Z</time></trkpt><trkpt lat="39.192306069267666" lon="16.185731410374995"><ele>1100.0</ele><time>2026-05-02T15:09:56.999Z</time></trkpt><trkpt lat="39.19224586578791" lon="16.18582981597301"><ele>1100.0</ele><time>2026-05-02T15:09:57.999Z</time></trkpt><trkpt lat="39.192187395936145" lon="16.18593122452435"><ele>1100.0</ele><time>2026-05-02T15:09:58.999Z</time></trkpt><trkpt lat="39.19213993041073" lon="16.18602576657696"><ele>1099.8333333333335</ele><time>2026-05-02T15:10:00Z</time></trkpt><trkpt lat="39.19209406078846" lon="16.186108281179354"><ele>1099.6666666666667</ele><time>2026-05-02T15:10:01Z</time></trkpt><trkpt lat="39.19204099724774" lon="16.186175693151785"><ele>1099.5</ele><time>2026-05-02T15:10:02Z</time></trkpt><trkpt lat="39.191982375988005" lon="16.186241448672423"><ele>1099.3333333333333</ele><time>2026-05-02T15:10:03Z</time></trkpt><trkpt lat="39.19192121612054" lon="16.186311620664387"><ele>1099.1666666666665</ele><time>2026-05-02T15:10:04Z</time></trkpt><trkpt lat="39.19185838431617" lon="16.186390291230133"><ele>1099.0</ele><time>2026-05-02T15:10:05Z</time></trkpt><trkpt lat="39.191782335452594" lon="16.186445196499864"><ele>1099.8</ele><time>2026-05-02T15:10:06Z</time></trkpt><trkpt lat="39.19170890165139" lon="16.18651288271356"><ele>1100.6000000000001</ele><time>2026-05-02T15:10:07Z</time></trkpt><trkpt lat="39.19162779181969" lon="16.18657283059427"><ele>1101.4</ele><time>2026-05-02T15:10:08Z</time></trkpt><trkpt lat="39.19153262593823" lon="16.18664443441164"><ele>1102.2</ele><time>2026-05-02T15:10:09Z</time></trkpt><trkpt lat="39.191429807353316" lon="16.186686420731334"><ele>1103.0</ele><time>2026-05-02T15:10:10Z</time></trkpt><trkpt lat="39.1913300346551" lon="16.186726940405823"><ele>1103.0</ele><time>2026-05-02T15:10:11Z</time></trkpt><trkpt lat="39.19122362011502" lon="16.1867625522965"><ele>1103.0</ele><time>2026-05-02T15:10:12Z</time></trkpt><trkpt lat="39.19112241470385" lon="16.186792365219137"><ele>1103.0</ele><time>2026-05-02T15:10:13Z</time></trkpt><trkpt lat="39.19101024481397" lon="16.18681790751605"><ele>1103.0</ele><time>2026-05-02T15:10:14Z</time></trkpt><trkpt lat="39.190898160029995" lon="16.186830607817125"><ele>1103.0</ele><time>2026-05-02T15:10:15Z</time></trkpt><trkpt lat="39.190788757779984" lon="16.186877508458636"><ele>1103.0</ele><time>2026-05-02T15:10:16Z</time></trkpt><trkpt lat="39.19067810214678" lon="16.186890536233637"><ele>1103.0</ele><time>2026-05-02T15:10:17Z</time></trkpt><trkpt lat="39.19056991304679" lon="16.18691348827656"><ele>1103.0</ele><time>2026-05-02T15:10:18Z</time></trkpt><trkpt lat="39.19046748502328" lon="16.18694762115977"><ele>1103.0</ele><time>2026-05-02T15:10:19Z</time></trkpt><trkpt lat="39.190375117250596" lon="16.18698824184322"><ele>1103.0</ele><time>2026-05-02T15:10:20Z</time></trkpt><trkpt lat="39.190293165781256" lon="16.187019183021956"><ele>1102.6666666666667</ele><time>2026-05-02T15:10:21Z</time></trkpt><trkpt lat="39.190212609418715" lon="16.18704851980969"><ele>1102.3333333333335</ele><time>2026-05-02T15:10:22Z</time></trkpt><trkpt lat="39.19013526980664" lon="16.187075544728835"><ele>1102.0</ele><time>2026-05-02T15:10:23Z</time></trkpt><trkpt lat="39.190060645101546" lon="16.18710399892594"><ele>1101.6666666666667</ele><time>2026-05-02T15:10:24Z</time></trkpt><trkpt lat="39.18998632618085" lon="16.18713941876595"><ele>1101.3333333333333</ele><time>2026-05-02T15:10:25Z</time></trkpt><trkpt lat="39.189911186246434" lon="16.187181246281"><ele>1101.0</ele><time>2026-05-02T15:10:26Z</time></trkpt><trkpt lat="39.189830880027024" lon="16.187217197162564"><ele>1101.0</ele><time>2026-05-02T15:10:27Z</time></trkpt><trkpt lat="39.18975853705924" lon="16.18728425381588"><ele>1101.0</ele><time>2026-05-02T15:10:28Z</time></trkpt><trkpt lat="39.18968961919652" lon="16.187370001118094"><ele>1101.0</ele><time>2026-05-02T15:10:29Z</time></trkpt><trkpt lat="39.18961915699765" lon="16.187460906558464"><ele>1101.0</ele><time>2026-05-02T15:10:30Z</time></trkpt><trkpt lat="39.18955817411371" lon="16.187567544767067"><ele>1101.0</ele><time>2026-05-02T15:10:31Z</time></trkpt><trkpt lat="39.18948354700082" lon="16.187660857210073"><ele>1101.3999999999999</ele><time>2026-05-02T15:10:32Z</time></trkpt><trkpt lat="39.189415151829735" lon="16.187755922557805"><ele>1101.8</ele><time>2026-05-02T15:10:33Z</time></trkpt><trkpt lat="39.18933997209922" lon="16.187837026786717"><ele>1102.1999999999998</ele><time>2026-05-02T15:10:34Z</time></trkpt><trkpt lat="39.189278134589465" lon="16.1879335008313"><ele>1102.6</ele><time>2026-05-02T15:10:35Z</time></trkpt><trkpt lat="39.18922646731741" lon="16.18802796699036"><ele>1103.0</ele><time>2026-05-02T15:10:36Z</time></trkpt><trkpt lat="39.18917798189721" lon="16.188122412933616"><ele>1102.2</ele><time>2026-05-02T15:10:37Z</time></trkpt><trkpt lat="39.18913395496303" lon="16.188217121623552"><ele>1101.4</ele><time>2026-05-02T15:10:38Z</time></trkpt><trkpt lat="39.189091848401766" lon="16.188319685427757"><ele>1100.6000000000001</ele><time>2026-05-02T15:10:39Z</time></trkpt><trkpt lat="39.189065249760986" lon="16.18843516650907"><ele>1099.8</ele><time>2026-05-02T15:10:40Z</time></trkpt><trkpt lat="39.18901236987957" lon="16.188538455307615"><ele>1099.0</ele><time>2026-05-02T15:10:41Z</time></trkpt><trkpt lat="39.18896934352949" lon="16.188658739529014"><ele>1099.0</ele><time>2026-05-02T15:10:42Z</time></trkpt><trkpt lat="39.18892712930449" lon="16.188776753244426"><ele>1099.0</ele><time>2026-05-02T15:10:43Z</time></trkpt><trkpt lat="39.188886358503005" lon="16.18887722947199"><ele>1099.0</ele><time>2026-05-02T15:10:44Z</time></trkpt><trkpt lat="39.18884578129832" lon="16.18897015995492"><ele>1099.0</ele><time>2026-05-02T15:10:45Z</time></trkpt><trkpt lat="39.18880790767887" lon="16.189066073921012"><ele>1099.0</ele><time>2026-05-02T15:10:46Z</time></trkpt><trkpt lat="39.188798381158215" lon="16.18919261918695"><ele>1097.6000000000001</ele><time>2026-05-02T15:10:47Z</time></trkpt><trkpt lat="39.18876738970412" lon="16.189315011405395"><ele>1096.2</ele><time>2026-05-02T15:10:48Z</time></trkpt><trkpt lat="39.1887602314858" lon="16.189437083396246"><ele>1094.8000000000002</ele><time>2026-05-02T15:10:49Z</time></trkpt><trkpt lat="39.18875851717313" lon="16.189560956192164"><ele>1093.4</ele><time>2026-05-02T15:10:50Z</time></trkpt><trkpt lat="39.188756213183126" lon="16.189688469560497"><ele>1092.0</ele><time>2026-05-02T15:10:51Z</time></trkpt><trkpt lat="39.1887513770931" lon="16.18979683819645"><ele>1091.7142857142858</ele><time>2026-05-02T15:10:52Z</time></trkpt><trkpt lat="39.188743541323745" lon="16.18989413200304"><ele>1091.4285714285716</ele><time>2026-05-02T15:10:53Z</time></trkpt><trkpt lat="39.18873175738472" lon="16.189982794534156"><ele>1091.142857142857</ele><time>2026-05-02T15:10:54Z</time></trkpt><trkpt lat="39.18873408270861" lon="16.190068076015063"><ele>1090.857142857143</ele><time>2026-05-02T15:10:55Z</time></trkpt><trkpt lat="39.18871707064207" lon="16.1901599138546"><ele>1090.5714285714287</ele><time>2026-05-02T15:10:56Z</time></trkpt><trkpt lat="39.18868604769754" lon="16.190245731794548"><ele>1090.2857142857142</ele><time>2026-05-02T15:10:57Z</time></trkpt><trkpt lat="39.18866703451826" lon="16.190349292806165"><ele>1090.0</ele><time>2026-05-02T15:10:58Z</time></trkpt><trkpt lat="39.188648066022346" lon="16.190452610692965"><ele>1090.0</ele><time>2026-05-02T15:10:59Z</time></trkpt><trkpt lat="39.18863233490246" lon="16.190538294997314"><ele>1090.0</ele><time>2026-05-02T15:11:00Z</time></trkpt><trkpt lat="39.188598123689225" lon="16.19061879413151"><ele>1090.0</ele><time>2026-05-02T15:11:03Z</time></trkpt><trkpt lat="39.1885616757657" lon="16.190713336031024"><ele>1090.0</ele><time>2026-05-02T15:11:07Z</time></trkpt><trkpt lat="39.18823974112046" lon="16.190715033276764"><ele>1090.6666666666665</ele><time>2026-05-02T15:11:10Z</time></trkpt><trkpt lat="39.18817381293637" lon="16.19075926920732"><ele>1091.3333333333333</ele><time>2026-05-02T15:11:12Z</time></trkpt><trkpt lat="39.18809795516891" lon="16.190795048964823"><ele>1092.0</ele><time>2026-05-02T15:11:14Z</time></trkpt><trkpt lat="39.1880208609843" lon="16.190812529748683"><ele>1092.6666666666667</ele><time>2026-05-02T15:11:16Z</time></trkpt><trkpt lat="39.18810006141115" lon="16.190789769087555"><ele>1093.3333333333335</ele><time>2026-05-02T15:11:29Z</time></trkpt><trkpt lat="39.188202983014385" lon="16.190752099794715"><ele>1094.0</ele><time>2026-05-02T15:11:31Z</time></trkpt><trkpt lat="39.18830712787182" lon="16.190697795370852"><ele>1094.0</ele><time>2026-05-02T15:11:33Z</time></trkpt><trkpt lat="39.188434598647284" lon="16.19064344566828"><ele>1094.0</ele><time>2026-05-02T15:11:35Z</time></trkpt><trkpt lat="39.18850035276835" lon="16.19061817153901"><ele>1094.0</ele><time>2026-05-02T15:11:36Z</time></trkpt><trkpt lat="39.188586838965996" lon="16.190580540919488"><ele>1094.0</ele><time>2026-05-02T15:11:38Z</time></trkpt><trkpt lat="39.188632228357214" lon="16.190674381766495"><ele>1094.0</ele><time>2026-05-02T15:11:41Z</time></trkpt><trkpt lat="39.18862389947115" lon="16.190757658186413"><ele>1094.0</ele><time>2026-05-02T15:11:42Z</time></trkpt><trkpt lat="39.18860723514148" lon="16.190865427738665"><ele>1094.0</ele><time>2026-05-02T15:11:43Z</time></trkpt><trkpt lat="39.188585892213545" lon="16.190981355492976"><ele>1094.0</ele><time>2026-05-02T15:11:44Z</time></trkpt><trkpt lat="39.1885757856233" lon="16.191104267656375"><ele>1094.0</ele><time>2026-05-02T15:11:45Z</time></trkpt><trkpt lat="39.188573047745926" lon="16.19120997396841"><ele>1094.0</ele><time>2026-05-02T15:11:45.999Z</time></trkpt><trkpt lat="39.188557648069626" lon="16.191311922187612"><ele>1094.0</ele><time>2026-05-02T15:11:46.999Z</time></trkpt><trkpt lat="39.18854531988011" lon="16.191406566976404"><ele>1094.0</ele><time>2026-05-02T15:11:47.999Z</time></trkpt><trkpt lat="39.188532795735156" lon="16.191518117787968"><ele>1094.0</ele><time>2026-05-02T15:11:48.999Z</time></trkpt><trkpt lat="39.18851486746708" lon="16.19162180079016"><ele>1094.0</ele><time>2026-05-02T15:11:49.999Z</time></trkpt><trkpt lat="39.18851694499475" lon="16.191734434357347"><ele>1094.0</ele><time>2026-05-02T15:11:50.999Z</time></trkpt><trkpt lat="39.18852282992291" lon="16.19184913487076"><ele>1094.0</ele><time>2026-05-02T15:11:51.999Z</time></trkpt><trkpt lat="39.188544769204626" lon="16.19197751305427"><ele>1094.0</ele><time>2026-05-02T15:11:52.999Z</time></trkpt><trkpt lat="39.1885730168712" lon="16.192124358023268"><ele>1094.0</ele><time>2026-05-02T15:11:53.999Z</time></trkpt><trkpt lat="39.18860638173089" lon="16.1922582866614"><ele>1094.0</ele><time>2026-05-02T15:11:54.999Z</time></trkpt><trkpt lat="39.18863286338101" lon="16.192376909803123"><ele>1094.0</ele><time>2026-05-02T15:11:55.999Z</time></trkpt><trkpt lat="39.18866361102947" lon="16.192484852449684"><ele>1094.0</ele><time>2026-05-02T15:11:56.999Z</time></trkpt><trkpt lat="39.18870485009237" lon="16.192576365113062"><ele>1094.0</ele><time>2026-05-02T15:11:57.999Z</time></trkpt><trkpt lat="39.188732725773434" lon="16.192668042530755"><ele>1093.0</ele><time>2026-05-02T15:11:58.999Z</time></trkpt><trkpt lat="39.18878650703584" lon="16.19275501035699"><ele>1092.0</ele><time>2026-05-02T15:11:59.999Z</time></trkpt><trkpt lat="39.18884832926213" lon="16.19286737762657"><ele>1091.0</ele><time>2026-05-02T15:12:00.999Z</time></trkpt><trkpt lat="39.188920939081974" lon="16.192952979955706"><ele>1090.0</ele><time>2026-05-02T15:12:01.999Z</time></trkpt><trkpt lat="39.18898218831915" lon="16.193024788194364"><ele>1089.0</ele><time>2026-05-02T15:12:02.999Z</time></trkpt><trkpt lat="39.18904380454789" lon="16.19310154841638"><ele>1086.4</ele><time>2026-05-02T15:12:03.999Z</time></trkpt><trkpt lat="39.18910323036204" lon="16.193172443960478"><ele>1083.8000000000002</ele><time>2026-05-02T15:12:04.999Z</time></trkpt><trkpt lat="39.189164570599814" lon="16.193252196546947"><ele>1081.1999999999998</ele><time>2026-05-02T15:12:06Z</time></trkpt><trkpt lat="39.189230500415896" lon="16.193326776838475"><ele>1078.6</ele><time>2026-05-02T15:12:07Z</time></trkpt><trkpt lat="39.18930571266904" lon="16.19343095107781"><ele>1076.0</ele><time>2026-05-02T15:12:08Z</time></trkpt><trkpt lat="39.18937254562124" lon="16.193527099093924"><ele>1076.0</ele><time>2026-05-02T15:12:09Z</time></trkpt><trkpt lat="39.18945113263242" lon="16.19361378437473"><ele>1076.0</ele><time>2026-05-02T15:12:10Z</time></trkpt><trkpt lat="39.18953780885437" lon="16.193687861639773"><ele>1076.0</ele><time>2026-05-02T15:12:11Z</time></trkpt><trkpt lat="39.18962839155125" lon="16.193760085969654"><ele>1076.0</ele><time>2026-05-02T15:12:12Z</time></trkpt><trkpt lat="39.18972312099291" lon="16.19383821914137"><ele>1076.0</ele><time>2026-05-02T15:12:13Z</time></trkpt><trkpt lat="39.18981732622134" lon="16.193916423058702"><ele>1072.75</ele><time>2026-05-02T15:12:14Z</time></trkpt><trkpt lat="39.189912727044195" lon="16.193992250267392"><ele>1069.5</ele><time>2026-05-02T15:12:15Z</time></trkpt><trkpt lat="39.19001348618976" lon="16.194059856469032"><ele>1066.25</ele><time>2026-05-02T15:12:16Z</time></trkpt><trkpt lat="39.19011596834015" lon="16.1941183441122"><ele>1063.0</ele><time>2026-05-02T15:12:17Z</time></trkpt><trkpt lat="39.190226709012435" lon="16.194175614095233"><ele>1062.6</ele><time>2026-05-02T15:12:18Z</time></trkpt><trkpt lat="39.1903411222452" lon="16.194237748192652"><ele>1062.1999999999998</ele><time>2026-05-02T15:12:19Z</time></trkpt><trkpt lat="39.1904465839005" lon="16.19429375033654"><ele>1061.8</ele><time>2026-05-02T15:12:20Z</time></trkpt><trkpt lat="39.190539371293546" lon="16.194343414177787"><ele>1061.3999999999999</ele><time>2026-05-02T15:12:21Z</time></trkpt><trkpt lat="39.19062742862753" lon="16.194385587204838"><ele>1061.0</ele><time>2026-05-02T15:12:22Z</time></trkpt><trkpt lat="39.19070799657351" lon="16.194415649564988"><ele>1060.0</ele><time>2026-05-02T15:12:23Z</time></trkpt><trkpt lat="39.19077913135966" lon="16.194449673484815"><ele>1059.0</ele><time>2026-05-02T15:12:24Z</time></trkpt><trkpt lat="39.190859119985454" lon="16.19450120915013"><ele>1058.0</ele><time>2026-05-02T15:12:25Z</time></trkpt><trkpt lat="39.19092700868859" lon="16.194583586907342"><ele>1057.0</ele><time>2026-05-02T15:12:26Z</time></trkpt><trkpt lat="39.19100274836957" lon="16.194643424921853"><ele>1056.0</ele><time>2026-05-02T15:12:27Z</time></trkpt><trkpt lat="39.191066743696894" lon="16.194704181502438"><ele>1055.0</ele><time>2026-05-02T15:12:28Z</time></trkpt><trkpt lat="39.19112558888364" lon="16.194772644062347"><ele>1055.0</ele><time>2026-05-02T15:12:29Z</time></trkpt><trkpt lat="39.19117529475386" lon="16.194836189257675"><ele>1055.0</ele><time>2026-05-02T15:12:30Z</time></trkpt><trkpt lat="39.191227894422035" lon="16.194894163536908"><ele>1055.0</ele><time>2026-05-02T15:12:31Z</time></trkpt><trkpt lat="39.191276057583615" lon="16.19496763908709"><ele>1055.0</ele><time>2026-05-02T15:12:32Z</time></trkpt><trkpt lat="39.19133829346814" lon="16.19499488527491"><ele>1055.0</ele><time>2026-05-02T15:12:33Z</time></trkpt><trkpt lat="39.19139739952121" lon="16.19502481009157"><ele>1055.0</ele><time>2026-05-02T15:12:34Z</time></trkpt><trkpt lat="39.19146511258071" lon="16.195034404184558"><ele>1055.0</ele><time>2026-05-02T15:12:35Z</time></trkpt><trkpt lat="39.19159514696752" lon="16.19500201771812"><ele>1054.2</ele><time>2026-05-02T15:12:37Z</time></trkpt><trkpt lat="39.19165891063632" lon="16.194989434752863"><ele>1053.4</ele><time>2026-05-02T15:12:38Z</time></trkpt><trkpt lat="39.191755006528176" lon="16.195014332026727"><ele>1052.6</ele><time>2026-05-02T15:12:40Z</time></trkpt><trkpt lat="39.19178956280113" lon="16.195112125730017"><ele>1051.8</ele><time>2026-05-02T15:12:42Z</time></trkpt><trkpt lat="39.19171458207322" lon="16.195249458804515"><ele>1051.0</ele><time>2026-05-02T15:12:44Z</time></trkpt><trkpt lat="39.19165271901608" lon="16.195335030881125"><ele>1051.0</ele><time>2026-05-02T15:12:45Z</time></trkpt><trkpt lat="39.191567744405354" lon="16.195406463915123"><ele>1051.0</ele><time>2026-05-02T15:12:46Z</time></trkpt><trkpt lat="39.191503625807485" lon="16.195444649368888"><ele>1051.0</ele><time>2026-05-02T15:12:47Z</time></trkpt><trkpt lat="39.19143068877545" lon="16.195478459756334"><ele>1051.0</ele><time>2026-05-02T15:12:48Z</time></trkpt><trkpt lat="39.191340323992506" lon="16.195511259087812"><ele>1051.0</ele><time>2026-05-02T15:12:49Z</time></trkpt><trkpt lat="39.19127080565244" lon="16.19551648347647"><ele>1051.0</ele><time>2026-05-02T15:12:50Z</time></trkpt><trkpt lat="39.19119182369815" lon="16.195588495441633"><ele>1048.6</ele><time>2026-05-02T15:12:51Z</time></trkpt><trkpt lat="39.19110385485969" lon="16.19567315239389"><ele>1046.1999999999998</ele><time>2026-05-02T15:12:52Z</time></trkpt><trkpt lat="39.191014619092456" lon="16.195685530399732"><ele>1043.8000000000002</ele><time>2026-05-02T15:12:53Z</time></trkpt><trkpt lat="39.1909012197323" lon="16.195681487280265"><ele>1041.4</ele><time>2026-05-02T15:12:54Z</time></trkpt><trkpt lat="39.19080212448305" lon="16.195740606971796"><ele>1039.0</ele><time>2026-05-02T15:12:55Z</time></trkpt><trkpt lat="39.19071782080171" lon="16.195823056617876"><ele>1039.0</ele><time>2026-05-02T15:12:56Z</time></trkpt><trkpt lat="39.19064699108617" lon="16.195870994306627"><ele>1039.0</ele><time>2026-05-02T15:12:57Z</time></trkpt><trkpt lat="39.19055253590096" lon="16.19591734631256"><ele>1039.0</ele><time>2026-05-02T15:12:58Z</time></trkpt><trkpt lat="39.19047320336874" lon="16.195950233989272"><ele>1039.0</ele><time>2026-05-02T15:12:59Z</time></trkpt><trkpt lat="39.19041347135254" lon="16.196001048827885"><ele>1039.0</ele><time>2026-05-02T15:13:00Z</time></trkpt><trkpt lat="39.19037805668104" lon="16.196088686798806"><ele>1039.0</ele><time>2026-05-02T15:13:01Z</time></trkpt><trkpt lat="39.19038064326066" lon="16.19619994450016"><ele>1039.0</ele><time>2026-05-02T15:13:02Z</time></trkpt><trkpt lat="39.190410950201404" lon="16.196309880993404"><ele>1039.0</ele><time>2026-05-02T15:13:03Z</time></trkpt><trkpt lat="39.19043313941777" lon="16.196419968692467"><ele>1039.0</ele><time>2026-05-02T15:13:04Z</time></trkpt><trkpt lat="39.19045807386514" lon="16.196516143934197"><ele>1039.0</ele><time>2026-05-02T15:13:05Z</time></trkpt><trkpt lat="39.19048794386053" lon="16.196607287480774"><ele>1039.0</ele><time>2026-05-02T15:13:06Z</time></trkpt><trkpt lat="39.190541076749696" lon="16.196709270740296"><ele>1039.0</ele><time>2026-05-02T15:13:07Z</time></trkpt><trkpt lat="39.1906111053043" lon="16.19681489806265"><ele>1037.6666666666665</ele><time>2026-05-02T15:13:08Z</time></trkpt><trkpt lat="39.19067911851477" lon="16.19692191139044"><ele>1036.3333333333333</ele><time>2026-05-02T15:13:09Z</time></trkpt><trkpt lat="39.19074998897687" lon="16.197006249756413"><ele>1035.0</ele><time>2026-05-02T15:13:10Z</time></trkpt><trkpt lat="39.19079730091109" lon="16.197092060751146"><ele>1033.6666666666667</ele><time>2026-05-02T15:13:11Z</time></trkpt><trkpt lat="39.19083707986021" lon="16.197171950211242"><ele>1032.3333333333335</ele><time>2026-05-02T15:13:12Z</time></trkpt><trkpt lat="39.19088694231248" lon="16.19724735194554"><ele>1031.0</ele><time>2026-05-02T15:13:13Z</time></trkpt><trkpt lat="39.19094372039728" lon="16.19733256127903"><ele>1030.6</ele><time>2026-05-02T15:13:14Z</time></trkpt><trkpt lat="39.19102281744876" lon="16.197400419055658"><ele>1030.1999999999998</ele><time>2026-05-02T15:13:15Z</time></trkpt><trkpt lat="39.191083535643166" lon="16.19749385467182"><ele>1029.8000000000002</ele><time>2026-05-02T15:13:16Z</time></trkpt><trkpt lat="39.19116914308335" lon="16.1975596113085"><ele>1029.4</ele><time>2026-05-02T15:13:17Z</time></trkpt><trkpt lat="39.19124698480513" lon="16.1976370256697"><ele>1029.0</ele><time>2026-05-02T15:13:18Z</time></trkpt><trkpt lat="39.19129366651717" lon="16.197750757963327"><ele>1029.0</ele><time>2026-05-02T15:13:19Z</time></trkpt><trkpt lat="39.19134222064196" lon="16.197866481423148"><ele>1029.0</ele><time>2026-05-02T15:13:20Z</time></trkpt><trkpt lat="39.19139644038205" lon="16.19798921473403"><ele>1029.0</ele><time>2026-05-02T15:13:21Z</time></trkpt><trkpt lat="39.19145257580925" lon="16.198112535524547"><ele>1029.0</ele><time>2026-05-02T15:13:22Z</time></trkpt><trkpt lat="39.19150694747175" lon="16.198234166191252"><ele>1029.0</ele><time>2026-05-02T15:13:23Z</time></trkpt><trkpt lat="39.19155482506413" lon="16.198356708639942"><ele>1029.0</ele><time>2026-05-02T15:13:24Z</time></trkpt><trkpt lat="39.19158602234819" lon="16.198490743379242"><ele>1029.0</ele><time>2026-05-02T15:13:25Z</time></trkpt><trkpt lat="39.19159992976358" lon="16.19863231454835"><ele>1029.0</ele><time>2026-05-02T15:13:26Z</time></trkpt><trkpt lat="39.19159012104657" lon="16.198757028472617"><ele>1029.0</ele><time>2026-05-02T15:13:27Z</time></trkpt><trkpt lat="39.191543521857405" lon="16.198869478750122"><ele>1029.0</ele><time>2026-05-02T15:13:28Z</time></trkpt><trkpt lat="39.19150311453633" lon="16.198994361649465"><ele>1030.0</ele><time>2026-05-02T15:13:29Z</time></trkpt><trkpt lat="39.191467307801545" lon="16.199112838600985"><ele>1031.0</ele><time>2026-05-02T15:13:30Z</time></trkpt><trkpt lat="39.19144496176232" lon="16.199238531769026"><ele>1032.0</ele><time>2026-05-02T15:13:31Z</time></trkpt><trkpt lat="39.19142739484399" lon="16.199364384157718"><ele>1033.0</ele><time>2026-05-02T15:13:32Z</time></trkpt><trkpt lat="39.1913946616523" lon="16.19949106582826"><ele>1034.0</ele><time>2026-05-02T15:13:33Z</time></trkpt><trkpt lat="39.19135099377811" lon="16.199616214564717"><ele>1034.0</ele><time>2026-05-02T15:13:34Z</time></trkpt><trkpt lat="39.19129354447533" lon="16.199742690384365"><ele>1034.0</ele><time>2026-05-02T15:13:35Z</time></trkpt><trkpt lat="39.19123025823645" lon="16.19987259014072"><ele>1034.0</ele><time>2026-05-02T15:13:36Z</time></trkpt><trkpt lat="39.191163790570386" lon="16.200008871373164"><ele>1034.0</ele><time>2026-05-02T15:13:37Z</time></trkpt><trkpt lat="39.19109376582775" lon="16.200152446353684"><ele>1035.0</ele><time>2026-05-02T15:13:38Z</time></trkpt><trkpt lat="39.191028792762296" lon="16.200285663243417"><ele>1036.0</ele><time>2026-05-02T15:13:39Z</time></trkpt><trkpt lat="39.19096612331721" lon="16.200414157024838"><ele>1037.0</ele><time>2026-05-02T15:13:40Z</time></trkpt><trkpt lat="39.190907672949656" lon="16.200534000579577"><ele>1038.0</ele><time>2026-05-02T15:13:41Z</time></trkpt><trkpt lat="39.19085065067001" lon="16.200645025062734"><ele>1037.8</ele><time>2026-05-02T15:13:42Z</time></trkpt><trkpt lat="39.19079589775051" lon="16.200751923896846"><ele>1037.6</ele><time>2026-05-02T15:13:43Z</time></trkpt><trkpt lat="39.19074033804343" lon="16.20085302035845"><ele>1037.4</ele><time>2026-05-02T15:13:44Z</time></trkpt><trkpt lat="39.19068742963844" lon="16.20094974512816"><ele>1037.2</ele><time>2026-05-02T15:13:44.999Z</time></trkpt><trkpt lat="39.19063616013234" lon="16.201043473721114"><ele>1037.0</ele><time>2026-05-02T15:13:45.999Z</time></trkpt><trkpt lat="39.19058795815536" lon="16.20113289932076"><ele>1036.5</ele><time>2026-05-02T15:13:46.999Z</time></trkpt><trkpt lat="39.190552940458986" lon="16.201234271806754"><ele>1036.0</ele><time>2026-05-02T15:13:47.999Z</time></trkpt><trkpt lat="39.19050623221645" lon="16.201322700051165"><ele>1035.5</ele><time>2026-05-02T15:13:48.999Z</time></trkpt><trkpt lat="39.190467419447366" lon="16.20141837998616"><ele>1035.0</ele><time>2026-05-02T15:13:49.999Z</time></trkpt><trkpt lat="39.190436582402214" lon="16.201519719099277"><ele>1034.5</ele><time>2026-05-02T15:13:50.999Z</time></trkpt><trkpt lat="39.19039834812893" lon="16.20161246545421"><ele>1034.0</ele><time>2026-05-02T15:13:51.999Z</time></trkpt><trkpt lat="39.19037613552954" lon="16.2017107355155"><ele>1033.142857142857</ele><time>2026-05-02T15:13:52.999Z</time></trkpt><trkpt lat="39.190357157728656" lon="16.201796469828476"><ele>1032.2857142857144</ele><time>2026-05-02T15:13:53.999Z</time></trkpt><trkpt lat="39.19033819765364" lon="16.20188212393071"><ele>1031.4285714285716</ele><time>2026-05-02T15:13:54.999Z</time></trkpt><trkpt lat="39.19032970366412" lon="16.201968970535248"><ele>1030.5714285714287</ele><time>2026-05-02T15:13:55.999Z</time></trkpt><trkpt lat="39.19031317415129" lon="16.20204864794794"><ele>1029.7142857142858</ele><time>2026-05-02T15:13:56.999Z</time></trkpt><trkpt lat="39.19029198711581" lon="16.202126474212715"><ele>1028.857142857143</ele><time>2026-05-02T15:13:57.999Z</time></trkpt><trkpt lat="39.190266542798305" lon="16.202205327413843"><ele>1028.0</ele><time>2026-05-02T15:13:58.999Z</time></trkpt><trkpt lat="39.19024201695684" lon="16.202371669282076"><ele>1027.5</ele><time>2026-05-02T15:14:00.999Z</time></trkpt><trkpt lat="39.19021962315132" lon="16.20246439175026"><ele>1027.0</ele><time>2026-05-02T15:14:01.999Z</time></trkpt><trkpt lat="39.19020041616656" lon="16.202573993992427"><ele>1026.5</ele><time>2026-05-02T15:14:02.999Z</time></trkpt><trkpt lat="39.190183409787544" lon="16.202678717338706"><ele>1026.0</ele><time>2026-05-02T15:14:03.999Z</time></trkpt><trkpt lat="39.190163533254065" lon="16.20277586667135"><ele>1025.5</ele><time>2026-05-02T15:14:04.999Z</time></trkpt><trkpt lat="39.19014009467585" lon="16.202857598983076"><ele>1025.0</ele><time>2026-05-02T15:14:05.999Z</time></trkpt><trkpt lat="39.19011094328068" lon="16.20296997988071"><ele>1025.0</ele><time>2026-05-02T15:14:07.999Z</time></trkpt><trkpt lat="39.190053183551456" lon="16.203022300022003"><ele>1025.0</ele><time>2026-05-02T15:14:12Z</time></trkpt><trkpt lat="39.189965391818816" lon="16.202916600228892"><ele>1025.0</ele><time>2026-05-02T15:14:13Z</time></trkpt><trkpt lat="39.18992036699037" lon="16.202836279782467"><ele>1025.0</ele><time>2026-05-02T15:14:14Z</time></trkpt><trkpt lat="39.18987342727738" lon="16.202741354156476"><ele>1025.0</ele><time>2026-05-02T15:14:15Z</time></trkpt><trkpt lat="39.18981432213986" lon="16.202649496884153"><ele>1025.0</ele><time>2026-05-02T15:14:16Z</time></trkpt><trkpt lat="39.18974696605144" lon="16.202550707334442"><ele>1024.75</ele><time>2026-05-02T15:14:17Z</time></trkpt><trkpt lat="39.18968001334114" lon="16.202445105568394"><ele>1024.5</ele><time>2026-05-02T15:14:18Z</time></trkpt><trkpt lat="39.189608311980884" lon="16.202332808332265"><ele>1024.25</ele><time>2026-05-02T15:14:19Z</time></trkpt><trkpt lat="39.18952691416605" lon="16.202216246006127"><ele>1024.0</ele><time>2026-05-02T15:14:20Z</time></trkpt><trkpt lat="39.18943588868827" lon="16.202090243202274"><ele>1023.75</ele><time>2026-05-02T15:14:21Z</time></trkpt><trkpt lat="39.18934487876244" lon="16.201963955579"><ele>1023.5</ele><time>2026-05-02T15:14:22Z</time></trkpt><trkpt lat="39.18924476431219" lon="16.201844490232798"><ele>1023.25</ele><time>2026-05-02T15:14:23Z</time></trkpt><trkpt lat="39.18914245995292" lon="16.201731531020904"><ele>1023.0</ele><time>2026-05-02T15:14:24Z</time></trkpt><trkpt lat="39.18904156484268" lon="16.20163504917796"><ele>1022.0</ele><time>2026-05-02T15:14:25Z</time></trkpt><trkpt lat="39.188941355081084" lon="16.201535959487007"><ele>1021.0</ele><time>2026-05-02T15:14:26Z</time></trkpt><trkpt lat="39.18884088567209" lon="16.201435725153114"><ele>1020.0</ele><time>2026-05-02T15:14:27Z</time></trkpt><trkpt lat="39.18873757339297" lon="16.20134218682185"><ele>1019.0</ele><time>2026-05-02T15:14:28Z</time></trkpt><trkpt lat="39.18862614539731" lon="16.201264969568935"><ele>1019.0</ele><time>2026-05-02T15:14:29Z</time></trkpt><trkpt lat="39.188514130022945" lon="16.201192283020216"><ele>1019.0</ele><time>2026-05-02T15:14:30Z</time></trkpt><trkpt lat="39.18839929837103" lon="16.201122476879426"><ele>1019.0</ele><time>2026-05-02T15:14:31Z</time></trkpt><trkpt lat="39.1882825926008" lon="16.201056982202534"><ele>1019.0</ele><time>2026-05-02T15:14:32Z</time></trkpt><trkpt lat="39.18817425742228" lon="16.20098818702101"><ele>1017.0</ele><time>2026-05-02T15:14:33Z</time></trkpt><trkpt lat="39.18806701502477" lon="16.200895465993305"><ele>1015.0</ele><time>2026-05-02T15:14:34Z</time></trkpt><trkpt lat="39.1879681518928" lon="16.20079459822854"><ele>1013.0</ele><time>2026-05-02T15:14:35Z</time></trkpt><trkpt lat="39.18787888809045" lon="16.200681044395896"><ele>1011.0</ele><time>2026-05-02T15:14:36Z</time></trkpt><trkpt lat="39.1877961488386" lon="16.200564198593106"><ele>1011.0</ele><time>2026-05-02T15:14:37Z</time></trkpt><trkpt lat="39.18771061708708" lon="16.20044751664485"><ele>1011.0</ele><time>2026-05-02T15:14:38Z</time></trkpt><trkpt lat="39.18763280518622" lon="16.200330363446678"><ele>1011.0</ele><time>2026-05-02T15:14:39Z</time></trkpt><trkpt lat="39.18753763892792" lon="16.200208134550316"><ele>1011.0</ele><time>2026-05-02T15:14:40Z</time></trkpt><trkpt lat="39.187449130839546" lon="16.200088336594735"><ele>1011.0</ele><time>2026-05-02T15:14:41Z</time></trkpt><trkpt lat="39.18735368570705" lon="16.199968210278573"><ele>1011.0</ele><time>2026-05-02T15:14:42Z</time></trkpt><trkpt lat="39.187264329191066" lon="16.19984394992158"><ele>1011.0</ele><time>2026-05-02T15:14:43Z</time></trkpt><trkpt lat="39.1871763161985" lon="16.199724752101496"><ele>1011.0</ele><time>2026-05-02T15:14:44Z</time></trkpt><trkpt lat="39.187084771792144" lon="16.199605696300164"><ele>1010.5</ele><time>2026-05-02T15:14:45Z</time></trkpt><trkpt lat="39.18699259807643" lon="16.199482514953097"><ele>1010.0</ele><time>2026-05-02T15:14:46Z</time></trkpt><trkpt lat="39.18690314754704" lon="16.199364061356547"><ele>1009.5</ele><time>2026-05-02T15:14:47Z</time></trkpt><trkpt lat="39.18681270853309" lon="16.19924805336237"><ele>1009.0</ele><time>2026-05-02T15:14:48Z</time></trkpt><trkpt lat="39.18671875089648" lon="16.199134922760596"><ele>1009.0</ele><time>2026-05-02T15:14:49Z</time></trkpt><trkpt lat="39.1866358049059" lon="16.19901199522939"><ele>1009.0</ele><time>2026-05-02T15:14:50Z</time></trkpt><trkpt lat="39.18655826359047" lon="16.198883889073606"><ele>1009.0</ele><time>2026-05-02T15:14:51Z</time></trkpt><trkpt lat="39.186494296033715" lon="16.19874655535506"><ele>1009.0</ele><time>2026-05-02T15:14:52Z</time></trkpt><trkpt lat="39.1864499860021" lon="16.198599652205175"><ele>1009.5</ele><time>2026-05-02T15:14:53Z</time></trkpt><trkpt lat="39.18641167588049" lon="16.198447676625456"><ele>1010.0</ele><time>2026-05-02T15:14:54Z</time></trkpt><trkpt lat="39.18636984560211" lon="16.19829919008282"><ele>1010.5</ele><time>2026-05-02T15:14:55Z</time></trkpt><trkpt lat="39.18631059493488" lon="16.198159357293267"><ele>1011.0</ele><time>2026-05-02T15:14:56Z</time></trkpt><trkpt lat="39.1862376251863" lon="16.198034216243588"><ele>1011.0</ele><time>2026-05-02T15:14:57Z</time></trkpt><trkpt lat="39.186155122184516" lon="16.19791025070151"><ele>1011.0</ele><time>2026-05-02T15:14:58Z</time></trkpt><trkpt lat="39.18606781166203" lon="16.197796573525125"><ele>1011.0</ele><time>2026-05-02T15:14:59Z</time></trkpt><trkpt lat="39.18597430933069" lon="16.197683625420737"><ele>1011.0</ele><time>2026-05-02T15:15:00Z</time></trkpt><trkpt lat="39.18587976495192" lon="16.197581170936967"><ele>1011.0</ele><time>2026-05-02T15:15:01Z</time></trkpt><trkpt lat="39.185779848246696" lon="16.19747619459247"><ele>1011.0</ele><time>2026-05-02T15:15:02Z</time></trkpt><trkpt lat="39.18568410416368" lon="16.19737164780835"><ele>1011.0</ele><time>2026-05-02T15:15:03Z</time></trkpt><trkpt lat="39.18558360691856" lon="16.197265385481106"><ele>1011.0</ele><time>2026-05-02T15:15:04Z</time></trkpt><trkpt lat="39.18548547700223" lon="16.197154148610277"><ele>1010.5</ele><time>2026-05-02T15:15:05Z</time></trkpt><trkpt lat="39.18538508898776" lon="16.197045490727135"><ele>1010.0</ele><time>2026-05-02T15:15:06Z</time></trkpt><trkpt lat="39.18528019488068" lon="16.196931851262814"><ele>1009.5</ele><time>2026-05-02T15:15:07Z</time></trkpt><trkpt lat="39.18518000852275" lon="16.196823293725767"><ele>1009.0</ele><time>2026-05-02T15:15:08Z</time></trkpt><trkpt lat="39.18508131754224" lon="16.196712183856263"><ele>1009.0</ele><time>2026-05-02T15:15:09Z</time></trkpt><trkpt lat="39.184981442941485" lon="16.196600621036783"><ele>1009.0</ele><time>2026-05-02T15:15:10Z</time></trkpt><trkpt lat="39.18488187119883" lon="16.19648853787609"><ele>1009.0</ele><time>2026-05-02T15:15:11Z</time></trkpt><trkpt lat="39.18478143307073" lon="16.196376515873865"><ele>1009.0</ele><time>2026-05-02T15:15:12Z</time></trkpt><trkpt lat="39.1846853134923" lon="16.196257700479222"><ele>1008.25</ele><time>2026-05-02T15:15:13Z</time></trkpt><trkpt lat="39.18459629158699" lon="16.19613129146886"><ele>1007.5</ele><time>2026-05-02T15:15:14Z</time></trkpt><trkpt lat="39.18450866537886" lon="16.196000196781217"><ele>1006.75</ele><time>2026-05-02T15:15:15Z</time></trkpt><trkpt lat="39.18442435592126" lon="16.1958641015447"><ele>1006.0</ele><time>2026-05-02T15:15:16Z</time></trkpt><trkpt lat="39.184341026366425" lon="16.19572515417322"><ele>1006.75</ele><time>2026-05-02T15:15:17Z</time></trkpt><trkpt lat="39.18425664077594" lon="16.195582934602136"><ele>1007.5</ele><time>2026-05-02T15:15:18Z</time></trkpt><trkpt lat="39.18417927995039" lon="16.19544506597118"><ele>1008.25</ele><time>2026-05-02T15:15:19Z</time></trkpt><trkpt lat="39.184104463980496" lon="16.195311276341805"><ele>1009.0</ele><time>2026-05-02T15:15:20Z</time></trkpt><trkpt lat="39.18402866453421" lon="16.195177059132202"><ele>1007.75</ele><time>2026-05-02T15:15:21Z</time></trkpt><trkpt lat="39.18395656797907" lon="16.195041606222336"><ele>1006.5</ele><time>2026-05-02T15:15:22Z</time></trkpt><trkpt lat="39.183881005098776" lon="16.19490606194023"><ele>1005.25</ele><time>2026-05-02T15:15:23Z</time></trkpt><trkpt lat="39.18380482531308" lon="16.194771992705302"><ele>1004.0</ele><time>2026-05-02T15:15:24Z</time></trkpt><trkpt lat="39.18373270831015" lon="16.194634171350696"><ele>1003.5</ele><time>2026-05-02T15:15:25Z</time></trkpt><trkpt lat="39.18365414492876" lon="16.194501322230213"><ele>1003.0</ele><time>2026-05-02T15:15:26Z</time></trkpt><trkpt lat="39.18355370243298" lon="16.194408001393313"><ele>1002.5</ele><time>2026-05-02T15:15:27Z</time></trkpt><trkpt lat="39.1834434306245" lon="16.194336695356796"><ele>1002.0</ele><time>2026-05-02T15:15:28Z</time></trkpt><trkpt lat="39.18333858463709" lon="16.194266930687107"><ele>1002.0</ele><time>2026-05-02T15:15:29Z</time></trkpt><trkpt lat="39.183248675799" lon="16.194170592256008"><ele>1002.0</ele><time>2026-05-02T15:15:30Z</time></trkpt><trkpt lat="39.18317754727692" lon="16.194051389815407"><ele>1002.0</ele><time>2026-05-02T15:15:31Z</time></trkpt><trkpt lat="39.18311948290498" lon="16.193922098504792"><ele>1002.0</ele><time>2026-05-02T15:15:32Z</time></trkpt><trkpt lat="39.18305896063892" lon="16.193798638707264"><ele>1001.5</ele><time>2026-05-02T15:15:33Z</time></trkpt><trkpt lat="39.182987830206706" lon="16.193680284990087"><ele>1001.0</ele><time>2026-05-02T15:15:34Z</time></trkpt><trkpt lat="39.182905275781735" lon="16.193584001680737"><ele>1000.5</ele><time>2026-05-02T15:15:35Z</time></trkpt><trkpt lat="39.18280322065974" lon="16.19352990454676"><ele>1000.0</ele><time>2026-05-02T15:15:36Z</time></trkpt><trkpt lat="39.182688946028726" lon="16.19351097063966"><ele>1000.0</ele><time>2026-05-02T15:15:37Z</time></trkpt><trkpt lat="39.18257107886966" lon="16.193515362949263"><ele>1000.0</ele><time>2026-05-02T15:15:38Z</time></trkpt><trkpt lat="39.18246179974947" lon="16.193492206182718"><ele>1000.0</ele><time>2026-05-02T15:15:39Z</time></trkpt><trkpt lat="39.182342269633025" lon="16.19345340827379"><ele>1000.0</ele><time>2026-05-02T15:15:40Z</time></trkpt><trkpt lat="39.182234411198095" lon="16.193402457512022"><ele>997.75</ele><time>2026-05-02T15:15:40.999Z</time></trkpt><trkpt lat="39.182134455253255" lon="16.19332844369841"><ele>995.5</ele><time>2026-05-02T15:15:41.999Z</time></trkpt><trkpt lat="39.182030522071706" lon="16.193281863651336"><ele>993.25</ele><time>2026-05-02T15:15:42.999Z</time></trkpt><trkpt lat="39.18190279867894" lon="16.193262904404236"><ele>991.0</ele><time>2026-05-02T15:15:43.999Z</time></trkpt><trkpt lat="39.1817832897228" lon="16.193277665796337"><ele>991.0</ele><time>2026-05-02T15:15:44.999Z</time></trkpt><trkpt lat="39.181675175345376" lon="16.19330198354525"><ele>991.0</ele><time>2026-05-02T15:15:45.999Z</time></trkpt><trkpt lat="39.181567140945354" lon="16.193297761684864"><ele>991.0</ele><time>2026-05-02T15:15:46.999Z</time></trkpt><trkpt lat="39.18146064252176" lon="16.19323645618542"><ele>991.0</ele><time>2026-05-02T15:15:47.999Z</time></trkpt><trkpt lat="39.18136982558633" lon="16.1931353153903"><ele>993.5</ele><time>2026-05-02T15:15:48.999Z</time></trkpt><trkpt lat="39.18129479270478" lon="16.193019528936258"><ele>996.0</ele><time>2026-05-02T15:15:49.999Z</time></trkpt><trkpt lat="39.18122188957533" lon="16.19292079285367"><ele>998.5</ele><time>2026-05-02T15:15:50.999Z</time></trkpt><trkpt lat="39.181125481373414" lon="16.192849031476708"><ele>1001.0</ele><time>2026-05-02T15:15:51.999Z</time></trkpt><trkpt lat="39.18100452186029" lon="16.19281425044898"><ele>1001.0</ele><time>2026-05-02T15:15:52.999Z</time></trkpt><trkpt lat="39.18087265994863" lon="16.19282706991091"><ele>1001.0</ele><time>2026-05-02T15:15:53.999Z</time></trkpt><trkpt lat="39.18074060530624" lon="16.19285513843739"><ele>1001.0</ele><time>2026-05-02T15:15:54.999Z</time></trkpt><trkpt lat="39.180605798475135" lon="16.192885176861665"><ele>1001.0</ele><time>2026-05-02T15:15:55.999Z</time></trkpt><trkpt lat="39.18047076343038" lon="16.192906502441527"><ele>998.5</ele><time>2026-05-02T15:15:56.999Z</time></trkpt><trkpt lat="39.18033619517879" lon="16.192904697713104"><ele>996.0</ele><time>2026-05-02T15:15:57.999Z</time></trkpt><trkpt lat="39.18020961404764" lon="16.19285931643912"><ele>993.5</ele><time>2026-05-02T15:15:58.999Z</time></trkpt><trkpt lat="39.18009684957179" lon="16.19277276012213"><ele>991.0</ele><time>2026-05-02T15:15:59.999Z</time></trkpt><trkpt lat="39.17999019054255" lon="16.192674597843794"><ele>991.0</ele><time>2026-05-02T15:16:00.999Z</time></trkpt><trkpt lat="39.17986802460144" lon="16.19261585790012"><ele>991.0</ele><time>2026-05-02T15:16:01.999Z</time></trkpt><trkpt lat="39.17973873571298" lon="16.192608062678914"><ele>991.0</ele><time>2026-05-02T15:16:02.999Z</time></trkpt><trkpt lat="39.17961728207786" lon="16.19263881487029"><ele>991.0</ele><time>2026-05-02T15:16:03.999Z</time></trkpt><trkpt lat="39.17950118464539" lon="16.1926643492046"><ele>989.0</ele><time>2026-05-02T15:16:04.999Z</time></trkpt><trkpt lat="39.17937678332769" lon="16.192632198999085"><ele>987.0</ele><time>2026-05-02T15:16:05.999Z</time></trkpt><trkpt lat="39.17926452695265" lon="16.19253552931745"><ele>985.0</ele><time>2026-05-02T15:16:06.999Z</time></trkpt><trkpt lat="39.17916423740667" lon="16.19241971397529"><ele>983.0</ele><time>2026-05-02T15:16:07.999Z</time></trkpt><trkpt lat="39.179056030284684" lon="16.192330789750397"><ele>980.75</ele><time>2026-05-02T15:16:08.999Z</time></trkpt><trkpt lat="39.178938918804896" lon="16.192278920215838"><ele>978.5</ele><time>2026-05-02T15:16:09.999Z</time></trkpt><trkpt lat="39.178823852730034" lon="16.192241837405426"><ele>976.25</ele><time>2026-05-02T15:16:10.999Z</time></trkpt><trkpt lat="39.17872341396677" lon="16.19218359892255"><ele>974.0</ele><time>2026-05-02T15:16:11.999Z</time></trkpt><trkpt lat="39.17862897518404" lon="16.19210150573541"><ele>974.0</ele><time>2026-05-02T15:16:12.999Z</time></trkpt><trkpt lat="39.178541134776964" lon="16.19199542736505"><ele>974.0</ele><time>2026-05-02T15:16:13.999Z</time></trkpt><trkpt lat="39.17845463609863" lon="16.191880973455802"><ele>974.0</ele><time>2026-05-02T15:16:14.999Z</time></trkpt><trkpt lat="39.17836131862659" lon="16.191772674074187"><ele>974.0</ele><time>2026-05-02T15:16:15.999Z</time></trkpt><trkpt lat="39.178267407160426" lon="16.191663997432194"><ele>974.0</ele><time>2026-05-02T15:16:16.999Z</time></trkpt><trkpt lat="39.17817988157624" lon="16.19155271012089"><ele>974.0000000000001</ele><time>2026-05-02T15:16:18Z</time></trkpt><trkpt lat="39.178092158387614" lon="16.191460257522426"><ele>974.0000000000001</ele><time>2026-05-02T15:16:19Z</time></trkpt><trkpt lat="39.17799824865523" lon="16.191397622256307"><ele>974.0</ele><time>2026-05-02T15:16:20Z</time></trkpt><trkpt lat="39.1779035091149" lon="16.191348662073448"><ele>974.0</ele><time>2026-05-02T15:16:21Z</time></trkpt><trkpt lat="39.177811513932305" lon="16.191311006590514"><ele>974.6666666666667</ele><time>2026-05-02T15:16:22Z</time></trkpt><trkpt lat="39.17771902459565" lon="16.191281978772178"><ele>975.3333333333334</ele><time>2026-05-02T15:16:23Z</time></trkpt><trkpt lat="39.17763567734979" lon="16.19125633587431"><ele>976.0</ele><time>2026-05-02T15:16:24Z</time></trkpt><trkpt lat="39.17755505858957" lon="16.19122291719555"><ele>976.6666666666667</ele><time>2026-05-02T15:16:25Z</time></trkpt><trkpt lat="39.17747975706906" lon="16.19118665514362"><ele>977.3333333333334</ele><time>2026-05-02T15:16:26Z</time></trkpt><trkpt lat="39.17740884887774" lon="16.191153711480734"><ele>978.0</ele><time>2026-05-02T15:16:27Z</time></trkpt><trkpt lat="39.177340106478354" lon="16.19112193661605"><ele>976.1428571428572</ele><time>2026-05-02T15:16:28Z</time></trkpt><trkpt lat="39.17727262127825" lon="16.191082485636638"><ele>974.2857142857144</ele><time>2026-05-02T15:16:29Z</time></trkpt><trkpt lat="39.1772072590099" lon="16.191047983778454"><ele>972.4285714285714</ele><time>2026-05-02T15:16:30Z</time></trkpt><trkpt lat="39.17714328208954" lon="16.191010087267184"><ele>970.5714285714287</ele><time>2026-05-02T15:16:31Z</time></trkpt><trkpt lat="39.177082124029724" lon="16.19096914609794"><ele>968.7142857142858</ele><time>2026-05-02T15:16:32Z</time></trkpt><trkpt lat="39.177026732677376" lon="16.190920075247018"><ele>966.8571428571429</ele><time>2026-05-02T15:16:33Z</time></trkpt><trkpt lat="39.17697566574935" lon="16.190863776080924"><ele>965.0</ele><time>2026-05-02T15:16:34Z</time></trkpt><trkpt lat="39.17692608944453" lon="16.190808468395378"><ele>965.0</ele><time>2026-05-02T15:16:35Z</time></trkpt><trkpt lat="39.176876604853256" lon="16.19075529632075"><ele>965.0</ele><time>2026-05-02T15:16:36Z</time></trkpt><trkpt lat="39.1767877824533" lon="16.19064924020037"><ele>965.0</ele><time>2026-05-02T15:16:38Z</time></trkpt><trkpt lat="39.17670187573191" lon="16.190554475432712"><ele>965.0</ele><time>2026-05-02T15:16:40Z</time></trkpt><trkpt lat="39.17662243663439" lon="16.190466307891107"><ele>965.0</ele><time>2026-05-02T15:16:42Z</time></trkpt><trkpt lat="39.17655391806188" lon="16.19038546169465"><ele>964.5000000000001</ele><time>2026-05-02T15:16:44Z</time></trkpt><trkpt lat="39.17649265876525" lon="16.19031098026565"><ele>964.0</ele><time>2026-05-02T15:16:46Z</time></trkpt><trkpt lat="39.17643243971878" lon="16.190242804893277"><ele>963.5</ele><time>2026-05-02T15:16:48Z</time></trkpt><trkpt lat="39.17637726191222" lon="16.19017868637922"><ele>963.0</ele><time>2026-05-02T15:16:50Z</time></trkpt><trkpt lat="39.17632571033119" lon="16.19011943109285"><ele>962.5000000000001</ele><time>2026-05-02T15:16:52Z</time></trkpt><trkpt lat="39.17625919408291" lon="16.190039021634462"><ele>962.0</ele><time>2026-05-02T15:16:55Z</time></trkpt><trkpt lat="39.17619329655675" lon="16.189971848230982"><ele>962.0</ele><time>2026-05-02T15:16:58Z</time></trkpt><trkpt lat="39.17611804847941" lon="16.189899225025147"><ele>962.0</ele><time>2026-05-02T15:17:00Z</time></trkpt><trkpt lat="39.17605052220811" lon="16.189857756349486"><ele>962.0</ele><time>2026-05-02T15:17:01Z</time></trkpt><trkpt lat="39.17596773084038" lon="16.189812127200245"><ele>962.0</ele><time>2026-05-02T15:17:02Z</time></trkpt><trkpt lat="39.17586926708557" lon="16.189785717822488"><ele>962.0</ele><time>2026-05-02T15:17:03Z</time></trkpt><trkpt lat="39.175760199504005" lon="16.1897574424922"><ele>962.25</ele><time>2026-05-02T15:17:04Z</time></trkpt><trkpt lat="39.17565217938599" lon="16.18970335551979"><ele>962.5</ele><time>2026-05-02T15:17:05Z</time></trkpt><trkpt lat="39.17554676547282" lon="16.18963429357115"><ele>962.75</ele><time>2026-05-02T15:17:06Z</time></trkpt><trkpt lat="39.17545143459295" lon="16.189550291169915"><ele>963.0</ele><time>2026-05-02T15:17:07Z</time></trkpt><trkpt lat="39.175353992579026" lon="16.18946321233381"><ele>963.0</ele><time>2026-05-02T15:17:08Z</time></trkpt><trkpt lat="39.175250019187644" lon="16.18938400241504"><ele>963.0</ele><time>2026-05-02T15:17:09Z</time></trkpt><trkpt lat="39.17514671400375" lon="16.189305233967833"><ele>963.0</ele><time>2026-05-02T15:17:10Z</time></trkpt><trkpt lat="39.175050000906545" lon="16.189207949461952"><ele>963.0</ele><time>2026-05-02T15:17:11Z</time></trkpt><trkpt lat="39.17497406926072" lon="16.189073982039982"><ele>961.25</ele><time>2026-05-02T15:17:12Z</time></trkpt><trkpt lat="39.17490665683437" lon="16.188916957514394"><ele>959.5</ele><time>2026-05-02T15:17:13Z</time></trkpt><trkpt lat="39.17486112497744" lon="16.188765633248853"><ele>957.75</ele><time>2026-05-02T15:17:14Z</time></trkpt><trkpt lat="39.17480786622039" lon="16.18863308837606"><ele>956.0</ele><time>2026-05-02T15:17:15Z</time></trkpt><trkpt lat="39.1747445505057" lon="16.188516715336124"><ele>956.0</ele><time>2026-05-02T15:17:16Z</time></trkpt><trkpt lat="39.174647413978676" lon="16.188430427404274"><ele>956.0</ele><time>2026-05-02T15:17:17Z</time></trkpt><trkpt lat="39.174531512630786" lon="16.188365357153366"><ele>956.0</ele><time>2026-05-02T15:17:18Z</time></trkpt><trkpt lat="39.174409158780456" lon="16.188311378927427"><ele>956.0</ele><time>2026-05-02T15:17:19Z</time></trkpt><trkpt lat="39.17429394935099" lon="16.188287845498287"><ele>956.0</ele><time>2026-05-02T15:17:20Z</time></trkpt><trkpt lat="39.17418605382469" lon="16.188280883901186"><ele>956.0</ele><time>2026-05-02T15:17:21Z</time></trkpt><trkpt lat="39.174084465941256" lon="16.188243205569893"><ele>956.0</ele><time>2026-05-02T15:17:22Z</time></trkpt><trkpt lat="39.17398805034983" lon="16.188156001245925"><ele>956.0</ele><time>2026-05-02T15:17:23Z</time></trkpt><trkpt lat="39.1739122934779" lon="16.18802542144321"><ele>952.75</ele><time>2026-05-02T15:17:24Z</time></trkpt><trkpt lat="39.17385145071246" lon="16.18788612103181"><ele>949.5</ele><time>2026-05-02T15:17:25Z</time></trkpt><trkpt lat="39.173813367390586" lon="16.187745914689568"><ele>946.25</ele><time>2026-05-02T15:17:26Z</time></trkpt><trkpt lat="39.173807261983384" lon="16.18758791204428"><ele>943.0</ele><time>2026-05-02T15:17:27Z</time></trkpt><trkpt lat="39.173836112087045" lon="16.18742325268229"><ele>943.5</ele><time>2026-05-02T15:17:28Z</time></trkpt><trkpt lat="39.173888391871074" lon="16.187266242842668"><ele>944.0</ele><time>2026-05-02T15:17:29Z</time></trkpt><trkpt lat="39.173945839737385" lon="16.187109657863644"><ele>944.5</ele><time>2026-05-02T15:17:30Z</time></trkpt><trkpt lat="39.173998925639395" lon="16.186941713901742"><ele>945.0</ele><time>2026-05-02T15:17:31Z</time></trkpt><trkpt lat="39.1740450834412" lon="16.18678604465795"><ele>945.0</ele><time>2026-05-02T15:17:32Z</time></trkpt><trkpt lat="39.174070351395926" lon="16.18663337043054"><ele>945.0</ele><time>2026-05-02T15:17:33Z</time></trkpt><trkpt lat="39.174060152795576" lon="16.186483762002002"><ele>945.0</ele><time>2026-05-02T15:17:34Z</time></trkpt><trkpt lat="39.174021541681334" lon="16.18632901501859"><ele>945.0</ele><time>2026-05-02T15:17:35Z</time></trkpt><trkpt lat="39.17399020105667" lon="16.186166796488425"><ele>945.75</ele><time>2026-05-02T15:17:36Z</time></trkpt><trkpt lat="39.17398907632703" lon="16.185995536131383"><ele>946.5</ele><time>2026-05-02T15:17:37Z</time></trkpt><trkpt lat="39.17399142928859" lon="16.18582870859431"><ele>947.25</ele><time>2026-05-02T15:17:38Z</time></trkpt><trkpt lat="39.17400007451805" lon="16.185660169570767"><ele>948.0</ele><time>2026-05-02T15:17:39Z</time></trkpt><trkpt lat="39.17403388690158" lon="16.185501138533443"><ele>948.0</ele><time>2026-05-02T15:17:40Z</time></trkpt><trkpt lat="39.17406196258638" lon="16.185355159537075"><ele>948.0</ele><time>2026-05-02T15:17:41Z</time></trkpt><trkpt lat="39.17403954988192" lon="16.185206587892594"><ele>948.0</ele><time>2026-05-02T15:17:42Z</time></trkpt><trkpt lat="39.17400038964378" lon="16.18505350441926"><ele>948.0</ele><time>2026-05-02T15:17:43Z</time></trkpt><trkpt lat="39.17396099326574" lon="16.184897044266755"><ele>942.0</ele><time>2026-05-02T15:17:44Z</time></trkpt><trkpt lat="39.173913405017345" lon="16.184747319376825"><ele>936.0</ele><time>2026-05-02T15:17:45Z</time></trkpt><trkpt lat="39.17385640184353" lon="16.184619824897"><ele>930.0</ele><time>2026-05-02T15:17:46Z</time></trkpt><trkpt lat="39.17378694619746" lon="16.18450988425294"><ele>924.0</ele><time>2026-05-02T15:17:47Z</time></trkpt><trkpt lat="39.17371421915437" lon="16.184411554047312"><ele>924.0</ele><time>2026-05-02T15:17:48Z</time></trkpt><trkpt lat="39.17363583687545" lon="16.184294389780018"><ele>924.0</ele><time>2026-05-02T15:17:48.999Z</time></trkpt><trkpt lat="39.17355498277285" lon="16.184152070241808"><ele>924.0</ele><time>2026-05-02T15:17:49.999Z</time></trkpt><trkpt lat="39.173475492317685" lon="16.18399078494716"><ele>924.0</ele><time>2026-05-02T15:17:50.999Z</time></trkpt><trkpt lat="39.17340923908853" lon="16.183806608062703"><ele>922.75</ele><time>2026-05-02T15:17:51.999Z</time></trkpt><trkpt lat="39.17336921456738" lon="16.1836191254331"><ele>921.5</ele><time>2026-05-02T15:17:52.999Z</time></trkpt><trkpt lat="39.1733389223122" lon="16.183453962797625"><ele>920.25</ele><time>2026-05-02T15:17:53.999Z</time></trkpt><trkpt lat="39.17327575423682" lon="16.183296391741266"><ele>919.0</ele><time>2026-05-02T15:17:54.999Z</time></trkpt><trkpt lat="39.173174737832724" lon="16.183161198195265"><ele>919.0</ele><time>2026-05-02T15:17:55.999Z</time></trkpt><trkpt lat="39.17305403350505" lon="16.183076777859323"><ele>919.0</ele><time>2026-05-02T15:17:56.999Z</time></trkpt><trkpt lat="39.172934520610596" lon="16.183001315078958"><ele>919.0</ele><time>2026-05-02T15:17:57.999Z</time></trkpt><trkpt lat="39.172823464563" lon="16.182898831032336"><ele>919.0</ele><time>2026-05-02T15:17:58.999Z</time></trkpt><trkpt lat="39.172731634472186" lon="16.18278328062391"><ele>919.0</ele><time>2026-05-02T15:17:59.999Z</time></trkpt><trkpt lat="39.17264468896449" lon="16.182656424120275"><ele>919.0</ele><time>2026-05-02T15:18:00.999Z</time></trkpt><trkpt lat="39.17255242885798" lon="16.182531928893994"><ele>919.0</ele><time>2026-05-02T15:18:01.999Z</time></trkpt><trkpt lat="39.17246112769571" lon="16.182411687408937"><ele>919.0</ele><time>2026-05-02T15:18:02.999Z</time></trkpt><trkpt lat="39.17238125678595" lon="16.18229824862115"><ele>916.6</ele><time>2026-05-02T15:18:03.999Z</time></trkpt><trkpt lat="39.17229813740704" lon="16.182196268323096"><ele>914.2</ele><time>2026-05-02T15:18:04.999Z</time></trkpt><trkpt lat="39.17221191014052" lon="16.182105893500637"><ele>911.8000000000001</ele><time>2026-05-02T15:18:05.999Z</time></trkpt><trkpt lat="39.17213228311496" lon="16.182028496075326"><ele>909.4000000000001</ele><time>2026-05-02T15:18:06.999Z</time></trkpt><trkpt lat="39.17207928907172" lon="16.181967645519443"><ele>907.0</ele><time>2026-05-02T15:18:07.999Z</time></trkpt><trkpt lat="39.17203696687451" lon="16.181899765570485"><ele>907.0</ele><time>2026-05-02T15:18:09.999Z</time></trkpt><trkpt lat="39.171990467431414" lon="16.181808393465207"><ele>907.0</ele><time>2026-05-02T15:18:13.999Z</time></trkpt><trkpt lat="39.17193555739192" lon="16.181741532275762"><ele>907.0</ele><time>2026-05-02T15:18:15.999Z</time></trkpt><trkpt lat="39.1718661257975" lon="16.181700668850695"><ele>907.0</ele><time>2026-05-02T15:18:16.999Z</time></trkpt><trkpt lat="39.17169196513207" lon="16.181324445333473"><ele>906.5</ele><time>2026-05-02T15:18:17.999Z</time></trkpt><trkpt lat="39.17177557529155" lon="16.18108912698366"><ele>906.0</ele><time>2026-05-02T15:18:18.999Z</time></trkpt><trkpt lat="39.17180111380067" lon="16.18101105924032"><ele>905.5</ele><time>2026-05-02T15:18:19.999Z</time></trkpt><trkpt lat="39.171831227384665" lon="16.18085688503958"><ele>905.0</ele><time>2026-05-02T15:18:21.999Z</time></trkpt><trkpt lat="39.171838320076716" lon="16.180763486209983"><ele>904.6</ele><time>2026-05-02T15:18:25Z</time></trkpt><trkpt lat="39.17184188373925" lon="16.180672529667394"><ele>904.2</ele><time>2026-05-02T15:18:28Z</time></trkpt><trkpt lat="39.17202681933257" lon="16.18061322095563"><ele>903.8</ele><time>2026-05-02T15:18:31Z</time></trkpt><trkpt lat="39.17203098833398" lon="16.18052193876193"><ele>903.4</ele><time>2026-05-02T15:18:37Z</time></trkpt><trkpt lat="39.17206084628145" lon="16.18042204755601"><ele>903.0</ele><time>2026-05-02T15:18:41Z</time></trkpt><trkpt lat="39.17212826260833" lon="16.18040726272712"><ele>903.0</ele><time>2026-05-02T15:18:45Z</time></trkpt><trkpt lat="39.17217048373605" lon="16.18034301085391"><ele>903.0</ele><time>2026-05-02T15:18:48Z</time></trkpt><trkpt lat="39.1722206631672" lon="16.180277026463695"><ele>903.0</ele><time>2026-05-02T15:18:52Z</time></trkpt><trkpt lat="39.172196209874635" lon="16.180200506061556"><ele>903.0</ele><time>2026-05-02T15:19:26Z</time></trkpt><trkpt lat="39.17214738393322" lon="16.180149125659675"><ele>903.0</ele><time>2026-05-02T15:19:29Z</time></trkpt><trkpt lat="39.17220277280873" lon="16.180193694231658"><ele>903.0</ele><time>2026-05-02T15:19:38Z</time></trkpt><trkpt lat="39.17220998797272" lon="16.180285434968273"><ele>903.0</ele><time>2026-05-02T15:19:41Z</time></trkpt><trkpt lat="39.17216979636637" lon="16.180377257129713"><ele>903.0</ele><time>2026-05-02T15:19:45Z</time></trkpt><trkpt lat="39.17209720900837" lon="16.1804056049788"><ele>903.0</ele><time>2026-05-02T15:19:48Z</time></trkpt><trkpt lat="39.17203757883124" lon="16.180450799395164"><ele>903.0</ele><time>2026-05-02T15:19:50.999Z</time></trkpt><trkpt lat="39.17201605395184" lon="16.180555117620838"><ele>903.0</ele><time>2026-05-02T15:19:54.999Z</time></trkpt><trkpt lat="39.17198659897961" lon="16.180629742376087"><ele>903.0</ele><time>2026-05-02T15:19:57.999Z</time></trkpt><trkpt lat="39.171977728390935" lon="16.180713656852003"><ele>903.0</ele><time>2026-05-02T15:20:02.999Z</time></trkpt><trkpt lat="39.171942491159946" lon="16.1807985411013"><ele>903.0</ele><time>2026-05-02T15:20:07.999Z</time></trkpt><trkpt lat="39.17194347345236" lon="16.180902100775544"><ele>903.3333333333334</ele><time>2026-05-02T15:20:11.999Z</time></trkpt><trkpt lat="39.17194939360268" lon="16.180996200689172"><ele>903.6666666666667</ele><time>2026-05-02T15:20:15.999Z</time></trkpt><trkpt lat="39.17196056176138" lon="16.181077969134964"><ele>904.0</ele><time>2026-05-02T15:20:17.999Z</time></trkpt><trkpt lat="39.171975819782396" lon="16.181180642281227"><ele>904.3333333333334</ele><time>2026-05-02T15:20:21.999Z</time></trkpt><trkpt lat="39.1719881897619" lon="16.181279611574002"><ele>904.6666666666667</ele><time>2026-05-02T15:20:25.999Z</time></trkpt><trkpt lat="39.17198936091621" lon="16.181388150049887"><ele>905.0</ele><time>2026-05-02T15:20:28.999Z</time></trkpt><trkpt lat="39.17199700938964" lon="16.181524251450167"><ele>907.0</ele><time>2026-05-02T15:20:33Z</time></trkpt><trkpt lat="39.172010062794" lon="16.181636102519633"><ele>907.0</ele><time>2026-05-02T15:20:36Z</time></trkpt><trkpt lat="39.17202208891715" lon="16.18171658159419"><ele>907.0</ele><time>2026-05-02T15:20:40Z</time></trkpt><trkpt lat="39.17203805757029" lon="16.181800554682212"><ele>907.0</ele><time>2026-05-02T15:22:24.999Z</time></trkpt></trkseg></trk></gpx>